<?xml version="1.0" encoding="utf-8"?>
<gpx xmlns:xsi="http://www.w3.org/2001/XMLSchema-instance" xmlns:xsd="http://www.w3.org/2001/XMLSchema" version="1.1" creator="Shapelink.com" xmlns="http://www.topografix.com/GPX/1/1" xmlns:gpxtpx="http://www.garmin.com/xmlschemas/TrackPointExtension/v1">
  <metadata>
    <name>Løping 4.90 km, 2014-05-27</name>
    <desc></desc>
    <author><name>Mikael Blom</name></author> 
    <time>2014-05-27T18:02:13Z</time>
  </metadata>
  <trk>
    <name>Løping 4.90 km, 2014-05-27</name>
    <trkseg>
      <trkpt lat="59.9540182" lon="17.7149037">
        <ele>49.1646</ele>
        <time>2014-05-27T18:02:13Z</time>
      </trkpt>
      <trkpt lat="59.9539996" lon="17.7149165">
        <ele>49.6453</ele>
        <time>2014-05-27T18:02:14Z</time>
      </trkpt>
      <trkpt lat="59.9539747" lon="17.7149305">
        <ele>49.1646</ele>
        <time>2014-05-27T18:02:15Z</time>
      </trkpt>
      <trkpt lat="59.9539448" lon="17.7149385">
        <ele>49.1646</ele>
        <time>2014-05-27T18:02:16Z</time>
      </trkpt>
      <trkpt lat="59.9539151" lon="17.7149515">
        <ele>48.2034</ele>
        <time>2014-05-27T18:02:17Z</time>
      </trkpt>
      <trkpt lat="59.9538896" lon="17.7149559">
        <ele>47.7225</ele>
        <time>2014-05-27T18:02:18Z</time>
      </trkpt>
      <trkpt lat="59.9538616" lon="17.7149545">
        <ele>47.2418</ele>
        <time>2014-05-27T18:02:19Z</time>
      </trkpt>
      <trkpt lat="59.9538297" lon="17.7149705">
        <ele>47.2418</ele>
        <time>2014-05-27T18:02:20Z</time>
      </trkpt>
      <trkpt lat="59.953797" lon="17.7149965">
        <ele>47.2418</ele>
        <time>2014-05-27T18:02:21Z</time>
      </trkpt>
      <trkpt lat="59.9537624" lon="17.7150222">
        <ele>46.7612</ele>
        <time>2014-05-27T18:02:22Z</time>
      </trkpt>
      <trkpt lat="59.953726" lon="17.7150366">
        <ele>47.2418</ele>
        <time>2014-05-27T18:02:23Z</time>
      </trkpt>
      <trkpt lat="59.9536915" lon="17.715041">
        <ele>46.2806</ele>
        <time>2014-05-27T18:02:24Z</time>
      </trkpt>
      <trkpt lat="59.9536611" lon="17.7150607">
        <ele>45.7999</ele>
        <time>2014-05-27T18:02:25Z</time>
      </trkpt>
      <trkpt lat="59.9536373" lon="17.7150791">
        <ele>45.3192</ele>
        <time>2014-05-27T18:02:26Z</time>
      </trkpt>
      <trkpt lat="59.9536073" lon="17.7150984">
        <ele>44.8386</ele>
        <time>2014-05-27T18:02:27Z</time>
      </trkpt>
      <trkpt lat="59.9535847" lon="17.7151252">
        <ele>44.8386</ele>
        <time>2014-05-27T18:02:28Z</time>
      </trkpt>
      <trkpt lat="59.9535584" lon="17.7151487">
        <ele>44.8386</ele>
        <time>2014-05-27T18:02:29Z</time>
      </trkpt>
      <trkpt lat="59.9535308" lon="17.7151809">
        <ele>44.8386</ele>
        <time>2014-05-27T18:02:30Z</time>
      </trkpt>
      <trkpt lat="59.9535053" lon="17.7151995">
        <ele>45.3192</ele>
        <time>2014-05-27T18:02:31Z</time>
      </trkpt>
      <trkpt lat="59.9534764" lon="17.7152233">
        <ele>45.7999</ele>
        <time>2014-05-27T18:02:32Z</time>
      </trkpt>
      <trkpt lat="59.9534571" lon="17.7152493">
        <ele>46.2806</ele>
        <time>2014-05-27T18:02:33Z</time>
      </trkpt>
      <trkpt lat="59.953432" lon="17.7152824">
        <ele>46.2806</ele>
        <time>2014-05-27T18:02:34Z</time>
      </trkpt>
      <trkpt lat="59.9534022" lon="17.7153159">
        <ele>46.2806</ele>
        <time>2014-05-27T18:02:35Z</time>
      </trkpt>
      <trkpt lat="59.9533779" lon="17.7153434">
        <ele>45.7999</ele>
        <time>2014-05-27T18:02:36Z</time>
      </trkpt>
      <trkpt lat="59.95335" lon="17.7153771">
        <ele>45.3192</ele>
        <time>2014-05-27T18:02:37Z</time>
      </trkpt>
      <trkpt lat="59.9533293" lon="17.7154176">
        <ele>45.7999</ele>
        <time>2014-05-27T18:02:38Z</time>
      </trkpt>
      <trkpt lat="59.9533064" lon="17.7154573">
        <ele>46.2806</ele>
        <time>2014-05-27T18:02:39Z</time>
      </trkpt>
      <trkpt lat="59.9532846" lon="17.7155154">
        <ele>47.2418</ele>
        <time>2014-05-27T18:02:40Z</time>
      </trkpt>
      <trkpt lat="59.9532612" lon="17.7155765">
        <ele>48.2034</ele>
        <time>2014-05-27T18:02:41Z</time>
      </trkpt>
      <trkpt lat="59.9532366" lon="17.7156327">
        <ele>48.684</ele>
        <time>2014-05-27T18:02:42Z</time>
      </trkpt>
      <trkpt lat="59.9532121" lon="17.715688">
        <ele>48.684</ele>
        <time>2014-05-27T18:02:43Z</time>
      </trkpt>
      <trkpt lat="59.9531889" lon="17.7157306">
        <ele>49.1646</ele>
        <time>2014-05-27T18:02:44Z</time>
      </trkpt>
      <trkpt lat="59.9531635" lon="17.7157584">
        <ele>48.684</ele>
        <time>2014-05-27T18:02:45Z</time>
      </trkpt>
      <trkpt lat="59.9531355" lon="17.7157715">
        <ele>47.2418</ele>
        <time>2014-05-27T18:02:46Z</time>
      </trkpt>
      <trkpt lat="59.9531117" lon="17.7157922">
        <ele>46.7612</ele>
        <time>2014-05-27T18:02:47Z</time>
      </trkpt>
      <trkpt lat="59.9530921" lon="17.7158341">
        <ele>46.7612</ele>
        <time>2014-05-27T18:02:48Z</time>
      </trkpt>
      <trkpt lat="59.9530691" lon="17.7158761">
        <ele>46.7612</ele>
        <time>2014-05-27T18:02:49Z</time>
      </trkpt>
      <trkpt lat="59.9530541" lon="17.7159106">
        <ele>47.2418</ele>
        <time>2014-05-27T18:02:50Z</time>
      </trkpt>
      <trkpt lat="59.9530382" lon="17.7159396">
        <ele>46.2806</ele>
        <time>2014-05-27T18:02:51Z</time>
      </trkpt>
      <trkpt lat="59.9530266" lon="17.7159776">
        <ele>46.2806</ele>
        <time>2014-05-27T18:02:52Z</time>
      </trkpt>
      <trkpt lat="59.9530176" lon="17.7160077">
        <ele>45.3192</ele>
        <time>2014-05-27T18:02:53Z</time>
      </trkpt>
      <trkpt lat="59.9530105" lon="17.7160499">
        <ele>45.3192</ele>
        <time>2014-05-27T18:02:54Z</time>
      </trkpt>
      <trkpt lat="59.953005" lon="17.7160894">
        <ele>44.8386</ele>
        <time>2014-05-27T18:02:55Z</time>
      </trkpt>
      <trkpt lat="59.953001" lon="17.7161345">
        <ele>44.8386</ele>
        <time>2014-05-27T18:02:56Z</time>
      </trkpt>
      <trkpt lat="59.952993" lon="17.7161879">
        <ele>43.8773</ele>
        <time>2014-05-27T18:02:57Z</time>
      </trkpt>
      <trkpt lat="59.9529841" lon="17.7162401">
        <ele>43.8773</ele>
        <time>2014-05-27T18:02:58Z</time>
      </trkpt>
      <trkpt lat="59.952975" lon="17.7162845">
        <ele>43.3966</ele>
        <time>2014-05-27T18:02:59Z</time>
      </trkpt>
      <trkpt lat="59.9529651" lon="17.7163283">
        <ele>42.916</ele>
        <time>2014-05-27T18:03:00Z</time>
      </trkpt>
      <trkpt lat="59.9529525" lon="17.7163741">
        <ele>42.4354</ele>
        <time>2014-05-27T18:03:01Z</time>
      </trkpt>
      <trkpt lat="59.9529427" lon="17.7164187">
        <ele>42.4354</ele>
        <time>2014-05-27T18:03:02Z</time>
      </trkpt>
      <trkpt lat="59.9529331" lon="17.7164578">
        <ele>41.9547</ele>
        <time>2014-05-27T18:03:03Z</time>
      </trkpt>
      <trkpt lat="59.9529235" lon="17.7165088">
        <ele>41.9547</ele>
        <time>2014-05-27T18:03:04Z</time>
      </trkpt>
      <trkpt lat="59.9529158" lon="17.7165535">
        <ele>41.474</ele>
        <time>2014-05-27T18:03:05Z</time>
      </trkpt>
      <trkpt lat="59.9529088" lon="17.7166026">
        <ele>40.9934</ele>
        <time>2014-05-27T18:03:06Z</time>
      </trkpt>
      <trkpt lat="59.952904" lon="17.7166592">
        <ele>40.9934</ele>
        <time>2014-05-27T18:03:07Z</time>
      </trkpt>
      <trkpt lat="59.9529061" lon="17.7167152">
        <ele>40.9934</ele>
        <time>2014-05-27T18:03:08Z</time>
      </trkpt>
      <trkpt lat="59.9529097" lon="17.7167676">
        <ele>40.9934</ele>
        <time>2014-05-27T18:03:09Z</time>
      </trkpt>
      <trkpt lat="59.9529069" lon="17.7168243">
        <ele>40.5128</ele>
        <time>2014-05-27T18:03:10Z</time>
      </trkpt>
      <trkpt lat="59.9529034" lon="17.7168842">
        <ele>40.0321</ele>
        <time>2014-05-27T18:03:11Z</time>
      </trkpt>
      <trkpt lat="59.9529012" lon="17.7169399">
        <ele>40.0321</ele>
        <time>2014-05-27T18:03:12Z</time>
      </trkpt>
      <trkpt lat="59.9528993" lon="17.7169897">
        <ele>40.0321</ele>
        <time>2014-05-27T18:03:13Z</time>
      </trkpt>
      <trkpt lat="59.9528978" lon="17.7170369">
        <ele>40.0321</ele>
        <time>2014-05-27T18:03:14Z</time>
      </trkpt>
      <trkpt lat="59.9528951" lon="17.7170845">
        <ele>39.5513</ele>
        <time>2014-05-27T18:03:15Z</time>
      </trkpt>
      <trkpt lat="59.9528961" lon="17.7171348">
        <ele>40.0321</ele>
        <time>2014-05-27T18:03:16Z</time>
      </trkpt>
      <trkpt lat="59.9528943" lon="17.717183">
        <ele>39.5513</ele>
        <time>2014-05-27T18:03:17Z</time>
      </trkpt>
      <trkpt lat="59.952881" lon="17.7172328">
        <ele>39.5513</ele>
        <time>2014-05-27T18:03:18Z</time>
      </trkpt>
      <trkpt lat="59.9528667" lon="17.717283">
        <ele>39.5513</ele>
        <time>2014-05-27T18:03:19Z</time>
      </trkpt>
      <trkpt lat="59.9528539" lon="17.7173353">
        <ele>40.0321</ele>
        <time>2014-05-27T18:03:20Z</time>
      </trkpt>
      <trkpt lat="59.9528438" lon="17.7173819">
        <ele>40.0321</ele>
        <time>2014-05-27T18:03:21Z</time>
      </trkpt>
      <trkpt lat="59.9528315" lon="17.7174285">
        <ele>40.0321</ele>
        <time>2014-05-27T18:03:22Z</time>
      </trkpt>
      <trkpt lat="59.9528128" lon="17.7174768">
        <ele>40.0321</ele>
        <time>2014-05-27T18:03:23Z</time>
      </trkpt>
      <trkpt lat="59.9527886" lon="17.7175172">
        <ele>39.5513</ele>
        <time>2014-05-27T18:03:24Z</time>
      </trkpt>
      <trkpt lat="59.9527626" lon="17.7175559">
        <ele>38.5901</ele>
        <time>2014-05-27T18:03:25Z</time>
      </trkpt>
      <trkpt lat="59.9527434" lon="17.7176021">
        <ele>39.0707</ele>
        <time>2014-05-27T18:03:26Z</time>
      </trkpt>
      <trkpt lat="59.9527314" lon="17.7176446">
        <ele>38.5901</ele>
        <time>2014-05-27T18:03:27Z</time>
      </trkpt>
      <trkpt lat="59.9527181" lon="17.7176994">
        <ele>38.5901</ele>
        <time>2014-05-27T18:03:28Z</time>
      </trkpt>
      <trkpt lat="59.9526971" lon="17.7177502">
        <ele>39.0707</ele>
        <time>2014-05-27T18:03:29Z</time>
      </trkpt>
      <trkpt lat="59.9526766" lon="17.7177971">
        <ele>39.0707</ele>
        <time>2014-05-27T18:03:30Z</time>
      </trkpt>
      <trkpt lat="59.9526629" lon="17.7178335">
        <ele>39.0707</ele>
        <time>2014-05-27T18:03:31Z</time>
      </trkpt>
      <trkpt lat="59.9526517" lon="17.7178678">
        <ele>39.0707</ele>
        <time>2014-05-27T18:03:32Z</time>
      </trkpt>
      <trkpt lat="59.9526365" lon="17.7178995">
        <ele>38.5901</ele>
        <time>2014-05-27T18:03:33Z</time>
      </trkpt>
      <trkpt lat="59.9526178" lon="17.7179474">
        <ele>39.5513</ele>
        <time>2014-05-27T18:03:34Z</time>
      </trkpt>
      <trkpt lat="59.9526015" lon="17.7180012">
        <ele>40.9934</ele>
        <time>2014-05-27T18:03:35Z</time>
      </trkpt>
      <trkpt lat="59.9525902" lon="17.7180443">
        <ele>40.9934</ele>
        <time>2014-05-27T18:03:36Z</time>
      </trkpt>
      <trkpt lat="59.9525782" lon="17.7180807">
        <ele>40.5128</ele>
        <time>2014-05-27T18:03:37Z</time>
      </trkpt>
      <trkpt lat="59.9525697" lon="17.7181283">
        <ele>41.474</ele>
        <time>2014-05-27T18:03:38Z</time>
      </trkpt>
      <trkpt lat="59.9525609" lon="17.7181697">
        <ele>41.474</ele>
        <time>2014-05-27T18:03:39Z</time>
      </trkpt>
      <trkpt lat="59.9525502" lon="17.7182121">
        <ele>41.474</ele>
        <time>2014-05-27T18:03:40Z</time>
      </trkpt>
      <trkpt lat="59.952535" lon="17.7182569">
        <ele>41.474</ele>
        <time>2014-05-27T18:03:41Z</time>
      </trkpt>
      <trkpt lat="59.952519" lon="17.7183076">
        <ele>41.474</ele>
        <time>2014-05-27T18:03:42Z</time>
      </trkpt>
      <trkpt lat="59.9525086" lon="17.7183583">
        <ele>40.5128</ele>
        <time>2014-05-27T18:03:43Z</time>
      </trkpt>
      <trkpt lat="59.9525" lon="17.7184066">
        <ele>40.0321</ele>
        <time>2014-05-27T18:03:44Z</time>
      </trkpt>
      <trkpt lat="59.952493" lon="17.7184527">
        <ele>40.0321</ele>
        <time>2014-05-27T18:03:45Z</time>
      </trkpt>
      <trkpt lat="59.9524849" lon="17.7185011">
        <ele>40.5128</ele>
        <time>2014-05-27T18:03:46Z</time>
      </trkpt>
      <trkpt lat="59.9524765" lon="17.7185438">
        <ele>40.5128</ele>
        <time>2014-05-27T18:03:47Z</time>
      </trkpt>
      <trkpt lat="59.9524694" lon="17.7185876">
        <ele>40.9934</ele>
        <time>2014-05-27T18:03:48Z</time>
      </trkpt>
      <trkpt lat="59.952455" lon="17.7186391">
        <ele>41.9547</ele>
        <time>2014-05-27T18:03:49Z</time>
      </trkpt>
      <trkpt lat="59.9524417" lon="17.718686">
        <ele>41.9547</ele>
        <time>2014-05-27T18:03:50Z</time>
      </trkpt>
      <trkpt lat="59.95243" lon="17.7187292">
        <ele>41.9547</ele>
        <time>2014-05-27T18:03:51Z</time>
      </trkpt>
      <trkpt lat="59.9524163" lon="17.7187748">
        <ele>41.9547</ele>
        <time>2014-05-27T18:03:52Z</time>
      </trkpt>
      <trkpt lat="59.9524034" lon="17.7188209">
        <ele>41.474</ele>
        <time>2014-05-27T18:03:53Z</time>
      </trkpt>
      <trkpt lat="59.9523957" lon="17.7188665">
        <ele>41.474</ele>
        <time>2014-05-27T18:03:54Z</time>
      </trkpt>
      <trkpt lat="59.952389" lon="17.7189167">
        <ele>41.474</ele>
        <time>2014-05-27T18:03:55Z</time>
      </trkpt>
      <trkpt lat="59.9523802" lon="17.7189609">
        <ele>41.474</ele>
        <time>2014-05-27T18:03:56Z</time>
      </trkpt>
      <trkpt lat="59.952372" lon="17.7190048">
        <ele>41.474</ele>
        <time>2014-05-27T18:03:57Z</time>
      </trkpt>
      <trkpt lat="59.9523601" lon="17.7190478">
        <ele>41.474</ele>
        <time>2014-05-27T18:03:58Z</time>
      </trkpt>
      <trkpt lat="59.9523497" lon="17.7190992">
        <ele>40.9934</ele>
        <time>2014-05-27T18:03:59Z</time>
      </trkpt>
      <trkpt lat="59.9523405" lon="17.719153">
        <ele>40.9934</ele>
        <time>2014-05-27T18:04:00Z</time>
      </trkpt>
      <trkpt lat="59.952335" lon="17.7192095">
        <ele>40.9934</ele>
        <time>2014-05-27T18:04:01Z</time>
      </trkpt>
      <trkpt lat="59.9523294" lon="17.719266">
        <ele>40.9934</ele>
        <time>2014-05-27T18:04:02Z</time>
      </trkpt>
      <trkpt lat="59.952321" lon="17.7193176">
        <ele>40.5128</ele>
        <time>2014-05-27T18:04:03Z</time>
      </trkpt>
      <trkpt lat="59.9523171" lon="17.7193748">
        <ele>40.5128</ele>
        <time>2014-05-27T18:04:04Z</time>
      </trkpt>
      <trkpt lat="59.952319" lon="17.7194332">
        <ele>40.5128</ele>
        <time>2014-05-27T18:04:05Z</time>
      </trkpt>
      <trkpt lat="59.9523239" lon="17.7194884">
        <ele>40.9934</ele>
        <time>2014-05-27T18:04:06Z</time>
      </trkpt>
      <trkpt lat="59.9523337" lon="17.7195382">
        <ele>41.474</ele>
        <time>2014-05-27T18:04:07Z</time>
      </trkpt>
      <trkpt lat="59.9523452" lon="17.7195917">
        <ele>40.9934</ele>
        <time>2014-05-27T18:04:08Z</time>
      </trkpt>
      <trkpt lat="59.9523596" lon="17.7196371">
        <ele>40.9934</ele>
        <time>2014-05-27T18:04:09Z</time>
      </trkpt>
      <trkpt lat="59.9523737" lon="17.7196763">
        <ele>40.9934</ele>
        <time>2014-05-27T18:04:10Z</time>
      </trkpt>
      <trkpt lat="59.9523897" lon="17.7197228">
        <ele>40.9934</ele>
        <time>2014-05-27T18:04:11Z</time>
      </trkpt>
      <trkpt lat="59.9524102" lon="17.7197766">
        <ele>40.0321</ele>
        <time>2014-05-27T18:04:12Z</time>
      </trkpt>
      <trkpt lat="59.9524251" lon="17.7198226">
        <ele>39.0707</ele>
        <time>2014-05-27T18:04:13Z</time>
      </trkpt>
      <trkpt lat="59.9524352" lon="17.7198625">
        <ele>37.6287</ele>
        <time>2014-05-27T18:04:14Z</time>
      </trkpt>
      <trkpt lat="59.9524455" lon="17.7199035">
        <ele>37.6287</ele>
        <time>2014-05-27T18:04:15Z</time>
      </trkpt>
      <trkpt lat="59.9524555" lon="17.7199481">
        <ele>38.1094</ele>
        <time>2014-05-27T18:04:16Z</time>
      </trkpt>
      <trkpt lat="59.9524633" lon="17.7199907">
        <ele>38.1094</ele>
        <time>2014-05-27T18:04:17Z</time>
      </trkpt>
      <trkpt lat="59.9524767" lon="17.72003">
        <ele>38.1094</ele>
        <time>2014-05-27T18:04:18Z</time>
      </trkpt>
      <trkpt lat="59.9524797" lon="17.7200712">
        <ele>37.6287</ele>
        <time>2014-05-27T18:04:19Z</time>
      </trkpt>
      <trkpt lat="59.9524828" lon="17.7201232">
        <ele>37.6287</ele>
        <time>2014-05-27T18:04:20Z</time>
      </trkpt>
      <trkpt lat="59.9524835" lon="17.7201797">
        <ele>37.6287</ele>
        <time>2014-05-27T18:04:21Z</time>
      </trkpt>
      <trkpt lat="59.9524838" lon="17.7202351">
        <ele>38.1094</ele>
        <time>2014-05-27T18:04:22Z</time>
      </trkpt>
      <trkpt lat="59.9524849" lon="17.7202823">
        <ele>38.5901</ele>
        <time>2014-05-27T18:04:23Z</time>
      </trkpt>
      <trkpt lat="59.9524854" lon="17.7203336">
        <ele>39.5513</ele>
        <time>2014-05-27T18:04:24Z</time>
      </trkpt>
      <trkpt lat="59.9524853" lon="17.7203848">
        <ele>39.5513</ele>
        <time>2014-05-27T18:04:25Z</time>
      </trkpt>
      <trkpt lat="59.9524854" lon="17.7204283">
        <ele>40.0321</ele>
        <time>2014-05-27T18:04:26Z</time>
      </trkpt>
      <trkpt lat="59.9524875" lon="17.7204784">
        <ele>40.5128</ele>
        <time>2014-05-27T18:04:27Z</time>
      </trkpt>
      <trkpt lat="59.9524856" lon="17.7205293">
        <ele>40.9934</ele>
        <time>2014-05-27T18:04:28Z</time>
      </trkpt>
      <trkpt lat="59.9524824" lon="17.7205853">
        <ele>41.474</ele>
        <time>2014-05-27T18:04:29Z</time>
      </trkpt>
      <trkpt lat="59.952475" lon="17.7206474">
        <ele>42.4354</ele>
        <time>2014-05-27T18:04:30Z</time>
      </trkpt>
      <trkpt lat="59.952473" lon="17.7207">
        <ele>41.9547</ele>
        <time>2014-05-27T18:04:31Z</time>
      </trkpt>
      <trkpt lat="59.9524714" lon="17.7207583">
        <ele>42.4354</ele>
        <time>2014-05-27T18:04:32Z</time>
      </trkpt>
      <trkpt lat="59.9524699" lon="17.7208123">
        <ele>43.3966</ele>
        <time>2014-05-27T18:04:33Z</time>
      </trkpt>
      <trkpt lat="59.9524702" lon="17.720857">
        <ele>43.3966</ele>
        <time>2014-05-27T18:04:34Z</time>
      </trkpt>
      <trkpt lat="59.9524669" lon="17.720913">
        <ele>44.358</ele>
        <time>2014-05-27T18:04:35Z</time>
      </trkpt>
      <trkpt lat="59.9524637" lon="17.7209624">
        <ele>44.358</ele>
        <time>2014-05-27T18:04:36Z</time>
      </trkpt>
      <trkpt lat="59.9524628" lon="17.7210228">
        <ele>44.8386</ele>
        <time>2014-05-27T18:04:37Z</time>
      </trkpt>
      <trkpt lat="59.9524647" lon="17.7210746">
        <ele>45.7999</ele>
        <time>2014-05-27T18:04:38Z</time>
      </trkpt>
      <trkpt lat="59.952471" lon="17.7211315">
        <ele>47.2418</ele>
        <time>2014-05-27T18:04:39Z</time>
      </trkpt>
      <trkpt lat="59.952473" lon="17.7211773">
        <ele>48.2034</ele>
        <time>2014-05-27T18:04:40Z</time>
      </trkpt>
      <trkpt lat="59.9524739" lon="17.7212368">
        <ele>49.1646</ele>
        <time>2014-05-27T18:04:41Z</time>
      </trkpt>
      <trkpt lat="59.9524751" lon="17.7212919">
        <ele>50.126</ele>
        <time>2014-05-27T18:04:42Z</time>
      </trkpt>
      <trkpt lat="59.9524765" lon="17.7213478">
        <ele>50.6066</ele>
        <time>2014-05-27T18:04:43Z</time>
      </trkpt>
      <trkpt lat="59.952477" lon="17.7214">
        <ele>51.5679</ele>
        <time>2014-05-27T18:04:44Z</time>
      </trkpt>
      <trkpt lat="59.9524777" lon="17.7214602">
        <ele>52.0486</ele>
        <time>2014-05-27T18:04:45Z</time>
      </trkpt>
      <trkpt lat="59.9524803" lon="17.7215368">
        <ele>53.9712</ele>
        <time>2014-05-27T18:04:46Z</time>
      </trkpt>
      <trkpt lat="59.9524855" lon="17.7215877">
        <ele>53.4905</ele>
        <time>2014-05-27T18:04:47Z</time>
      </trkpt>
      <trkpt lat="59.9524861" lon="17.72164">
        <ele>53.4905</ele>
        <time>2014-05-27T18:04:48Z</time>
      </trkpt>
      <trkpt lat="59.952487" lon="17.7216928">
        <ele>53.4905</ele>
        <time>2014-05-27T18:04:49Z</time>
      </trkpt>
      <trkpt lat="59.9524907" lon="17.7217399">
        <ele>53.9712</ele>
        <time>2014-05-27T18:04:50Z</time>
      </trkpt>
      <trkpt lat="59.9524968" lon="17.7217974">
        <ele>54.9324</ele>
        <time>2014-05-27T18:04:51Z</time>
      </trkpt>
      <trkpt lat="59.9525011" lon="17.7218571">
        <ele>55.4131</ele>
        <time>2014-05-27T18:04:52Z</time>
      </trkpt>
      <trkpt lat="59.9525097" lon="17.7219096">
        <ele>55.8938</ele>
        <time>2014-05-27T18:04:53Z</time>
      </trkpt>
      <trkpt lat="59.9525189" lon="17.7219685">
        <ele>56.3745</ele>
        <time>2014-05-27T18:04:54Z</time>
      </trkpt>
      <trkpt lat="59.9525257" lon="17.7220331">
        <ele>55.8938</ele>
        <time>2014-05-27T18:04:55Z</time>
      </trkpt>
      <trkpt lat="59.9525253" lon="17.722099">
        <ele>55.4131</ele>
        <time>2014-05-27T18:04:56Z</time>
      </trkpt>
      <trkpt lat="59.9525199" lon="17.7221663">
        <ele>54.9324</ele>
        <time>2014-05-27T18:04:57Z</time>
      </trkpt>
      <trkpt lat="59.9525099" lon="17.7222341">
        <ele>54.4518</ele>
        <time>2014-05-27T18:04:58Z</time>
      </trkpt>
      <trkpt lat="59.9524966" lon="17.7222885">
        <ele>53.4905</ele>
        <time>2014-05-27T18:04:59Z</time>
      </trkpt>
      <trkpt lat="59.9524824" lon="17.7223272">
        <ele>53.0098</ele>
        <time>2014-05-27T18:05:00Z</time>
      </trkpt>
      <trkpt lat="59.9524676" lon="17.7223667">
        <ele>52.5292</ele>
        <time>2014-05-27T18:05:01Z</time>
      </trkpt>
      <trkpt lat="59.9524579" lon="17.7224138">
        <ele>52.5292</ele>
        <time>2014-05-27T18:05:02Z</time>
      </trkpt>
      <trkpt lat="59.952443" lon="17.722461">
        <ele>52.0486</ele>
        <time>2014-05-27T18:05:03Z</time>
      </trkpt>
      <trkpt lat="59.9524284" lon="17.7225038">
        <ele>51.5679</ele>
        <time>2014-05-27T18:05:04Z</time>
      </trkpt>
      <trkpt lat="59.95242" lon="17.7225517">
        <ele>51.5679</ele>
        <time>2014-05-27T18:05:05Z</time>
      </trkpt>
      <trkpt lat="59.9524143" lon="17.7226045">
        <ele>51.5679</ele>
        <time>2014-05-27T18:05:06Z</time>
      </trkpt>
      <trkpt lat="59.9524075" lon="17.722654">
        <ele>51.0872</ele>
        <time>2014-05-27T18:05:07Z</time>
      </trkpt>
      <trkpt lat="59.9524053" lon="17.7227027">
        <ele>51.0872</ele>
        <time>2014-05-27T18:05:08Z</time>
      </trkpt>
      <trkpt lat="59.9524045" lon="17.7227495">
        <ele>51.0872</ele>
        <time>2014-05-27T18:05:09Z</time>
      </trkpt>
      <trkpt lat="59.952407" lon="17.7227998">
        <ele>51.0872</ele>
        <time>2014-05-27T18:05:10Z</time>
      </trkpt>
      <trkpt lat="59.9524102" lon="17.7228468">
        <ele>50.6066</ele>
        <time>2014-05-27T18:05:11Z</time>
      </trkpt>
      <trkpt lat="59.9524132" lon="17.7228965">
        <ele>50.6066</ele>
        <time>2014-05-27T18:05:12Z</time>
      </trkpt>
      <trkpt lat="59.9524166" lon="17.7229412">
        <ele>50.6066</ele>
        <time>2014-05-27T18:05:13Z</time>
      </trkpt>
      <trkpt lat="59.9524248" lon="17.7229898">
        <ele>50.126</ele>
        <time>2014-05-27T18:05:14Z</time>
      </trkpt>
      <trkpt lat="59.9524342" lon="17.723042">
        <ele>49.6453</ele>
        <time>2014-05-27T18:05:15Z</time>
      </trkpt>
      <trkpt lat="59.9524388" lon="17.7230922">
        <ele>49.6453</ele>
        <time>2014-05-27T18:05:16Z</time>
      </trkpt>
      <trkpt lat="59.9524408" lon="17.7231375">
        <ele>49.6453</ele>
        <time>2014-05-27T18:05:17Z</time>
      </trkpt>
      <trkpt lat="59.9524353" lon="17.7231882">
        <ele>50.126</ele>
        <time>2014-05-27T18:05:18Z</time>
      </trkpt>
      <trkpt lat="59.9524418" lon="17.7232359">
        <ele>49.6453</ele>
        <time>2014-05-27T18:05:19Z</time>
      </trkpt>
      <trkpt lat="59.9524502" lon="17.7232885">
        <ele>50.126</ele>
        <time>2014-05-27T18:05:20Z</time>
      </trkpt>
      <trkpt lat="59.9524659" lon="17.7233367">
        <ele>50.6066</ele>
        <time>2014-05-27T18:05:21Z</time>
      </trkpt>
      <trkpt lat="59.952485" lon="17.7233852">
        <ele>51.0872</ele>
        <time>2014-05-27T18:05:22Z</time>
      </trkpt>
      <trkpt lat="59.9525015" lon="17.7234375">
        <ele>51.0872</ele>
        <time>2014-05-27T18:05:23Z</time>
      </trkpt>
      <trkpt lat="59.9525202" lon="17.7234897">
        <ele>51.5679</ele>
        <time>2014-05-27T18:05:24Z</time>
      </trkpt>
      <trkpt lat="59.9525284" lon="17.7235467">
        <ele>52.0486</ele>
        <time>2014-05-27T18:05:25Z</time>
      </trkpt>
      <trkpt lat="59.9525455" lon="17.7235928">
        <ele>53.0098</ele>
        <time>2014-05-27T18:05:26Z</time>
      </trkpt>
      <trkpt lat="59.9525761" lon="17.723637">
        <ele>53.0098</ele>
        <time>2014-05-27T18:05:27Z</time>
      </trkpt>
      <trkpt lat="59.9526072" lon="17.7236814">
        <ele>53.0098</ele>
        <time>2014-05-27T18:05:28Z</time>
      </trkpt>
      <trkpt lat="59.9526378" lon="17.7237229">
        <ele>52.5292</ele>
        <time>2014-05-27T18:05:29Z</time>
      </trkpt>
      <trkpt lat="59.9526522" lon="17.7237715">
        <ele>53.0098</ele>
        <time>2014-05-27T18:05:30Z</time>
      </trkpt>
      <trkpt lat="59.9526583" lon="17.7238213">
        <ele>53.0098</ele>
        <time>2014-05-27T18:05:31Z</time>
      </trkpt>
      <trkpt lat="59.9526574" lon="17.7238744">
        <ele>52.0486</ele>
        <time>2014-05-27T18:05:32Z</time>
      </trkpt>
      <trkpt lat="59.9526643" lon="17.7239316">
        <ele>53.0098</ele>
        <time>2014-05-27T18:05:33Z</time>
      </trkpt>
      <trkpt lat="59.9526572" lon="17.7239875">
        <ele>52.5292</ele>
        <time>2014-05-27T18:05:34Z</time>
      </trkpt>
      <trkpt lat="59.9526482" lon="17.7240412">
        <ele>52.0486</ele>
        <time>2014-05-27T18:05:35Z</time>
      </trkpt>
      <trkpt lat="59.9526357" lon="17.7240897">
        <ele>52.0486</ele>
        <time>2014-05-27T18:05:36Z</time>
      </trkpt>
      <trkpt lat="59.9526222" lon="17.724144">
        <ele>51.5679</ele>
        <time>2014-05-27T18:05:37Z</time>
      </trkpt>
      <trkpt lat="59.9526072" lon="17.7241922">
        <ele>51.0872</ele>
        <time>2014-05-27T18:05:38Z</time>
      </trkpt>
      <trkpt lat="59.952592" lon="17.7242414">
        <ele>50.126</ele>
        <time>2014-05-27T18:05:39Z</time>
      </trkpt>
      <trkpt lat="59.9525733" lon="17.7242904">
        <ele>50.126</ele>
        <time>2014-05-27T18:05:40Z</time>
      </trkpt>
      <trkpt lat="59.9525584" lon="17.7243336">
        <ele>50.126</ele>
        <time>2014-05-27T18:05:41Z</time>
      </trkpt>
      <trkpt lat="59.9525439" lon="17.7243776">
        <ele>49.1646</ele>
        <time>2014-05-27T18:05:42Z</time>
      </trkpt>
      <trkpt lat="59.952531" lon="17.7244289">
        <ele>49.1646</ele>
        <time>2014-05-27T18:05:43Z</time>
      </trkpt>
      <trkpt lat="59.952515" lon="17.7244811">
        <ele>48.684</ele>
        <time>2014-05-27T18:05:44Z</time>
      </trkpt>
      <trkpt lat="59.9524962" lon="17.7245356">
        <ele>48.2034</ele>
        <time>2014-05-27T18:05:45Z</time>
      </trkpt>
      <trkpt lat="59.9524733" lon="17.7245732">
        <ele>46.7612</ele>
        <time>2014-05-27T18:05:46Z</time>
      </trkpt>
      <trkpt lat="59.9524518" lon="17.724608">
        <ele>45.7999</ele>
        <time>2014-05-27T18:05:47Z</time>
      </trkpt>
      <trkpt lat="59.9524288" lon="17.7246514">
        <ele>44.8386</ele>
        <time>2014-05-27T18:05:48Z</time>
      </trkpt>
      <trkpt lat="59.9524046" lon="17.7246884">
        <ele>44.8386</ele>
        <time>2014-05-27T18:05:49Z</time>
      </trkpt>
      <trkpt lat="59.9523833" lon="17.724712">
        <ele>43.8773</ele>
        <time>2014-05-27T18:05:50Z</time>
      </trkpt>
      <trkpt lat="59.9523605" lon="17.7247379">
        <ele>42.916</ele>
        <time>2014-05-27T18:05:51Z</time>
      </trkpt>
      <trkpt lat="59.9523412" lon="17.7247682">
        <ele>42.916</ele>
        <time>2014-05-27T18:05:52Z</time>
      </trkpt>
      <trkpt lat="59.9523236" lon="17.7248065">
        <ele>42.916</ele>
        <time>2014-05-27T18:05:53Z</time>
      </trkpt>
      <trkpt lat="59.9523016" lon="17.7248423">
        <ele>42.4354</ele>
        <time>2014-05-27T18:05:54Z</time>
      </trkpt>
      <trkpt lat="59.9522772" lon="17.7248723">
        <ele>42.916</ele>
        <time>2014-05-27T18:05:55Z</time>
      </trkpt>
      <trkpt lat="59.9522504" lon="17.7249094">
        <ele>42.4354</ele>
        <time>2014-05-27T18:05:56Z</time>
      </trkpt>
      <trkpt lat="59.9522309" lon="17.7249469">
        <ele>42.4354</ele>
        <time>2014-05-27T18:05:57Z</time>
      </trkpt>
      <trkpt lat="59.9522149" lon="17.7249795">
        <ele>41.9547</ele>
        <time>2014-05-27T18:05:58Z</time>
      </trkpt>
      <trkpt lat="59.9521975" lon="17.7250285">
        <ele>40.9934</ele>
        <time>2014-05-27T18:05:59Z</time>
      </trkpt>
      <trkpt lat="59.9521829" lon="17.725071">
        <ele>40.5128</ele>
        <time>2014-05-27T18:06:00Z</time>
      </trkpt>
      <trkpt lat="59.9521669" lon="17.725108">
        <ele>40.5128</ele>
        <time>2014-05-27T18:06:01Z</time>
      </trkpt>
      <trkpt lat="59.9521522" lon="17.7251411">
        <ele>40.5128</ele>
        <time>2014-05-27T18:06:02Z</time>
      </trkpt>
      <trkpt lat="59.9521356" lon="17.7251816">
        <ele>41.474</ele>
        <time>2014-05-27T18:06:03Z</time>
      </trkpt>
      <trkpt lat="59.9521152" lon="17.7252114">
        <ele>41.9547</ele>
        <time>2014-05-27T18:06:04Z</time>
      </trkpt>
      <trkpt lat="59.9520938" lon="17.7252473">
        <ele>41.9547</ele>
        <time>2014-05-27T18:06:05Z</time>
      </trkpt>
      <trkpt lat="59.9520757" lon="17.7252856">
        <ele>42.4354</ele>
        <time>2014-05-27T18:06:06Z</time>
      </trkpt>
      <trkpt lat="59.9520582" lon="17.725323">
        <ele>42.916</ele>
        <time>2014-05-27T18:06:07Z</time>
      </trkpt>
      <trkpt lat="59.9520388" lon="17.7253619">
        <ele>42.916</ele>
        <time>2014-05-27T18:06:08Z</time>
      </trkpt>
      <trkpt lat="59.9520187" lon="17.7253951">
        <ele>42.916</ele>
        <time>2014-05-27T18:06:09Z</time>
      </trkpt>
      <trkpt lat="59.951997" lon="17.7254438">
        <ele>42.916</ele>
        <time>2014-05-27T18:06:10Z</time>
      </trkpt>
      <trkpt lat="59.9519752" lon="17.7255011">
        <ele>42.4354</ele>
        <time>2014-05-27T18:06:11Z</time>
      </trkpt>
      <trkpt lat="59.9519549" lon="17.7255393">
        <ele>41.9547</ele>
        <time>2014-05-27T18:06:12Z</time>
      </trkpt>
      <trkpt lat="59.9519342" lon="17.7255789">
        <ele>41.474</ele>
        <time>2014-05-27T18:06:13Z</time>
      </trkpt>
      <trkpt lat="59.9519136" lon="17.7256165">
        <ele>40.9934</ele>
        <time>2014-05-27T18:06:14Z</time>
      </trkpt>
      <trkpt lat="59.9518942" lon="17.7256535">
        <ele>40.5128</ele>
        <time>2014-05-27T18:06:15Z</time>
      </trkpt>
      <trkpt lat="59.9518732" lon="17.7257036">
        <ele>40.5128</ele>
        <time>2014-05-27T18:06:16Z</time>
      </trkpt>
      <trkpt lat="59.9518527" lon="17.7257483">
        <ele>40.9934</ele>
        <time>2014-05-27T18:06:17Z</time>
      </trkpt>
      <trkpt lat="59.9518331" lon="17.7257802">
        <ele>40.9934</ele>
        <time>2014-05-27T18:06:18Z</time>
      </trkpt>
      <trkpt lat="59.95181" lon="17.725815">
        <ele>40.5128</ele>
        <time>2014-05-27T18:06:19Z</time>
      </trkpt>
      <trkpt lat="59.9517891" lon="17.7258462">
        <ele>40.5128</ele>
        <time>2014-05-27T18:06:20Z</time>
      </trkpt>
      <trkpt lat="59.9517702" lon="17.7258695">
        <ele>40.9934</ele>
        <time>2014-05-27T18:06:21Z</time>
      </trkpt>
      <trkpt lat="59.9517482" lon="17.7258942">
        <ele>40.5128</ele>
        <time>2014-05-27T18:06:22Z</time>
      </trkpt>
      <trkpt lat="59.9517222" lon="17.7259227">
        <ele>40.9934</ele>
        <time>2014-05-27T18:06:23Z</time>
      </trkpt>
      <trkpt lat="59.9517005" lon="17.7259497">
        <ele>40.5128</ele>
        <time>2014-05-27T18:06:24Z</time>
      </trkpt>
      <trkpt lat="59.9516794" lon="17.7259825">
        <ele>40.5128</ele>
        <time>2014-05-27T18:06:25Z</time>
      </trkpt>
      <trkpt lat="59.9516578" lon="17.725998">
        <ele>40.5128</ele>
        <time>2014-05-27T18:06:26Z</time>
      </trkpt>
      <trkpt lat="59.9516363" lon="17.7260157">
        <ele>39.5513</ele>
        <time>2014-05-27T18:06:27Z</time>
      </trkpt>
      <trkpt lat="59.9516151" lon="17.7260475">
        <ele>39.5513</ele>
        <time>2014-05-27T18:06:28Z</time>
      </trkpt>
      <trkpt lat="59.951595" lon="17.7260896">
        <ele>39.0707</ele>
        <time>2014-05-27T18:06:29Z</time>
      </trkpt>
      <trkpt lat="59.9515756" lon="17.7261343">
        <ele>39.5513</ele>
        <time>2014-05-27T18:06:30Z</time>
      </trkpt>
      <trkpt lat="59.9515539" lon="17.726173">
        <ele>38.5901</ele>
        <time>2014-05-27T18:06:31Z</time>
      </trkpt>
      <trkpt lat="59.9515339" lon="17.7262124">
        <ele>38.1094</ele>
        <time>2014-05-27T18:06:32Z</time>
      </trkpt>
      <trkpt lat="59.9515156" lon="17.7262578">
        <ele>37.6287</ele>
        <time>2014-05-27T18:06:33Z</time>
      </trkpt>
      <trkpt lat="59.9514992" lon="17.7263097">
        <ele>37.6287</ele>
        <time>2014-05-27T18:06:34Z</time>
      </trkpt>
      <trkpt lat="59.9514847" lon="17.7263617">
        <ele>37.1481</ele>
        <time>2014-05-27T18:06:35Z</time>
      </trkpt>
      <trkpt lat="59.9514722" lon="17.7263988">
        <ele>37.1481</ele>
        <time>2014-05-27T18:06:36Z</time>
      </trkpt>
      <trkpt lat="59.9514594" lon="17.7264446">
        <ele>37.1481</ele>
        <time>2014-05-27T18:06:37Z</time>
      </trkpt>
      <trkpt lat="59.9514479" lon="17.7264947">
        <ele>37.1481</ele>
        <time>2014-05-27T18:06:38Z</time>
      </trkpt>
      <trkpt lat="59.9514365" lon="17.7265371">
        <ele>37.6287</ele>
        <time>2014-05-27T18:06:39Z</time>
      </trkpt>
      <trkpt lat="59.9514235" lon="17.7265838">
        <ele>37.6287</ele>
        <time>2014-05-27T18:06:40Z</time>
      </trkpt>
      <trkpt lat="59.9514099" lon="17.726651">
        <ele>37.6287</ele>
        <time>2014-05-27T18:06:41Z</time>
      </trkpt>
      <trkpt lat="59.9513946" lon="17.7267049">
        <ele>37.6287</ele>
        <time>2014-05-27T18:06:42Z</time>
      </trkpt>
      <trkpt lat="59.9513852" lon="17.7267537">
        <ele>37.6287</ele>
        <time>2014-05-27T18:06:43Z</time>
      </trkpt>
      <trkpt lat="59.9513836" lon="17.72681">
        <ele>38.1094</ele>
        <time>2014-05-27T18:06:44Z</time>
      </trkpt>
      <trkpt lat="59.9513909" lon="17.7268581">
        <ele>38.1094</ele>
        <time>2014-05-27T18:06:45Z</time>
      </trkpt>
      <trkpt lat="59.9514002" lon="17.7269102">
        <ele>38.1094</ele>
        <time>2014-05-27T18:06:46Z</time>
      </trkpt>
      <trkpt lat="59.951419" lon="17.7269551">
        <ele>38.1094</ele>
        <time>2014-05-27T18:06:47Z</time>
      </trkpt>
      <trkpt lat="59.9514371" lon="17.7270002">
        <ele>38.1094</ele>
        <time>2014-05-27T18:06:48Z</time>
      </trkpt>
      <trkpt lat="59.9514525" lon="17.7270511">
        <ele>38.5901</ele>
        <time>2014-05-27T18:06:49Z</time>
      </trkpt>
      <trkpt lat="59.951462" lon="17.7271008">
        <ele>39.0707</ele>
        <time>2014-05-27T18:06:50Z</time>
      </trkpt>
      <trkpt lat="59.9514661" lon="17.7271506">
        <ele>39.5513</ele>
        <time>2014-05-27T18:06:51Z</time>
      </trkpt>
      <trkpt lat="59.9514659" lon="17.7272035">
        <ele>40.0321</ele>
        <time>2014-05-27T18:06:52Z</time>
      </trkpt>
      <trkpt lat="59.9514656" lon="17.7272593">
        <ele>39.0707</ele>
        <time>2014-05-27T18:06:53Z</time>
      </trkpt>
      <trkpt lat="59.9514705" lon="17.7273142">
        <ele>39.5513</ele>
        <time>2014-05-27T18:06:54Z</time>
      </trkpt>
      <trkpt lat="59.9514711" lon="17.7273612">
        <ele>39.0707</ele>
        <time>2014-05-27T18:06:55Z</time>
      </trkpt>
      <trkpt lat="59.9514718" lon="17.7274081">
        <ele>39.0707</ele>
        <time>2014-05-27T18:06:56Z</time>
      </trkpt>
      <trkpt lat="59.9514803" lon="17.7274566">
        <ele>39.0707</ele>
        <time>2014-05-27T18:06:57Z</time>
      </trkpt>
      <trkpt lat="59.9514865" lon="17.7275012">
        <ele>39.5513</ele>
        <time>2014-05-27T18:06:58Z</time>
      </trkpt>
      <trkpt lat="59.9514912" lon="17.7275474">
        <ele>39.5513</ele>
        <time>2014-05-27T18:06:59Z</time>
      </trkpt>
      <trkpt lat="59.9514967" lon="17.727596">
        <ele>39.0707</ele>
        <time>2014-05-27T18:07:00Z</time>
      </trkpt>
      <trkpt lat="59.9515115" lon="17.7276509">
        <ele>39.5513</ele>
        <time>2014-05-27T18:07:01Z</time>
      </trkpt>
      <trkpt lat="59.9515264" lon="17.7277025">
        <ele>40.0321</ele>
        <time>2014-05-27T18:07:02Z</time>
      </trkpt>
      <trkpt lat="59.9515426" lon="17.7277455">
        <ele>40.5128</ele>
        <time>2014-05-27T18:07:03Z</time>
      </trkpt>
      <trkpt lat="59.9515639" lon="17.7277808">
        <ele>40.9934</ele>
        <time>2014-05-27T18:07:04Z</time>
      </trkpt>
      <trkpt lat="59.9515903" lon="17.7278118">
        <ele>41.474</ele>
        <time>2014-05-27T18:07:05Z</time>
      </trkpt>
      <trkpt lat="59.9516167" lon="17.7278413">
        <ele>41.474</ele>
        <time>2014-05-27T18:07:06Z</time>
      </trkpt>
      <trkpt lat="59.9516411" lon="17.7278566">
        <ele>42.4354</ele>
        <time>2014-05-27T18:07:07Z</time>
      </trkpt>
      <trkpt lat="59.9516704" lon="17.727866">
        <ele>43.8773</ele>
        <time>2014-05-27T18:07:08Z</time>
      </trkpt>
      <trkpt lat="59.951702" lon="17.7278732">
        <ele>45.3192</ele>
        <time>2014-05-27T18:07:09Z</time>
      </trkpt>
      <trkpt lat="59.9517285" lon="17.7278725">
        <ele>45.3192</ele>
        <time>2014-05-27T18:07:10Z</time>
      </trkpt>
      <trkpt lat="59.9517627" lon="17.727868">
        <ele>46.7612</ele>
        <time>2014-05-27T18:07:11Z</time>
      </trkpt>
      <trkpt lat="59.951797" lon="17.7278646">
        <ele>48.684</ele>
        <time>2014-05-27T18:07:12Z</time>
      </trkpt>
      <trkpt lat="59.9518347" lon="17.7278626">
        <ele>50.6066</ele>
        <time>2014-05-27T18:07:13Z</time>
      </trkpt>
      <trkpt lat="59.951873" lon="17.7278576">
        <ele>52.0486</ele>
        <time>2014-05-27T18:07:14Z</time>
      </trkpt>
      <trkpt lat="59.9519006" lon="17.7278431">
        <ele>53.0098</ele>
        <time>2014-05-27T18:07:15Z</time>
      </trkpt>
      <trkpt lat="59.9519203" lon="17.7278232">
        <ele>53.9712</ele>
        <time>2014-05-27T18:07:16Z</time>
      </trkpt>
      <trkpt lat="59.9519405" lon="17.7277984">
        <ele>54.4518</ele>
        <time>2014-05-27T18:07:17Z</time>
      </trkpt>
      <trkpt lat="59.9519593" lon="17.7277549">
        <ele>54.4518</ele>
        <time>2014-05-27T18:07:18Z</time>
      </trkpt>
      <trkpt lat="59.9519729" lon="17.7277095">
        <ele>53.9712</ele>
        <time>2014-05-27T18:07:19Z</time>
      </trkpt>
      <trkpt lat="59.9519841" lon="17.7276688">
        <ele>53.4905</ele>
        <time>2014-05-27T18:07:20Z</time>
      </trkpt>
      <trkpt lat="59.951997" lon="17.7276201">
        <ele>52.0486</ele>
        <time>2014-05-27T18:07:21Z</time>
      </trkpt>
      <trkpt lat="59.9520118" lon="17.7275839">
        <ele>52.5292</ele>
        <time>2014-05-27T18:07:22Z</time>
      </trkpt>
      <trkpt lat="59.9520234" lon="17.7275415">
        <ele>53.0098</ele>
        <time>2014-05-27T18:07:23Z</time>
      </trkpt>
      <trkpt lat="59.9520317" lon="17.7274934">
        <ele>52.5292</ele>
        <time>2014-05-27T18:07:24Z</time>
      </trkpt>
      <trkpt lat="59.9520411" lon="17.7274568">
        <ele>52.0486</ele>
        <time>2014-05-27T18:07:25Z</time>
      </trkpt>
      <trkpt lat="59.9520405" lon="17.7274033">
        <ele>50.126</ele>
        <time>2014-05-27T18:07:26Z</time>
      </trkpt>
      <trkpt lat="59.9520477" lon="17.7273531">
        <ele>49.1646</ele>
        <time>2014-05-27T18:07:27Z</time>
      </trkpt>
      <trkpt lat="59.952054" lon="17.727295">
        <ele>46.7612</ele>
        <time>2014-05-27T18:07:28Z</time>
      </trkpt>
      <trkpt lat="59.9520629" lon="17.7272382">
        <ele>45.3192</ele>
        <time>2014-05-27T18:07:29Z</time>
      </trkpt>
      <trkpt lat="59.9520643" lon="17.727182">
        <ele>43.3966</ele>
        <time>2014-05-27T18:07:30Z</time>
      </trkpt>
      <trkpt lat="59.952071" lon="17.7271314">
        <ele>42.916</ele>
        <time>2014-05-27T18:07:31Z</time>
      </trkpt>
      <trkpt lat="59.9520798" lon="17.7270816">
        <ele>42.916</ele>
        <time>2014-05-27T18:07:32Z</time>
      </trkpt>
      <trkpt lat="59.9520857" lon="17.7270291">
        <ele>41.474</ele>
        <time>2014-05-27T18:07:33Z</time>
      </trkpt>
      <trkpt lat="59.9521025" lon="17.7269754">
        <ele>40.9934</ele>
        <time>2014-05-27T18:07:34Z</time>
      </trkpt>
      <trkpt lat="59.9521077" lon="17.7269179">
        <ele>40.0321</ele>
        <time>2014-05-27T18:07:35Z</time>
      </trkpt>
      <trkpt lat="59.9521125" lon="17.7268609">
        <ele>39.5513</ele>
        <time>2014-05-27T18:07:36Z</time>
      </trkpt>
      <trkpt lat="59.9521204" lon="17.7267998">
        <ele>39.5513</ele>
        <time>2014-05-27T18:07:37Z</time>
      </trkpt>
      <trkpt lat="59.9521283" lon="17.7267347">
        <ele>39.0707</ele>
        <time>2014-05-27T18:07:38Z</time>
      </trkpt>
      <trkpt lat="59.9521395" lon="17.7266725">
        <ele>39.5513</ele>
        <time>2014-05-27T18:07:39Z</time>
      </trkpt>
      <trkpt lat="59.9521445" lon="17.7266199">
        <ele>39.0707</ele>
        <time>2014-05-27T18:07:40Z</time>
      </trkpt>
      <trkpt lat="59.9521504" lon="17.7265745">
        <ele>39.0707</ele>
        <time>2014-05-27T18:07:41Z</time>
      </trkpt>
      <trkpt lat="59.9521548" lon="17.7265217">
        <ele>38.5901</ele>
        <time>2014-05-27T18:07:42Z</time>
      </trkpt>
      <trkpt lat="59.9521605" lon="17.7264688">
        <ele>38.5901</ele>
        <time>2014-05-27T18:07:43Z</time>
      </trkpt>
      <trkpt lat="59.9521662" lon="17.7264147">
        <ele>38.1094</ele>
        <time>2014-05-27T18:07:44Z</time>
      </trkpt>
      <trkpt lat="59.9521813" lon="17.7263688">
        <ele>38.1094</ele>
        <time>2014-05-27T18:07:45Z</time>
      </trkpt>
      <trkpt lat="59.9521983" lon="17.7263298">
        <ele>37.6287</ele>
        <time>2014-05-27T18:07:46Z</time>
      </trkpt>
      <trkpt lat="59.9522183" lon="17.7262975">
        <ele>37.6287</ele>
        <time>2014-05-27T18:07:47Z</time>
      </trkpt>
      <trkpt lat="59.9522378" lon="17.7262604">
        <ele>37.6287</ele>
        <time>2014-05-27T18:07:48Z</time>
      </trkpt>
      <trkpt lat="59.9522519" lon="17.7262166">
        <ele>36.1868</ele>
        <time>2014-05-27T18:07:49Z</time>
      </trkpt>
      <trkpt lat="59.9522715" lon="17.7261818">
        <ele>37.1481</ele>
        <time>2014-05-27T18:07:50Z</time>
      </trkpt>
      <trkpt lat="59.9522929" lon="17.7261487">
        <ele>37.6287</ele>
        <time>2014-05-27T18:07:51Z</time>
      </trkpt>
      <trkpt lat="59.9523265" lon="17.7261122">
        <ele>40.0321</ele>
        <time>2014-05-27T18:07:52Z</time>
      </trkpt>
      <trkpt lat="59.9523482" lon="17.7260662">
        <ele>40.0321</ele>
        <time>2014-05-27T18:07:53Z</time>
      </trkpt>
      <trkpt lat="59.9523716" lon="17.7260319">
        <ele>40.9934</ele>
        <time>2014-05-27T18:07:54Z</time>
      </trkpt>
      <trkpt lat="59.9523989" lon="17.7259972">
        <ele>40.9934</ele>
        <time>2014-05-27T18:07:55Z</time>
      </trkpt>
      <trkpt lat="59.9524391" lon="17.7259587">
        <ele>43.8773</ele>
        <time>2014-05-27T18:07:56Z</time>
      </trkpt>
      <trkpt lat="59.9524607" lon="17.7259191">
        <ele>44.8386</ele>
        <time>2014-05-27T18:07:57Z</time>
      </trkpt>
      <trkpt lat="59.9524731" lon="17.7258711">
        <ele>43.3966</ele>
        <time>2014-05-27T18:07:58Z</time>
      </trkpt>
      <trkpt lat="59.9525056" lon="17.7258249">
        <ele>43.8773</ele>
        <time>2014-05-27T18:07:59Z</time>
      </trkpt>
      <trkpt lat="59.9525443" lon="17.7257836">
        <ele>46.7612</ele>
        <time>2014-05-27T18:08:00Z</time>
      </trkpt>
      <trkpt lat="59.9525755" lon="17.7257482">
        <ele>49.6453</ele>
        <time>2014-05-27T18:08:01Z</time>
      </trkpt>
      <trkpt lat="59.9526004" lon="17.7257159">
        <ele>51.0872</ele>
        <time>2014-05-27T18:08:02Z</time>
      </trkpt>
      <trkpt lat="59.9526204" lon="17.7256815">
        <ele>52.0486</ele>
        <time>2014-05-27T18:08:03Z</time>
      </trkpt>
      <trkpt lat="59.9526487" lon="17.7256468">
        <ele>54.4518</ele>
        <time>2014-05-27T18:08:04Z</time>
      </trkpt>
      <trkpt lat="59.9526818" lon="17.7256157">
        <ele>56.8551</ele>
        <time>2014-05-27T18:08:05Z</time>
      </trkpt>
      <trkpt lat="59.952703" lon="17.7255867">
        <ele>57.3358</ele>
        <time>2014-05-27T18:08:06Z</time>
      </trkpt>
      <trkpt lat="59.9527171" lon="17.7255534">
        <ele>55.8938</ele>
        <time>2014-05-27T18:08:07Z</time>
      </trkpt>
      <trkpt lat="59.9527335" lon="17.7255234">
        <ele>54.9324</ele>
        <time>2014-05-27T18:08:08Z</time>
      </trkpt>
      <trkpt lat="59.9527408" lon="17.7254761">
        <ele>52.0486</ele>
        <time>2014-05-27T18:08:09Z</time>
      </trkpt>
      <trkpt lat="59.9527537" lon="17.725425">
        <ele>50.126</ele>
        <time>2014-05-27T18:08:10Z</time>
      </trkpt>
      <trkpt lat="59.952761" lon="17.7253915">
        <ele>48.684</ele>
        <time>2014-05-27T18:08:11Z</time>
      </trkpt>
      <trkpt lat="59.9527683" lon="17.7253515">
        <ele>46.2806</ele>
        <time>2014-05-27T18:08:12Z</time>
      </trkpt>
      <trkpt lat="59.9527876" lon="17.7253072">
        <ele>45.3192</ele>
        <time>2014-05-27T18:08:13Z</time>
      </trkpt>
      <trkpt lat="59.9527999" lon="17.7252742">
        <ele>44.8386</ele>
        <time>2014-05-27T18:08:14Z</time>
      </trkpt>
      <trkpt lat="59.9528138" lon="17.7252392">
        <ele>44.358</ele>
        <time>2014-05-27T18:08:15Z</time>
      </trkpt>
      <trkpt lat="59.9528382" lon="17.7252036">
        <ele>44.8386</ele>
        <time>2014-05-27T18:08:16Z</time>
      </trkpt>
      <trkpt lat="59.9528548" lon="17.7251674">
        <ele>42.916</ele>
        <time>2014-05-27T18:08:17Z</time>
      </trkpt>
      <trkpt lat="59.952877" lon="17.7251292">
        <ele>42.916</ele>
        <time>2014-05-27T18:08:18Z</time>
      </trkpt>
      <trkpt lat="59.9528978" lon="17.7250987">
        <ele>43.8773</ele>
        <time>2014-05-27T18:08:19Z</time>
      </trkpt>
      <trkpt lat="59.9529107" lon="17.7250728">
        <ele>43.3966</ele>
        <time>2014-05-27T18:08:20Z</time>
      </trkpt>
      <trkpt lat="59.9529324" lon="17.7250405">
        <ele>44.358</ele>
        <time>2014-05-27T18:08:21Z</time>
      </trkpt>
      <trkpt lat="59.952948" lon="17.7250018">
        <ele>43.3966</ele>
        <time>2014-05-27T18:08:22Z</time>
      </trkpt>
      <trkpt lat="59.9529692" lon="17.7249618">
        <ele>43.3966</ele>
        <time>2014-05-27T18:08:23Z</time>
      </trkpt>
      <trkpt lat="59.9529864" lon="17.7249265">
        <ele>42.916</ele>
        <time>2014-05-27T18:08:24Z</time>
      </trkpt>
      <trkpt lat="59.9530029" lon="17.7248933">
        <ele>42.916</ele>
        <time>2014-05-27T18:08:25Z</time>
      </trkpt>
      <trkpt lat="59.9530217" lon="17.724852">
        <ele>42.916</ele>
        <time>2014-05-27T18:08:26Z</time>
      </trkpt>
      <trkpt lat="59.9530542" lon="17.724818">
        <ele>44.8386</ele>
        <time>2014-05-27T18:08:27Z</time>
      </trkpt>
      <trkpt lat="59.9530771" lon="17.7247812">
        <ele>44.358</ele>
        <time>2014-05-27T18:08:28Z</time>
      </trkpt>
      <trkpt lat="59.9531039" lon="17.7247426">
        <ele>44.8386</ele>
        <time>2014-05-27T18:08:29Z</time>
      </trkpt>
      <trkpt lat="59.9531354" lon="17.7247072">
        <ele>46.2806</ele>
        <time>2014-05-27T18:08:30Z</time>
      </trkpt>
      <trkpt lat="59.9531584" lon="17.7246687">
        <ele>46.2806</ele>
        <time>2014-05-27T18:08:31Z</time>
      </trkpt>
      <trkpt lat="59.9531883" lon="17.7246286">
        <ele>48.684</ele>
        <time>2014-05-27T18:08:32Z</time>
      </trkpt>
      <trkpt lat="59.9532122" lon="17.7245833">
        <ele>51.0872</ele>
        <time>2014-05-27T18:08:33Z</time>
      </trkpt>
      <trkpt lat="59.9532345" lon="17.7245397">
        <ele>53.0098</ele>
        <time>2014-05-27T18:08:34Z</time>
      </trkpt>
      <trkpt lat="59.9532607" lon="17.7244989">
        <ele>55.8938</ele>
        <time>2014-05-27T18:08:35Z</time>
      </trkpt>
      <trkpt lat="59.9532764" lon="17.7244556">
        <ele>55.8938</ele>
        <time>2014-05-27T18:08:36Z</time>
      </trkpt>
      <trkpt lat="59.9532957" lon="17.7244118">
        <ele>56.3745</ele>
        <time>2014-05-27T18:08:37Z</time>
      </trkpt>
      <trkpt lat="59.953326" lon="17.7243754">
        <ele>58.2971</ele>
        <time>2014-05-27T18:08:38Z</time>
      </trkpt>
      <trkpt lat="59.9533588" lon="17.7243381">
        <ele>61.6617</ele>
        <time>2014-05-27T18:08:39Z</time>
      </trkpt>
      <trkpt lat="59.9533816" lon="17.7242974">
        <ele>63.1036</ele>
        <time>2014-05-27T18:08:40Z</time>
      </trkpt>
      <trkpt lat="59.9533925" lon="17.7242498">
        <ele>61.6617</ele>
        <time>2014-05-27T18:08:41Z</time>
      </trkpt>
      <trkpt lat="59.9534034" lon="17.7242076">
        <ele>59.7391</ele>
        <time>2014-05-27T18:08:42Z</time>
      </trkpt>
      <trkpt lat="59.9534332" lon="17.724175">
        <ele>61.181</ele>
        <time>2014-05-27T18:08:43Z</time>
      </trkpt>
      <trkpt lat="59.9534655" lon="17.7241376">
        <ele>63.5844</ele>
        <time>2014-05-27T18:08:44Z</time>
      </trkpt>
      <trkpt lat="59.9534827" lon="17.724087">
        <ele>63.1036</ele>
        <time>2014-05-27T18:08:45Z</time>
      </trkpt>
      <trkpt lat="59.953505" lon="17.7240372">
        <ele>63.1036</ele>
        <time>2014-05-27T18:08:46Z</time>
      </trkpt>
      <trkpt lat="59.9535125" lon="17.7239865">
        <ele>60.2197</ele>
        <time>2014-05-27T18:08:47Z</time>
      </trkpt>
      <trkpt lat="59.9535173" lon="17.7239381">
        <ele>57.3358</ele>
        <time>2014-05-27T18:08:48Z</time>
      </trkpt>
      <trkpt lat="59.9535207" lon="17.7238933">
        <ele>54.4518</ele>
        <time>2014-05-27T18:08:49Z</time>
      </trkpt>
      <trkpt lat="59.9535254" lon="17.7238464">
        <ele>51.5679</ele>
        <time>2014-05-27T18:08:50Z</time>
      </trkpt>
      <trkpt lat="59.9535412" lon="17.7238136">
        <ele>50.6066</ele>
        <time>2014-05-27T18:08:51Z</time>
      </trkpt>
      <trkpt lat="59.9535666" lon="17.7237906">
        <ele>52.5292</ele>
        <time>2014-05-27T18:08:52Z</time>
      </trkpt>
      <trkpt lat="59.9535722" lon="17.7237589">
        <ele>49.6453</ele>
        <time>2014-05-27T18:08:53Z</time>
      </trkpt>
      <trkpt lat="59.953576" lon="17.7237305">
        <ele>46.2806</ele>
        <time>2014-05-27T18:08:54Z</time>
      </trkpt>
      <trkpt lat="59.9535837" lon="17.7236937">
        <ele>43.8773</ele>
        <time>2014-05-27T18:08:55Z</time>
      </trkpt>
      <trkpt lat="59.9535919" lon="17.7236518">
        <ele>41.474</ele>
        <time>2014-05-27T18:08:56Z</time>
      </trkpt>
      <trkpt lat="59.9536126" lon="17.7236181">
        <ele>40.9934</ele>
        <time>2014-05-27T18:08:57Z</time>
      </trkpt>
      <trkpt lat="59.953638" lon="17.7235887">
        <ele>41.474</ele>
        <time>2014-05-27T18:08:58Z</time>
      </trkpt>
      <trkpt lat="59.9536727" lon="17.7235693">
        <ele>42.916</ele>
        <time>2014-05-27T18:08:59Z</time>
      </trkpt>
      <trkpt lat="59.9536897" lon="17.7235372">
        <ele>43.3966</ele>
        <time>2014-05-27T18:09:00Z</time>
      </trkpt>
      <trkpt lat="59.9536986" lon="17.7234953">
        <ele>42.4354</ele>
        <time>2014-05-27T18:09:01Z</time>
      </trkpt>
      <trkpt lat="59.9537385" lon="17.7234597">
        <ele>45.7999</ele>
        <time>2014-05-27T18:09:02Z</time>
      </trkpt>
      <trkpt lat="59.9537613" lon="17.7234207">
        <ele>46.7612</ele>
        <time>2014-05-27T18:09:03Z</time>
      </trkpt>
      <trkpt lat="59.9537787" lon="17.7233956">
        <ele>47.7225</ele>
        <time>2014-05-27T18:09:04Z</time>
      </trkpt>
      <trkpt lat="59.9538258" lon="17.7233804">
        <ele>52.0486</ele>
        <time>2014-05-27T18:09:05Z</time>
      </trkpt>
      <trkpt lat="59.9538628" lon="17.7233566">
        <ele>55.8938</ele>
        <time>2014-05-27T18:09:06Z</time>
      </trkpt>
      <trkpt lat="59.9539018" lon="17.723329">
        <ele>59.7391</ele>
        <time>2014-05-27T18:09:07Z</time>
      </trkpt>
      <trkpt lat="59.9539468" lon="17.7233056">
        <ele>64.0651</ele>
        <time>2014-05-27T18:09:08Z</time>
      </trkpt>
      <trkpt lat="59.9539861" lon="17.7232912">
        <ele>67.4297</ele>
        <time>2014-05-27T18:09:09Z</time>
      </trkpt>
      <trkpt lat="59.954016" lon="17.723269">
        <ele>68.3909</ele>
        <time>2014-05-27T18:09:10Z</time>
      </trkpt>
      <trkpt lat="59.9540612" lon="17.7232507">
        <ele>73.1976</ele>
        <time>2014-05-27T18:09:11Z</time>
      </trkpt>
      <trkpt lat="59.9541071" lon="17.7232298">
        <ele>78.4847</ele>
        <time>2014-05-27T18:09:12Z</time>
      </trkpt>
      <trkpt lat="59.9541507" lon="17.723213">
        <ele>83.2914</ele>
        <time>2014-05-27T18:09:13Z</time>
      </trkpt>
      <trkpt lat="59.9541767" lon="17.7231888">
        <ele>85.214</ele>
        <time>2014-05-27T18:09:14Z</time>
      </trkpt>
      <trkpt lat="59.9542037" lon="17.7231784">
        <ele>86.1753</ele>
        <time>2014-05-27T18:09:15Z</time>
      </trkpt>
      <trkpt lat="59.954228" lon="17.7231685">
        <ele>86.656</ele>
        <time>2014-05-27T18:09:16Z</time>
      </trkpt>
      <trkpt lat="59.9542572" lon="17.7231675">
        <ele>88.5787</ele>
        <time>2014-05-27T18:09:17Z</time>
      </trkpt>
      <trkpt lat="59.9542835" lon="17.7231715">
        <ele>89.0593</ele>
        <time>2014-05-27T18:09:18Z</time>
      </trkpt>
      <trkpt lat="59.954313" lon="17.7231715">
        <ele>90.0206</ele>
        <time>2014-05-27T18:09:19Z</time>
      </trkpt>
      <trkpt lat="59.9543579" lon="17.7231801">
        <ele>93.3851</ele>
        <time>2014-05-27T18:09:20Z</time>
      </trkpt>
      <trkpt lat="59.9543912" lon="17.7232002">
        <ele>95.3077</ele>
        <time>2014-05-27T18:09:21Z</time>
      </trkpt>
      <trkpt lat="59.954416" lon="17.723215">
        <ele>94.3466</ele>
        <time>2014-05-27T18:09:22Z</time>
      </trkpt>
      <trkpt lat="59.9544402" lon="17.7232364">
        <ele>93.3851</ele>
        <time>2014-05-27T18:09:23Z</time>
      </trkpt>
      <trkpt lat="59.9544683" lon="17.7232623">
        <ele>92.9045</ele>
        <time>2014-05-27T18:09:24Z</time>
      </trkpt>
      <trkpt lat="59.9545044" lon="17.7232732">
        <ele>93.8658</ele>
        <time>2014-05-27T18:09:25Z</time>
      </trkpt>
      <trkpt lat="59.9545341" lon="17.7232764">
        <ele>93.8658</ele>
        <time>2014-05-27T18:09:26Z</time>
      </trkpt>
      <trkpt lat="59.9545684" lon="17.7232865">
        <ele>95.3077</ele>
        <time>2014-05-27T18:09:27Z</time>
      </trkpt>
      <trkpt lat="59.9545927" lon="17.7232977">
        <ele>94.3466</ele>
        <time>2014-05-27T18:09:28Z</time>
      </trkpt>
      <trkpt lat="59.9546145" lon="17.723307">
        <ele>93.8658</ele>
        <time>2014-05-27T18:09:29Z</time>
      </trkpt>
      <trkpt lat="59.9546295" lon="17.7233228">
        <ele>91.9432</ele>
        <time>2014-05-27T18:09:30Z</time>
      </trkpt>
      <trkpt lat="59.9546428" lon="17.7233468">
        <ele>90.9819</ele>
        <time>2014-05-27T18:09:31Z</time>
      </trkpt>
      <trkpt lat="59.9546626" lon="17.7233665">
        <ele>89.5399</ele>
        <time>2014-05-27T18:09:32Z</time>
      </trkpt>
      <trkpt lat="59.9546807" lon="17.7233872">
        <ele>88.098</ele>
        <time>2014-05-27T18:09:33Z</time>
      </trkpt>
      <trkpt lat="59.9547051" lon="17.7234059">
        <ele>88.098</ele>
        <time>2014-05-27T18:09:34Z</time>
      </trkpt>
      <trkpt lat="59.9547217" lon="17.7234265">
        <ele>86.1753</ele>
        <time>2014-05-27T18:09:35Z</time>
      </trkpt>
      <trkpt lat="59.9547358" lon="17.7234523">
        <ele>84.2527</ele>
        <time>2014-05-27T18:09:36Z</time>
      </trkpt>
      <trkpt lat="59.9547533" lon="17.7234711">
        <ele>81.8494</ele>
        <time>2014-05-27T18:09:37Z</time>
      </trkpt>
      <trkpt lat="59.954773" lon="17.7234913">
        <ele>79.446</ele>
        <time>2014-05-27T18:09:38Z</time>
      </trkpt>
      <trkpt lat="59.9548014" lon="17.7235092">
        <ele>78.9655</ele>
        <time>2014-05-27T18:09:39Z</time>
      </trkpt>
      <trkpt lat="59.9548248" lon="17.7235349">
        <ele>78.4847</ele>
        <time>2014-05-27T18:09:40Z</time>
      </trkpt>
      <trkpt lat="59.9548435" lon="17.7235706">
        <ele>78.9655</ele>
        <time>2014-05-27T18:09:41Z</time>
      </trkpt>
      <trkpt lat="59.9548687" lon="17.7235975">
        <ele>78.9655</ele>
        <time>2014-05-27T18:09:42Z</time>
      </trkpt>
      <trkpt lat="59.9548901" lon="17.7236187">
        <ele>78.4847</ele>
        <time>2014-05-27T18:09:43Z</time>
      </trkpt>
      <trkpt lat="59.9549164" lon="17.7236358">
        <ele>78.004</ele>
        <time>2014-05-27T18:09:44Z</time>
      </trkpt>
      <trkpt lat="59.9549362" lon="17.7236523">
        <ele>77.5234</ele>
        <time>2014-05-27T18:09:45Z</time>
      </trkpt>
      <trkpt lat="59.954953" lon="17.7236612">
        <ele>74.6395</ele>
        <time>2014-05-27T18:09:46Z</time>
      </trkpt>
      <trkpt lat="59.9549806" lon="17.7236643">
        <ele>74.6395</ele>
        <time>2014-05-27T18:09:47Z</time>
      </trkpt>
      <trkpt lat="59.9550196" lon="17.7236691">
        <ele>76.0814</ele>
        <time>2014-05-27T18:09:48Z</time>
      </trkpt>
      <trkpt lat="59.9550568" lon="17.723671">
        <ele>77.5234</ele>
        <time>2014-05-27T18:09:49Z</time>
      </trkpt>
      <trkpt lat="59.9551019" lon="17.7236605">
        <ele>80.4075</ele>
        <time>2014-05-27T18:09:50Z</time>
      </trkpt>
      <trkpt lat="59.9551442" lon="17.7236501">
        <ele>83.772</ele>
        <time>2014-05-27T18:09:51Z</time>
      </trkpt>
      <trkpt lat="59.9551656" lon="17.7236384">
        <ele>83.772</ele>
        <time>2014-05-27T18:09:52Z</time>
      </trkpt>
      <trkpt lat="59.9551927" lon="17.7236229">
        <ele>84.7334</ele>
        <time>2014-05-27T18:09:53Z</time>
      </trkpt>
      <trkpt lat="59.9552185" lon="17.7236016">
        <ele>86.656</ele>
        <time>2014-05-27T18:09:54Z</time>
      </trkpt>
      <trkpt lat="59.9552396" lon="17.7235809">
        <ele>87.1366</ele>
        <time>2014-05-27T18:09:55Z</time>
      </trkpt>
      <trkpt lat="59.9552654" lon="17.7235541">
        <ele>87.6172</ele>
        <time>2014-05-27T18:09:56Z</time>
      </trkpt>
      <trkpt lat="59.9552884" lon="17.7235254">
        <ele>88.098</ele>
        <time>2014-05-27T18:09:57Z</time>
      </trkpt>
      <trkpt lat="59.9553128" lon="17.723503">
        <ele>88.5787</ele>
        <time>2014-05-27T18:09:58Z</time>
      </trkpt>
      <trkpt lat="59.9553298" lon="17.7234908">
        <ele>87.1366</ele>
        <time>2014-05-27T18:09:59Z</time>
      </trkpt>
      <trkpt lat="59.9553443" lon="17.7234711">
        <ele>85.214</ele>
        <time>2014-05-27T18:10:00Z</time>
      </trkpt>
      <trkpt lat="59.9553765" lon="17.7234548">
        <ele>86.1753</ele>
        <time>2014-05-27T18:10:01Z</time>
      </trkpt>
      <trkpt lat="59.9554138" lon="17.7234409">
        <ele>87.1366</ele>
        <time>2014-05-27T18:10:02Z</time>
      </trkpt>
      <trkpt lat="59.9554485" lon="17.7234267">
        <ele>87.1366</ele>
        <time>2014-05-27T18:10:03Z</time>
      </trkpt>
      <trkpt lat="59.9554786" lon="17.723424">
        <ele>86.656</ele>
        <time>2014-05-27T18:10:04Z</time>
      </trkpt>
      <trkpt lat="59.9555027" lon="17.7234193">
        <ele>85.6946</ele>
        <time>2014-05-27T18:10:05Z</time>
      </trkpt>
      <trkpt lat="59.9555325" lon="17.7234121">
        <ele>86.656</ele>
        <time>2014-05-27T18:10:06Z</time>
      </trkpt>
      <trkpt lat="59.9555681" lon="17.7234134">
        <ele>88.5787</ele>
        <time>2014-05-27T18:10:07Z</time>
      </trkpt>
      <trkpt lat="59.9555988" lon="17.7234215">
        <ele>89.5399</ele>
        <time>2014-05-27T18:10:08Z</time>
      </trkpt>
      <trkpt lat="59.9556266" lon="17.7234287">
        <ele>90.0206</ele>
        <time>2014-05-27T18:10:09Z</time>
      </trkpt>
      <trkpt lat="59.9556552" lon="17.7234348">
        <ele>90.0206</ele>
        <time>2014-05-27T18:10:10Z</time>
      </trkpt>
      <trkpt lat="59.9556721" lon="17.7234386">
        <ele>87.6172</ele>
        <time>2014-05-27T18:10:11Z</time>
      </trkpt>
      <trkpt lat="59.9557013" lon="17.7234492">
        <ele>87.1366</ele>
        <time>2014-05-27T18:10:12Z</time>
      </trkpt>
      <trkpt lat="59.9557288" lon="17.7234606">
        <ele>86.1753</ele>
        <time>2014-05-27T18:10:13Z</time>
      </trkpt>
      <trkpt lat="59.9557608" lon="17.7234724">
        <ele>86.1753</ele>
        <time>2014-05-27T18:10:14Z</time>
      </trkpt>
      <trkpt lat="59.9557721" lon="17.7234851">
        <ele>81.8494</ele>
        <time>2014-05-27T18:10:15Z</time>
      </trkpt>
      <trkpt lat="59.9557908" lon="17.7235026">
        <ele>79.446</ele>
        <time>2014-05-27T18:10:16Z</time>
      </trkpt>
      <trkpt lat="59.955813" lon="17.7235187">
        <ele>77.0428</ele>
        <time>2014-05-27T18:10:17Z</time>
      </trkpt>
      <trkpt lat="59.9558314" lon="17.7235421">
        <ele>73.6782</ele>
        <time>2014-05-27T18:10:18Z</time>
      </trkpt>
      <trkpt lat="59.9558466" lon="17.723571">
        <ele>71.2749</ele>
        <time>2014-05-27T18:10:19Z</time>
      </trkpt>
      <trkpt lat="59.9558684" lon="17.7235995">
        <ele>69.3523</ele>
        <time>2014-05-27T18:10:20Z</time>
      </trkpt>
      <trkpt lat="59.9558831" lon="17.7236296">
        <ele>67.9103</ele>
        <time>2014-05-27T18:10:21Z</time>
      </trkpt>
      <trkpt lat="59.9559126" lon="17.7236539">
        <ele>68.8716</ele>
        <time>2014-05-27T18:10:22Z</time>
      </trkpt>
      <trkpt lat="59.9559358" lon="17.7236694">
        <ele>68.3909</ele>
        <time>2014-05-27T18:10:23Z</time>
      </trkpt>
      <trkpt lat="59.9559617" lon="17.7236691">
        <ele>69.8329</ele>
        <time>2014-05-27T18:10:24Z</time>
      </trkpt>
      <trkpt lat="59.9559815" lon="17.7236617">
        <ele>69.8329</ele>
        <time>2014-05-27T18:10:25Z</time>
      </trkpt>
      <trkpt lat="59.9559881" lon="17.7236539">
        <ele>69.8329</ele>
        <time>2014-05-27T18:10:26Z</time>
      </trkpt>
      <trkpt lat="59.9559914" lon="17.723627">
        <ele>67.4297</ele>
        <time>2014-05-27T18:10:27Z</time>
      </trkpt>
      <trkpt lat="59.9560007" lon="17.7235942">
        <ele>65.5071</ele>
        <time>2014-05-27T18:10:28Z</time>
      </trkpt>
      <trkpt lat="59.9560084" lon="17.7235587">
        <ele>64.5457</ele>
        <time>2014-05-27T18:10:29Z</time>
      </trkpt>
      <trkpt lat="59.9560167" lon="17.7235167">
        <ele>63.1036</ele>
        <time>2014-05-27T18:10:30Z</time>
      </trkpt>
      <trkpt lat="59.956027" lon="17.7234644">
        <ele>61.6617</ele>
        <time>2014-05-27T18:10:31Z</time>
      </trkpt>
      <trkpt lat="59.9560401" lon="17.7234232">
        <ele>60.7003</ele>
        <time>2014-05-27T18:10:32Z</time>
      </trkpt>
      <trkpt lat="59.9560528" lon="17.7233908">
        <ele>61.181</ele>
        <time>2014-05-27T18:10:33Z</time>
      </trkpt>
      <trkpt lat="59.9560658" lon="17.723358">
        <ele>60.7003</ele>
        <time>2014-05-27T18:10:34Z</time>
      </trkpt>
      <trkpt lat="59.9560741" lon="17.7233157">
        <ele>60.2197</ele>
        <time>2014-05-27T18:10:35Z</time>
      </trkpt>
      <trkpt lat="59.9560846" lon="17.7232715">
        <ele>59.2584</ele>
        <time>2014-05-27T18:10:36Z</time>
      </trkpt>
      <trkpt lat="59.9560917" lon="17.7232311">
        <ele>58.7777</ele>
        <time>2014-05-27T18:10:37Z</time>
      </trkpt>
      <trkpt lat="59.9561023" lon="17.7231866">
        <ele>59.7391</ele>
        <time>2014-05-27T18:10:38Z</time>
      </trkpt>
      <trkpt lat="59.9561089" lon="17.7231322">
        <ele>58.2971</ele>
        <time>2014-05-27T18:10:39Z</time>
      </trkpt>
      <trkpt lat="59.9561121" lon="17.7230699">
        <ele>57.8165</ele>
        <time>2014-05-27T18:10:40Z</time>
      </trkpt>
      <trkpt lat="59.9561103" lon="17.7230076">
        <ele>57.3358</ele>
        <time>2014-05-27T18:10:41Z</time>
      </trkpt>
      <trkpt lat="59.9560999" lon="17.7229479">
        <ele>56.3745</ele>
        <time>2014-05-27T18:10:42Z</time>
      </trkpt>
      <trkpt lat="59.956081" lon="17.7228879">
        <ele>54.9324</ele>
        <time>2014-05-27T18:10:43Z</time>
      </trkpt>
      <trkpt lat="59.956072" lon="17.7228412">
        <ele>54.9324</ele>
        <time>2014-05-27T18:10:44Z</time>
      </trkpt>
      <trkpt lat="59.9560472" lon="17.7227933">
        <ele>52.5292</ele>
        <time>2014-05-27T18:10:45Z</time>
      </trkpt>
      <trkpt lat="59.9560354" lon="17.7227495">
        <ele>52.5292</ele>
        <time>2014-05-27T18:10:46Z</time>
      </trkpt>
      <trkpt lat="59.9560307" lon="17.7226978">
        <ele>52.5292</ele>
        <time>2014-05-27T18:10:47Z</time>
      </trkpt>
      <trkpt lat="59.9560281" lon="17.7226525">
        <ele>53.4905</ele>
        <time>2014-05-27T18:10:48Z</time>
      </trkpt>
      <trkpt lat="59.9560173" lon="17.7226106">
        <ele>52.5292</ele>
        <time>2014-05-27T18:10:49Z</time>
      </trkpt>
      <trkpt lat="59.9560166" lon="17.7225668">
        <ele>52.5292</ele>
        <time>2014-05-27T18:10:50Z</time>
      </trkpt>
      <trkpt lat="59.9560079" lon="17.7225122">
        <ele>52.0486</ele>
        <time>2014-05-27T18:10:51Z</time>
      </trkpt>
      <trkpt lat="59.9559961" lon="17.7224548">
        <ele>53.0098</ele>
        <time>2014-05-27T18:10:52Z</time>
      </trkpt>
      <trkpt lat="59.9559903" lon="17.722392">
        <ele>54.4518</ele>
        <time>2014-05-27T18:10:53Z</time>
      </trkpt>
      <trkpt lat="59.9559825" lon="17.7223315">
        <ele>54.9324</ele>
        <time>2014-05-27T18:10:54Z</time>
      </trkpt>
      <trkpt lat="59.9559644" lon="17.7222759">
        <ele>53.4905</ele>
        <time>2014-05-27T18:10:55Z</time>
      </trkpt>
      <trkpt lat="59.9559602" lon="17.7222227">
        <ele>54.4518</ele>
        <time>2014-05-27T18:10:56Z</time>
      </trkpt>
      <trkpt lat="59.9559535" lon="17.7221682">
        <ele>54.9324</ele>
        <time>2014-05-27T18:10:57Z</time>
      </trkpt>
      <trkpt lat="59.9559542" lon="17.7221191">
        <ele>55.8938</ele>
        <time>2014-05-27T18:10:58Z</time>
      </trkpt>
      <trkpt lat="59.9559561" lon="17.722064">
        <ele>55.4131</ele>
        <time>2014-05-27T18:10:59Z</time>
      </trkpt>
      <trkpt lat="59.9559669" lon="17.7220056">
        <ele>56.3745</ele>
        <time>2014-05-27T18:11:00Z</time>
      </trkpt>
      <trkpt lat="59.9559758" lon="17.7219459">
        <ele>57.3358</ele>
        <time>2014-05-27T18:11:01Z</time>
      </trkpt>
      <trkpt lat="59.9559744" lon="17.7218855">
        <ele>56.3745</ele>
        <time>2014-05-27T18:11:02Z</time>
      </trkpt>
      <trkpt lat="59.9559831" lon="17.7218353">
        <ele>58.2971</ele>
        <time>2014-05-27T18:11:03Z</time>
      </trkpt>
      <trkpt lat="59.9560034" lon="17.7217877">
        <ele>61.6617</ele>
        <time>2014-05-27T18:11:04Z</time>
      </trkpt>
      <trkpt lat="59.9560271" lon="17.7217364">
        <ele>65.0264</ele>
        <time>2014-05-27T18:11:05Z</time>
      </trkpt>
      <trkpt lat="59.9560359" lon="17.7216833">
        <ele>65.0264</ele>
        <time>2014-05-27T18:11:06Z</time>
      </trkpt>
      <trkpt lat="59.95605" lon="17.7216368">
        <ele>65.5071</ele>
        <time>2014-05-27T18:11:07Z</time>
      </trkpt>
      <trkpt lat="59.9560609" lon="17.7215876">
        <ele>67.4297</ele>
        <time>2014-05-27T18:11:08Z</time>
      </trkpt>
      <trkpt lat="59.9560701" lon="17.7215477">
        <ele>69.8329</ele>
        <time>2014-05-27T18:11:09Z</time>
      </trkpt>
      <trkpt lat="59.9560701" lon="17.7215116">
        <ele>69.8329</ele>
        <time>2014-05-27T18:11:10Z</time>
      </trkpt>
      <trkpt lat="59.956079" lon="17.7214752">
        <ele>71.2749</ele>
        <time>2014-05-27T18:11:11Z</time>
      </trkpt>
      <trkpt lat="59.9560649" lon="17.7214191">
        <ele>70.3135</ele>
        <time>2014-05-27T18:11:12Z</time>
      </trkpt>
      <trkpt lat="59.9560426" lon="17.7213644">
        <ele>68.3909</ele>
        <time>2014-05-27T18:11:13Z</time>
      </trkpt>
      <trkpt lat="59.9560201" lon="17.7213152">
        <ele>66.4683</ele>
        <time>2014-05-27T18:11:14Z</time>
      </trkpt>
      <trkpt lat="59.9559908" lon="17.7212696">
        <ele>64.0651</ele>
        <time>2014-05-27T18:11:15Z</time>
      </trkpt>
      <trkpt lat="59.9559435" lon="17.7212411">
        <ele>60.7003</ele>
        <time>2014-05-27T18:11:16Z</time>
      </trkpt>
      <trkpt lat="59.9558998" lon="17.7212491">
        <ele>58.7777</ele>
        <time>2014-05-27T18:11:17Z</time>
      </trkpt>
      <trkpt lat="59.9558567" lon="17.7212644">
        <ele>57.3358</ele>
        <time>2014-05-27T18:11:18Z</time>
      </trkpt>
      <trkpt lat="59.9558115" lon="17.721269">
        <ele>55.8938</ele>
        <time>2014-05-27T18:11:19Z</time>
      </trkpt>
      <trkpt lat="59.9557718" lon="17.7212846">
        <ele>54.4518</ele>
        <time>2014-05-27T18:11:20Z</time>
      </trkpt>
      <trkpt lat="59.9557441" lon="17.7213078">
        <ele>53.9712</ele>
        <time>2014-05-27T18:11:21Z</time>
      </trkpt>
      <trkpt lat="59.955722" lon="17.7213235">
        <ele>54.4518</ele>
        <time>2014-05-27T18:11:22Z</time>
      </trkpt>
      <trkpt lat="59.9556945" lon="17.7213473">
        <ele>53.4905</ele>
        <time>2014-05-27T18:11:23Z</time>
      </trkpt>
      <trkpt lat="59.955664" lon="17.7213634">
        <ele>52.0486</ele>
        <time>2014-05-27T18:11:24Z</time>
      </trkpt>
      <trkpt lat="59.9556256" lon="17.7213897">
        <ele>51.5679</ele>
        <time>2014-05-27T18:11:25Z</time>
      </trkpt>
      <trkpt lat="59.9555874" lon="17.7214191">
        <ele>51.5679</ele>
        <time>2014-05-27T18:11:26Z</time>
      </trkpt>
      <trkpt lat="59.9555477" lon="17.72144">
        <ele>51.0872</ele>
        <time>2014-05-27T18:11:27Z</time>
      </trkpt>
      <trkpt lat="59.9555131" lon="17.7214554">
        <ele>51.0872</ele>
        <time>2014-05-27T18:11:28Z</time>
      </trkpt>
      <trkpt lat="59.9554795" lon="17.7214848">
        <ele>51.5679</ele>
        <time>2014-05-27T18:11:29Z</time>
      </trkpt>
      <trkpt lat="59.9554468" lon="17.7215058">
        <ele>50.126</ele>
        <time>2014-05-27T18:11:30Z</time>
      </trkpt>
      <trkpt lat="59.9554282" lon="17.7215141">
        <ele>51.0872</ele>
        <time>2014-05-27T18:11:31Z</time>
      </trkpt>
      <trkpt lat="59.9554097" lon="17.7214932">
        <ele>51.0872</ele>
        <time>2014-05-27T18:11:32Z</time>
      </trkpt>
      <trkpt lat="59.955393" lon="17.7214664">
        <ele>51.0872</ele>
        <time>2014-05-27T18:11:33Z</time>
      </trkpt>
      <trkpt lat="59.9553708" lon="17.7214426">
        <ele>51.5679</ele>
        <time>2014-05-27T18:11:34Z</time>
      </trkpt>
      <trkpt lat="59.9553459" lon="17.7214239">
        <ele>51.0872</ele>
        <time>2014-05-27T18:11:35Z</time>
      </trkpt>
      <trkpt lat="59.9553219" lon="17.7214185">
        <ele>51.5679</ele>
        <time>2014-05-27T18:11:36Z</time>
      </trkpt>
      <trkpt lat="59.9552983" lon="17.7214001">
        <ele>52.0486</ele>
        <time>2014-05-27T18:11:37Z</time>
      </trkpt>
      <trkpt lat="59.9552754" lon="17.7213783">
        <ele>52.0486</ele>
        <time>2014-05-27T18:11:38Z</time>
      </trkpt>
      <trkpt lat="59.9552511" lon="17.7213683">
        <ele>52.0486</ele>
        <time>2014-05-27T18:11:39Z</time>
      </trkpt>
      <trkpt lat="59.9552266" lon="17.72137">
        <ele>52.5292</ele>
        <time>2014-05-27T18:11:40Z</time>
      </trkpt>
      <trkpt lat="59.9552014" lon="17.7213719">
        <ele>53.0098</ele>
        <time>2014-05-27T18:11:41Z</time>
      </trkpt>
      <trkpt lat="59.955177" lon="17.7213634">
        <ele>52.5292</ele>
        <time>2014-05-27T18:11:42Z</time>
      </trkpt>
      <trkpt lat="59.9551558" lon="17.7213467">
        <ele>52.5292</ele>
        <time>2014-05-27T18:11:43Z</time>
      </trkpt>
      <trkpt lat="59.9551303" lon="17.721331">
        <ele>53.0098</ele>
        <time>2014-05-27T18:11:44Z</time>
      </trkpt>
      <trkpt lat="59.9551014" lon="17.721316">
        <ele>52.0486</ele>
        <time>2014-05-27T18:11:45Z</time>
      </trkpt>
      <trkpt lat="59.9550727" lon="17.7213131">
        <ele>52.0486</ele>
        <time>2014-05-27T18:11:46Z</time>
      </trkpt>
      <trkpt lat="59.9550456" lon="17.7213105">
        <ele>52.0486</ele>
        <time>2014-05-27T18:11:47Z</time>
      </trkpt>
      <trkpt lat="59.9550107" lon="17.7213124">
        <ele>51.5679</ele>
        <time>2014-05-27T18:11:48Z</time>
      </trkpt>
      <trkpt lat="59.9549743" lon="17.7213093">
        <ele>50.126</ele>
        <time>2014-05-27T18:11:49Z</time>
      </trkpt>
      <trkpt lat="59.9549468" lon="17.7213066">
        <ele>50.126</ele>
        <time>2014-05-27T18:11:50Z</time>
      </trkpt>
      <trkpt lat="59.9549192" lon="17.7213013">
        <ele>51.0872</ele>
        <time>2014-05-27T18:11:51Z</time>
      </trkpt>
      <trkpt lat="59.9548817" lon="17.7212857">
        <ele>50.6066</ele>
        <time>2014-05-27T18:11:52Z</time>
      </trkpt>
      <trkpt lat="59.9548507" lon="17.7212681">
        <ele>51.0872</ele>
        <time>2014-05-27T18:11:53Z</time>
      </trkpt>
      <trkpt lat="59.9548231" lon="17.7212255">
        <ele>50.6066</ele>
        <time>2014-05-27T18:11:54Z</time>
      </trkpt>
      <trkpt lat="59.9547864" lon="17.7211648">
        <ele>50.6066</ele>
        <time>2014-05-27T18:11:55Z</time>
      </trkpt>
      <trkpt lat="59.954762" lon="17.721112">
        <ele>51.0872</ele>
        <time>2014-05-27T18:11:56Z</time>
      </trkpt>
      <trkpt lat="59.9547403" lon="17.7210555">
        <ele>50.6066</ele>
        <time>2014-05-27T18:11:57Z</time>
      </trkpt>
      <trkpt lat="59.9547041" lon="17.7209922">
        <ele>50.6066</ele>
        <time>2014-05-27T18:11:58Z</time>
      </trkpt>
      <trkpt lat="59.9546842" lon="17.7209308">
        <ele>51.0872</ele>
        <time>2014-05-27T18:11:59Z</time>
      </trkpt>
      <trkpt lat="59.9546849" lon="17.7208672">
        <ele>52.0486</ele>
        <time>2014-05-27T18:12:00Z</time>
      </trkpt>
      <trkpt lat="59.9546961" lon="17.7208069">
        <ele>54.4518</ele>
        <time>2014-05-27T18:12:01Z</time>
      </trkpt>
      <trkpt lat="59.9547059" lon="17.7207521">
        <ele>55.4131</ele>
        <time>2014-05-27T18:12:02Z</time>
      </trkpt>
      <trkpt lat="59.9547199" lon="17.7207">
        <ele>55.8938</ele>
        <time>2014-05-27T18:12:03Z</time>
      </trkpt>
      <trkpt lat="59.9547263" lon="17.7206415">
        <ele>55.4131</ele>
        <time>2014-05-27T18:12:04Z</time>
      </trkpt>
      <trkpt lat="59.9547322" lon="17.7205819">
        <ele>54.9324</ele>
        <time>2014-05-27T18:12:05Z</time>
      </trkpt>
      <trkpt lat="59.9547475" lon="17.7205277">
        <ele>55.4131</ele>
        <time>2014-05-27T18:12:06Z</time>
      </trkpt>
      <trkpt lat="59.9547584" lon="17.7204698">
        <ele>54.4518</ele>
        <time>2014-05-27T18:12:07Z</time>
      </trkpt>
      <trkpt lat="59.9547733" lon="17.7204147">
        <ele>54.4518</ele>
        <time>2014-05-27T18:12:08Z</time>
      </trkpt>
      <trkpt lat="59.9547941" lon="17.720377">
        <ele>55.4131</ele>
        <time>2014-05-27T18:12:09Z</time>
      </trkpt>
      <trkpt lat="59.954813" lon="17.7203444">
        <ele>56.3745</ele>
        <time>2014-05-27T18:12:10Z</time>
      </trkpt>
      <trkpt lat="59.9548464" lon="17.7203201">
        <ele>58.2971</ele>
        <time>2014-05-27T18:12:11Z</time>
      </trkpt>
      <trkpt lat="59.9548802" lon="17.7202901">
        <ele>62.1423</ele>
        <time>2014-05-27T18:12:12Z</time>
      </trkpt>
      <trkpt lat="59.9549116" lon="17.7202619">
        <ele>64.0651</ele>
        <time>2014-05-27T18:12:13Z</time>
      </trkpt>
      <trkpt lat="59.9549542" lon="17.7202413">
        <ele>66.949</ele>
        <time>2014-05-27T18:12:14Z</time>
      </trkpt>
      <trkpt lat="59.9549957" lon="17.7202247">
        <ele>68.8716</ele>
        <time>2014-05-27T18:12:15Z</time>
      </trkpt>
      <trkpt lat="59.9550315" lon="17.7202066">
        <ele>70.3135</ele>
        <time>2014-05-27T18:12:16Z</time>
      </trkpt>
      <trkpt lat="59.9550693" lon="17.7201903">
        <ele>71.7555</ele>
        <time>2014-05-27T18:12:17Z</time>
      </trkpt>
      <trkpt lat="59.9551034" lon="17.7201709">
        <ele>72.7169</ele>
        <time>2014-05-27T18:12:18Z</time>
      </trkpt>
      <trkpt lat="59.9551461" lon="17.7201506">
        <ele>75.1202</ele>
        <time>2014-05-27T18:12:19Z</time>
      </trkpt>
      <trkpt lat="59.9551808" lon="17.7201336">
        <ele>76.5621</ele>
        <time>2014-05-27T18:12:20Z</time>
      </trkpt>
      <trkpt lat="59.9552102" lon="17.7201184">
        <ele>78.004</ele>
        <time>2014-05-27T18:12:21Z</time>
      </trkpt>
      <trkpt lat="59.9552293" lon="17.7200971">
        <ele>77.0428</ele>
        <time>2014-05-27T18:12:22Z</time>
      </trkpt>
      <trkpt lat="59.9552521" lon="17.7200777">
        <ele>76.5621</ele>
        <time>2014-05-27T18:12:23Z</time>
      </trkpt>
      <trkpt lat="59.9552659" lon="17.7200496">
        <ele>75.1202</ele>
        <time>2014-05-27T18:12:24Z</time>
      </trkpt>
      <trkpt lat="59.9552851" lon="17.7200325">
        <ele>74.6395</ele>
        <time>2014-05-27T18:12:25Z</time>
      </trkpt>
      <trkpt lat="59.9553081" lon="17.7200117">
        <ele>75.6008</ele>
        <time>2014-05-27T18:12:26Z</time>
      </trkpt>
      <trkpt lat="59.9553393" lon="17.7199869">
        <ele>78.004</ele>
        <time>2014-05-27T18:12:27Z</time>
      </trkpt>
      <trkpt lat="59.9553636" lon="17.719956">
        <ele>78.9655</ele>
        <time>2014-05-27T18:12:28Z</time>
      </trkpt>
      <trkpt lat="59.9553842" lon="17.7199253">
        <ele>80.4075</ele>
        <time>2014-05-27T18:12:29Z</time>
      </trkpt>
      <trkpt lat="59.9554195" lon="17.719899">
        <ele>84.7334</ele>
        <time>2014-05-27T18:12:30Z</time>
      </trkpt>
      <trkpt lat="59.9554417" lon="17.7198756">
        <ele>85.6946</ele>
        <time>2014-05-27T18:12:31Z</time>
      </trkpt>
      <trkpt lat="59.9554597" lon="17.7198518">
        <ele>85.214</ele>
        <time>2014-05-27T18:12:32Z</time>
      </trkpt>
      <trkpt lat="59.9554852" lon="17.71983">
        <ele>85.6946</ele>
        <time>2014-05-27T18:12:33Z</time>
      </trkpt>
      <trkpt lat="59.9555178" lon="17.7198112">
        <ele>85.6946</ele>
        <time>2014-05-27T18:12:34Z</time>
      </trkpt>
      <trkpt lat="59.9555556" lon="17.7197961">
        <ele>85.6946</ele>
        <time>2014-05-27T18:12:35Z</time>
      </trkpt>
      <trkpt lat="59.9555938" lon="17.7197819">
        <ele>86.1753</ele>
        <time>2014-05-27T18:12:36Z</time>
      </trkpt>
      <trkpt lat="59.9556291" lon="17.7197621">
        <ele>85.6946</ele>
        <time>2014-05-27T18:12:37Z</time>
      </trkpt>
      <trkpt lat="59.9556661" lon="17.719744">
        <ele>85.214</ele>
        <time>2014-05-27T18:12:38Z</time>
      </trkpt>
      <trkpt lat="59.9556988" lon="17.7197269">
        <ele>83.2914</ele>
        <time>2014-05-27T18:12:39Z</time>
      </trkpt>
      <trkpt lat="59.9557111" lon="17.7197078">
        <ele>79.446</ele>
        <time>2014-05-27T18:12:40Z</time>
      </trkpt>
      <trkpt lat="59.9557334" lon="17.7196706">
        <ele>76.0814</ele>
        <time>2014-05-27T18:12:41Z</time>
      </trkpt>
      <trkpt lat="59.9557618" lon="17.7196233">
        <ele>73.6782</ele>
        <time>2014-05-27T18:12:42Z</time>
      </trkpt>
      <trkpt lat="59.9557813" lon="17.7195724">
        <ele>68.8716</ele>
        <time>2014-05-27T18:12:43Z</time>
      </trkpt>
      <trkpt lat="59.9558136" lon="17.7195197">
        <ele>66.4683</ele>
        <time>2014-05-27T18:12:44Z</time>
      </trkpt>
      <trkpt lat="59.9558504" lon="17.7194772">
        <ele>65.5071</ele>
        <time>2014-05-27T18:12:45Z</time>
      </trkpt>
      <trkpt lat="59.9558821" lon="17.7194352">
        <ele>64.5457</ele>
        <time>2014-05-27T18:12:46Z</time>
      </trkpt>
      <trkpt lat="59.9559033" lon="17.719403">
        <ele>62.6229</ele>
        <time>2014-05-27T18:12:47Z</time>
      </trkpt>
      <trkpt lat="59.955931" lon="17.7193748">
        <ele>61.181</ele>
        <time>2014-05-27T18:12:48Z</time>
      </trkpt>
      <trkpt lat="59.9559725" lon="17.7193524">
        <ele>63.5844</ele>
        <time>2014-05-27T18:12:49Z</time>
      </trkpt>
      <trkpt lat="59.9559938" lon="17.719328">
        <ele>63.5844</ele>
        <time>2014-05-27T18:12:50Z</time>
      </trkpt>
      <trkpt lat="59.9560126" lon="17.7192954">
        <ele>62.1423</ele>
        <time>2014-05-27T18:12:51Z</time>
      </trkpt>
      <trkpt lat="59.9560416" lon="17.7192686">
        <ele>62.1423</ele>
        <time>2014-05-27T18:12:52Z</time>
      </trkpt>
      <trkpt lat="59.9560567" lon="17.7192398">
        <ele>60.7003</ele>
        <time>2014-05-27T18:12:53Z</time>
      </trkpt>
      <trkpt lat="59.9560728" lon="17.719211">
        <ele>58.7777</ele>
        <time>2014-05-27T18:12:54Z</time>
      </trkpt>
      <trkpt lat="59.9560947" lon="17.7191846">
        <ele>59.7391</ele>
        <time>2014-05-27T18:12:55Z</time>
      </trkpt>
      <trkpt lat="59.9561146" lon="17.7191479">
        <ele>60.2197</ele>
        <time>2014-05-27T18:12:56Z</time>
      </trkpt>
      <trkpt lat="59.956137" lon="17.7191158">
        <ele>60.2197</ele>
        <time>2014-05-27T18:12:57Z</time>
      </trkpt>
      <trkpt lat="59.9561581" lon="17.7190846">
        <ele>60.7003</ele>
        <time>2014-05-27T18:12:58Z</time>
      </trkpt>
      <trkpt lat="59.9561658" lon="17.7190394">
        <ele>58.7777</ele>
        <time>2014-05-27T18:12:59Z</time>
      </trkpt>
      <trkpt lat="59.9561722" lon="17.7189856">
        <ele>57.3358</ele>
        <time>2014-05-27T18:13:00Z</time>
      </trkpt>
      <trkpt lat="59.9561762" lon="17.718928">
        <ele>55.4131</ele>
        <time>2014-05-27T18:13:01Z</time>
      </trkpt>
      <trkpt lat="59.956193" lon="17.7188867">
        <ele>54.4518</ele>
        <time>2014-05-27T18:13:02Z</time>
      </trkpt>
      <trkpt lat="59.9562109" lon="17.7188463">
        <ele>54.4518</ele>
        <time>2014-05-27T18:13:03Z</time>
      </trkpt>
      <trkpt lat="59.9562193" lon="17.7187971">
        <ele>53.0098</ele>
        <time>2014-05-27T18:13:04Z</time>
      </trkpt>
      <trkpt lat="59.9562246" lon="17.7187475">
        <ele>53.0098</ele>
        <time>2014-05-27T18:13:05Z</time>
      </trkpt>
      <trkpt lat="59.9562198" lon="17.7186933">
        <ele>51.0872</ele>
        <time>2014-05-27T18:13:06Z</time>
      </trkpt>
      <trkpt lat="59.9562094" lon="17.7186406">
        <ele>48.684</ele>
        <time>2014-05-27T18:13:07Z</time>
      </trkpt>
      <trkpt lat="59.9561996" lon="17.7185894">
        <ele>47.2418</ele>
        <time>2014-05-27T18:13:08Z</time>
      </trkpt>
      <trkpt lat="59.9561986" lon="17.7185433">
        <ele>47.2418</ele>
        <time>2014-05-27T18:13:09Z</time>
      </trkpt>
      <trkpt lat="59.9561898" lon="17.7184946">
        <ele>45.7999</ele>
        <time>2014-05-27T18:13:10Z</time>
      </trkpt>
      <trkpt lat="59.9561759" lon="17.7184548">
        <ele>44.358</ele>
        <time>2014-05-27T18:13:11Z</time>
      </trkpt>
      <trkpt lat="59.9561619" lon="17.7184222">
        <ele>43.8773</ele>
        <time>2014-05-27T18:13:12Z</time>
      </trkpt>
      <trkpt lat="59.9561481" lon="17.7183879">
        <ele>43.8773</ele>
        <time>2014-05-27T18:13:13Z</time>
      </trkpt>
      <trkpt lat="59.9561291" lon="17.7183436">
        <ele>42.916</ele>
        <time>2014-05-27T18:13:14Z</time>
      </trkpt>
      <trkpt lat="59.9561119" lon="17.7182924">
        <ele>42.4354</ele>
        <time>2014-05-27T18:13:15Z</time>
      </trkpt>
      <trkpt lat="59.9560976" lon="17.7182331">
        <ele>41.474</ele>
        <time>2014-05-27T18:13:16Z</time>
      </trkpt>
      <trkpt lat="59.956083" lon="17.7181735">
        <ele>40.9934</ele>
        <time>2014-05-27T18:13:17Z</time>
      </trkpt>
      <trkpt lat="59.9560666" lon="17.718125">
        <ele>40.5128</ele>
        <time>2014-05-27T18:13:18Z</time>
      </trkpt>
      <trkpt lat="59.9560472" lon="17.7180822">
        <ele>40.0321</ele>
        <time>2014-05-27T18:13:19Z</time>
      </trkpt>
      <trkpt lat="59.9560277" lon="17.7180414">
        <ele>40.0321</ele>
        <time>2014-05-27T18:13:20Z</time>
      </trkpt>
      <trkpt lat="59.9560041" lon="17.718003">
        <ele>39.5513</ele>
        <time>2014-05-27T18:13:21Z</time>
      </trkpt>
      <trkpt lat="59.9559742" lon="17.7179626">
        <ele>39.5513</ele>
        <time>2014-05-27T18:13:22Z</time>
      </trkpt>
      <trkpt lat="59.9559473" lon="17.7179199">
        <ele>39.0707</ele>
        <time>2014-05-27T18:13:23Z</time>
      </trkpt>
      <trkpt lat="59.9559265" lon="17.7178818">
        <ele>40.0321</ele>
        <time>2014-05-27T18:13:24Z</time>
      </trkpt>
      <trkpt lat="59.9559124" lon="17.71785">
        <ele>40.5128</ele>
        <time>2014-05-27T18:13:25Z</time>
      </trkpt>
      <trkpt lat="59.9558975" lon="17.7178111">
        <ele>40.5128</ele>
        <time>2014-05-27T18:13:26Z</time>
      </trkpt>
      <trkpt lat="59.9558835" lon="17.7177769">
        <ele>40.5128</ele>
        <time>2014-05-27T18:13:27Z</time>
      </trkpt>
      <trkpt lat="59.9558743" lon="17.7177355">
        <ele>40.5128</ele>
        <time>2014-05-27T18:13:28Z</time>
      </trkpt>
      <trkpt lat="59.9558582" lon="17.7176887">
        <ele>40.5128</ele>
        <time>2014-05-27T18:13:29Z</time>
      </trkpt>
      <trkpt lat="59.9558442" lon="17.7176541">
        <ele>40.9934</ele>
        <time>2014-05-27T18:13:30Z</time>
      </trkpt>
      <trkpt lat="59.9558283" lon="17.7176072">
        <ele>41.474</ele>
        <time>2014-05-27T18:13:31Z</time>
      </trkpt>
      <trkpt lat="59.9558166" lon="17.7175495">
        <ele>42.4354</ele>
        <time>2014-05-27T18:13:32Z</time>
      </trkpt>
      <trkpt lat="59.9557982" lon="17.717497">
        <ele>42.4354</ele>
        <time>2014-05-27T18:13:33Z</time>
      </trkpt>
      <trkpt lat="59.9557789" lon="17.7174585">
        <ele>43.3966</ele>
        <time>2014-05-27T18:13:34Z</time>
      </trkpt>
      <trkpt lat="59.9557576" lon="17.7174192">
        <ele>43.8773</ele>
        <time>2014-05-27T18:13:35Z</time>
      </trkpt>
      <trkpt lat="59.9557339" lon="17.7173822">
        <ele>43.8773</ele>
        <time>2014-05-27T18:13:36Z</time>
      </trkpt>
      <trkpt lat="59.9557198" lon="17.7173556">
        <ele>43.8773</ele>
        <time>2014-05-27T18:13:37Z</time>
      </trkpt>
      <trkpt lat="59.9557038" lon="17.7173185">
        <ele>44.8386</ele>
        <time>2014-05-27T18:13:38Z</time>
      </trkpt>
      <trkpt lat="59.9556856" lon="17.717266">
        <ele>44.8386</ele>
        <time>2014-05-27T18:13:39Z</time>
      </trkpt>
      <trkpt lat="59.9556676" lon="17.717219">
        <ele>45.3192</ele>
        <time>2014-05-27T18:13:40Z</time>
      </trkpt>
      <trkpt lat="59.9556515" lon="17.7171729">
        <ele>45.7999</ele>
        <time>2014-05-27T18:13:41Z</time>
      </trkpt>
      <trkpt lat="59.955641" lon="17.717123">
        <ele>46.7612</ele>
        <time>2014-05-27T18:13:42Z</time>
      </trkpt>
      <trkpt lat="59.9556317" lon="17.7170804">
        <ele>46.7612</ele>
        <time>2014-05-27T18:13:43Z</time>
      </trkpt>
      <trkpt lat="59.9556158" lon="17.7170358">
        <ele>47.2418</ele>
        <time>2014-05-27T18:13:44Z</time>
      </trkpt>
      <trkpt lat="59.9555947" lon="17.7169784">
        <ele>46.2806</ele>
        <time>2014-05-27T18:13:45Z</time>
      </trkpt>
      <trkpt lat="59.9555825" lon="17.716939">
        <ele>47.2418</ele>
        <time>2014-05-27T18:13:46Z</time>
      </trkpt>
      <trkpt lat="59.95557" lon="17.716896">
        <ele>46.7612</ele>
        <time>2014-05-27T18:13:47Z</time>
      </trkpt>
      <trkpt lat="59.9555697" lon="17.7168455">
        <ele>47.2418</ele>
        <time>2014-05-27T18:13:48Z</time>
      </trkpt>
      <trkpt lat="59.9555655" lon="17.7167831">
        <ele>46.7612</ele>
        <time>2014-05-27T18:13:49Z</time>
      </trkpt>
      <trkpt lat="59.9555651" lon="17.7167193">
        <ele>46.7612</ele>
        <time>2014-05-27T18:13:50Z</time>
      </trkpt>
      <trkpt lat="59.9555602" lon="17.7166571">
        <ele>46.2806</ele>
        <time>2014-05-27T18:13:51Z</time>
      </trkpt>
      <trkpt lat="59.9555599" lon="17.7166007">
        <ele>45.7999</ele>
        <time>2014-05-27T18:13:52Z</time>
      </trkpt>
      <trkpt lat="59.9555529" lon="17.7165494">
        <ele>45.3192</ele>
        <time>2014-05-27T18:13:53Z</time>
      </trkpt>
      <trkpt lat="59.9555473" lon="17.716506">
        <ele>44.8386</ele>
        <time>2014-05-27T18:13:54Z</time>
      </trkpt>
      <trkpt lat="59.9555359" lon="17.7164496">
        <ele>44.358</ele>
        <time>2014-05-27T18:13:55Z</time>
      </trkpt>
      <trkpt lat="59.9555252" lon="17.7163877">
        <ele>43.3966</ele>
        <time>2014-05-27T18:13:56Z</time>
      </trkpt>
      <trkpt lat="59.9555162" lon="17.7163237">
        <ele>42.4354</ele>
        <time>2014-05-27T18:13:57Z</time>
      </trkpt>
      <trkpt lat="59.9555132" lon="17.7162664">
        <ele>41.9547</ele>
        <time>2014-05-27T18:13:58Z</time>
      </trkpt>
      <trkpt lat="59.9555037" lon="17.7162055">
        <ele>40.9934</ele>
        <time>2014-05-27T18:13:59Z</time>
      </trkpt>
      <trkpt lat="59.9555081" lon="17.716153">
        <ele>41.474</ele>
        <time>2014-05-27T18:14:00Z</time>
      </trkpt>
      <trkpt lat="59.9555076" lon="17.7160918">
        <ele>42.916</ele>
        <time>2014-05-27T18:14:01Z</time>
      </trkpt>
      <trkpt lat="59.9555029" lon="17.7160211">
        <ele>42.916</ele>
        <time>2014-05-27T18:14:02Z</time>
      </trkpt>
      <trkpt lat="59.9555021" lon="17.7159615">
        <ele>42.916</ele>
        <time>2014-05-27T18:14:03Z</time>
      </trkpt>
      <trkpt lat="59.955494" lon="17.7159044">
        <ele>42.916</ele>
        <time>2014-05-27T18:14:04Z</time>
      </trkpt>
      <trkpt lat="59.9554956" lon="17.7158558">
        <ele>43.3966</ele>
        <time>2014-05-27T18:14:05Z</time>
      </trkpt>
      <trkpt lat="59.9554938" lon="17.7158064">
        <ele>43.8773</ele>
        <time>2014-05-27T18:14:06Z</time>
      </trkpt>
      <trkpt lat="59.955491" lon="17.7157565">
        <ele>44.358</ele>
        <time>2014-05-27T18:14:07Z</time>
      </trkpt>
      <trkpt lat="59.9554814" lon="17.7156962">
        <ele>44.358</ele>
        <time>2014-05-27T18:14:08Z</time>
      </trkpt>
      <trkpt lat="59.9554749" lon="17.7156346">
        <ele>43.3966</ele>
        <time>2014-05-27T18:14:09Z</time>
      </trkpt>
      <trkpt lat="59.9554692" lon="17.715566">
        <ele>43.8773</ele>
        <time>2014-05-27T18:14:10Z</time>
      </trkpt>
      <trkpt lat="59.9554626" lon="17.7155016">
        <ele>43.3966</ele>
        <time>2014-05-27T18:14:11Z</time>
      </trkpt>
      <trkpt lat="59.9554628" lon="17.7154408">
        <ele>43.3966</ele>
        <time>2014-05-27T18:14:12Z</time>
      </trkpt>
      <trkpt lat="59.9554551" lon="17.7153869">
        <ele>42.916</ele>
        <time>2014-05-27T18:14:13Z</time>
      </trkpt>
      <trkpt lat="59.9554469" lon="17.7153202">
        <ele>41.9547</ele>
        <time>2014-05-27T18:14:14Z</time>
      </trkpt>
      <trkpt lat="59.9554527" lon="17.7152584">
        <ele>42.4354</ele>
        <time>2014-05-27T18:14:15Z</time>
      </trkpt>
      <trkpt lat="59.9554443" lon="17.7152057">
        <ele>41.9547</ele>
        <time>2014-05-27T18:14:16Z</time>
      </trkpt>
      <trkpt lat="59.9554364" lon="17.7151475">
        <ele>41.474</ele>
        <time>2014-05-27T18:14:17Z</time>
      </trkpt>
      <trkpt lat="59.9554235" lon="17.7150891">
        <ele>40.5128</ele>
        <time>2014-05-27T18:14:18Z</time>
      </trkpt>
      <trkpt lat="59.955405" lon="17.7150301">
        <ele>40.0321</ele>
        <time>2014-05-27T18:14:19Z</time>
      </trkpt>
      <trkpt lat="59.95539" lon="17.7149719">
        <ele>39.0707</ele>
        <time>2014-05-27T18:14:20Z</time>
      </trkpt>
      <trkpt lat="59.9553733" lon="17.7149239">
        <ele>38.5901</ele>
        <time>2014-05-27T18:14:21Z</time>
      </trkpt>
      <trkpt lat="59.9553521" lon="17.7148711">
        <ele>38.1094</ele>
        <time>2014-05-27T18:14:22Z</time>
      </trkpt>
      <trkpt lat="59.9553392" lon="17.7148146">
        <ele>38.1094</ele>
        <time>2014-05-27T18:14:23Z</time>
      </trkpt>
      <trkpt lat="59.955319" lon="17.7147601">
        <ele>38.1094</ele>
        <time>2014-05-27T18:14:24Z</time>
      </trkpt>
      <trkpt lat="59.9552987" lon="17.7147053">
        <ele>38.1094</ele>
        <time>2014-05-27T18:14:25Z</time>
      </trkpt>
      <trkpt lat="59.9552853" lon="17.7146559">
        <ele>38.5901</ele>
        <time>2014-05-27T18:14:26Z</time>
      </trkpt>
      <trkpt lat="59.9552675" lon="17.7146054">
        <ele>38.5901</ele>
        <time>2014-05-27T18:14:27Z</time>
      </trkpt>
      <trkpt lat="59.955246" lon="17.7145504">
        <ele>38.5901</ele>
        <time>2014-05-27T18:14:28Z</time>
      </trkpt>
      <trkpt lat="59.9552345" lon="17.7144933">
        <ele>38.5901</ele>
        <time>2014-05-27T18:14:29Z</time>
      </trkpt>
      <trkpt lat="59.9552175" lon="17.7144323">
        <ele>39.0707</ele>
        <time>2014-05-27T18:14:30Z</time>
      </trkpt>
      <trkpt lat="59.955205" lon="17.7143768">
        <ele>40.5128</ele>
        <time>2014-05-27T18:14:31Z</time>
      </trkpt>
      <trkpt lat="59.9552028" lon="17.7143239">
        <ele>40.9934</ele>
        <time>2014-05-27T18:14:32Z</time>
      </trkpt>
      <trkpt lat="59.9551967" lon="17.7142763">
        <ele>40.9934</ele>
        <time>2014-05-27T18:14:33Z</time>
      </trkpt>
      <trkpt lat="59.9551815" lon="17.7142314">
        <ele>40.9934</ele>
        <time>2014-05-27T18:14:34Z</time>
      </trkpt>
      <trkpt lat="59.9551661" lon="17.7141863">
        <ele>40.5128</ele>
        <time>2014-05-27T18:14:35Z</time>
      </trkpt>
      <trkpt lat="59.9551464" lon="17.7141376">
        <ele>40.0321</ele>
        <time>2014-05-27T18:14:36Z</time>
      </trkpt>
      <trkpt lat="59.9551279" lon="17.7141027">
        <ele>40.0321</ele>
        <time>2014-05-27T18:14:37Z</time>
      </trkpt>
      <trkpt lat="59.9551154" lon="17.7140843">
        <ele>40.0321</ele>
        <time>2014-05-27T18:14:38Z</time>
      </trkpt>
      <trkpt lat="59.9550952" lon="17.7140815">
        <ele>38.5901</ele>
        <time>2014-05-27T18:14:39Z</time>
      </trkpt>
      <trkpt lat="59.9550816" lon="17.7141234">
        <ele>38.5901</ele>
        <time>2014-05-27T18:14:40Z</time>
      </trkpt>
      <trkpt lat="59.9550704" lon="17.714174">
        <ele>38.5901</ele>
        <time>2014-05-27T18:14:41Z</time>
      </trkpt>
      <trkpt lat="59.9550594" lon="17.7142323">
        <ele>39.0707</ele>
        <time>2014-05-27T18:14:42Z</time>
      </trkpt>
      <trkpt lat="59.955046" lon="17.7142807">
        <ele>39.5513</ele>
        <time>2014-05-27T18:14:43Z</time>
      </trkpt>
      <trkpt lat="59.9550279" lon="17.7143233">
        <ele>39.5513</ele>
        <time>2014-05-27T18:14:44Z</time>
      </trkpt>
      <trkpt lat="59.9550081" lon="17.7143521">
        <ele>40.0321</ele>
        <time>2014-05-27T18:14:45Z</time>
      </trkpt>
      <trkpt lat="59.9549841" lon="17.7143814">
        <ele>40.9934</ele>
        <time>2014-05-27T18:14:46Z</time>
      </trkpt>
      <trkpt lat="59.9549614" lon="17.7144164">
        <ele>40.9934</ele>
        <time>2014-05-27T18:14:47Z</time>
      </trkpt>
      <trkpt lat="59.9549347" lon="17.7144587">
        <ele>41.474</ele>
        <time>2014-05-27T18:14:48Z</time>
      </trkpt>
      <trkpt lat="59.9549109" lon="17.7145015">
        <ele>41.9547</ele>
        <time>2014-05-27T18:14:49Z</time>
      </trkpt>
      <trkpt lat="59.9548798" lon="17.7145576">
        <ele>41.9547</ele>
        <time>2014-05-27T18:14:50Z</time>
      </trkpt>
      <trkpt lat="59.9548464" lon="17.7146224">
        <ele>42.916</ele>
        <time>2014-05-27T18:14:51Z</time>
      </trkpt>
      <trkpt lat="59.9548147" lon="17.7146773">
        <ele>43.3966</ele>
        <time>2014-05-27T18:14:52Z</time>
      </trkpt>
      <trkpt lat="59.9547855" lon="17.7147407">
        <ele>44.358</ele>
        <time>2014-05-27T18:14:53Z</time>
      </trkpt>
      <trkpt lat="59.9547563" lon="17.7147891">
        <ele>44.8386</ele>
        <time>2014-05-27T18:14:54Z</time>
      </trkpt>
      <trkpt lat="59.9547275" lon="17.714808">
        <ele>45.3192</ele>
        <time>2014-05-27T18:14:55Z</time>
      </trkpt>
      <trkpt lat="59.954699" lon="17.7148217">
        <ele>45.7999</ele>
        <time>2014-05-27T18:14:56Z</time>
      </trkpt>
      <trkpt lat="59.9546756" lon="17.7148279">
        <ele>46.7612</ele>
        <time>2014-05-27T18:14:57Z</time>
      </trkpt>
      <trkpt lat="59.9546559" lon="17.7148254">
        <ele>47.2418</ele>
        <time>2014-05-27T18:14:58Z</time>
      </trkpt>
      <trkpt lat="59.9546351" lon="17.7148292">
        <ele>47.7225</ele>
        <time>2014-05-27T18:14:59Z</time>
      </trkpt>
      <trkpt lat="59.9546168" lon="17.7148382">
        <ele>48.2034</ele>
        <time>2014-05-27T18:15:00Z</time>
      </trkpt>
      <trkpt lat="59.9546004" lon="17.714844">
        <ele>48.684</ele>
        <time>2014-05-27T18:15:01Z</time>
      </trkpt>
      <trkpt lat="59.9545824" lon="17.714854">
        <ele>49.1646</ele>
        <time>2014-05-27T18:15:02Z</time>
      </trkpt>
      <trkpt lat="59.9545581" lon="17.7148539">
        <ele>49.6453</ele>
        <time>2014-05-27T18:15:03Z</time>
      </trkpt>
      <trkpt lat="59.9545351" lon="17.7148535">
        <ele>50.126</ele>
        <time>2014-05-27T18:15:04Z</time>
      </trkpt>
      <trkpt lat="59.9545103" lon="17.7148545">
        <ele>50.6066</ele>
        <time>2014-05-27T18:15:05Z</time>
      </trkpt>
      <trkpt lat="59.9544809" lon="17.7148538">
        <ele>50.6066</ele>
        <time>2014-05-27T18:15:06Z</time>
      </trkpt>
      <trkpt lat="59.9544621" lon="17.7148546">
        <ele>51.0872</ele>
        <time>2014-05-27T18:15:07Z</time>
      </trkpt>
      <trkpt lat="59.9544419" lon="17.7148586">
        <ele>50.6066</ele>
        <time>2014-05-27T18:15:08Z</time>
      </trkpt>
      <trkpt lat="59.9544138" lon="17.7148706">
        <ele>51.5679</ele>
        <time>2014-05-27T18:15:09Z</time>
      </trkpt>
      <trkpt lat="59.9543806" lon="17.714873">
        <ele>51.5679</ele>
        <time>2014-05-27T18:15:10Z</time>
      </trkpt>
      <trkpt lat="59.9543511" lon="17.7148621">
        <ele>52.0486</ele>
        <time>2014-05-27T18:15:11Z</time>
      </trkpt>
      <trkpt lat="59.9543221" lon="17.7148688">
        <ele>52.5292</ele>
        <time>2014-05-27T18:15:12Z</time>
      </trkpt>
      <trkpt lat="59.9542962" lon="17.7148815">
        <ele>53.0098</ele>
        <time>2014-05-27T18:15:13Z</time>
      </trkpt>
      <trkpt lat="59.9542747" lon="17.7148901">
        <ele>53.0098</ele>
        <time>2014-05-27T18:15:14Z</time>
      </trkpt>
      <trkpt lat="59.9542523" lon="17.7148897">
        <ele>53.4905</ele>
        <time>2014-05-27T18:15:15Z</time>
      </trkpt>
      <trkpt lat="59.9542281" lon="17.7148911">
        <ele>53.4905</ele>
        <time>2014-05-27T18:15:16Z</time>
      </trkpt>
      <trkpt lat="59.9541997" lon="17.7149006">
        <ele>54.4518</ele>
        <time>2014-05-27T18:15:17Z</time>
      </trkpt>
      <trkpt lat="59.9541715" lon="17.7149063">
        <ele>53.9712</ele>
        <time>2014-05-27T18:15:18Z</time>
      </trkpt>
      <trkpt lat="59.9541394" lon="17.7149154">
        <ele>53.9712</ele>
        <time>2014-05-27T18:15:19Z</time>
      </trkpt>
      <trkpt lat="59.9541077" lon="17.7149275">
        <ele>53.9712</ele>
        <time>2014-05-27T18:15:20Z</time>
      </trkpt>
      <trkpt lat="59.9540804" lon="17.7149229">
        <ele>53.9712</ele>
        <time>2014-05-27T18:15:21Z</time>
      </trkpt>
      <trkpt lat="59.9540487" lon="17.7149291">
        <ele>54.9324</ele>
        <time>2014-05-27T18:15:22Z</time>
      </trkpt>
      <trkpt lat="59.9540275" lon="17.714938">
        <ele>55.8938</ele>
        <time>2014-05-27T18:15:23Z</time>
      </trkpt>
      <trkpt lat="59.9540099" lon="17.7149396">
        <ele>56.3745</ele>
        <time>2014-05-27T18:15:24Z</time>
      </trkpt>
      <trkpt lat="59.9539838" lon="17.714947">
        <ele>56.8551</ele>
        <time>2014-05-27T18:15:25Z</time>
      </trkpt>
      <trkpt lat="59.9539566" lon="17.714954">
        <ele>56.8551</ele>
        <time>2014-05-27T18:15:26Z</time>
      </trkpt>
      <trkpt lat="59.9539292" lon="17.7149523">
        <ele>55.8938</ele>
        <time>2014-05-27T18:15:27Z</time>
      </trkpt>
      <trkpt lat="59.9539031" lon="17.7149571">
        <ele>55.8938</ele>
        <time>2014-05-27T18:15:28Z</time>
      </trkpt>
      <trkpt lat="59.9538768" lon="17.7149668">
        <ele>55.8938</ele>
        <time>2014-05-27T18:15:29Z</time>
      </trkpt>
      <trkpt lat="59.953858" lon="17.71497">
        <ele>55.8938</ele>
        <time>2014-05-27T18:15:30Z</time>
      </trkpt>
      <trkpt lat="59.9538438" lon="17.7149694">
        <ele>56.3745</ele>
        <time>2014-05-27T18:15:31Z</time>
      </trkpt>
      <trkpt lat="59.953816" lon="17.7149834">
        <ele>56.3745</ele>
        <time>2014-05-27T18:15:32Z</time>
      </trkpt>
      <trkpt lat="59.9537794" lon="17.7150083">
        <ele>56.3745</ele>
        <time>2014-05-27T18:15:33Z</time>
      </trkpt>
      <trkpt lat="59.9537452" lon="17.7150243">
        <ele>56.3745</ele>
        <time>2014-05-27T18:15:34Z</time>
      </trkpt>
      <trkpt lat="59.9537161" lon="17.7150483">
        <ele>56.3745</ele>
        <time>2014-05-27T18:15:35Z</time>
      </trkpt>
      <trkpt lat="59.953693" lon="17.7150736">
        <ele>57.3358</ele>
        <time>2014-05-27T18:15:36Z</time>
      </trkpt>
      <trkpt lat="59.953671" lon="17.715095">
        <ele>57.8165</ele>
        <time>2014-05-27T18:15:37Z</time>
      </trkpt>
      <trkpt lat="59.9536508" lon="17.7151074">
        <ele>57.3358</ele>
        <time>2014-05-27T18:15:38Z</time>
      </trkpt>
      <trkpt lat="59.9536282" lon="17.7151131">
        <ele>56.8551</ele>
        <time>2014-05-27T18:15:39Z</time>
      </trkpt>
      <trkpt lat="59.9536052" lon="17.7151315">
        <ele>57.3358</ele>
        <time>2014-05-27T18:15:40Z</time>
      </trkpt>
      <trkpt lat="59.9535784" lon="17.7151672">
        <ele>57.3358</ele>
        <time>2014-05-27T18:15:41Z</time>
      </trkpt>
      <trkpt lat="59.9535525" lon="17.7151985">
        <ele>57.3358</ele>
        <time>2014-05-27T18:15:42Z</time>
      </trkpt>
      <trkpt lat="59.9535307" lon="17.7152229">
        <ele>58.7777</ele>
        <time>2014-05-27T18:15:43Z</time>
      </trkpt>
      <trkpt lat="59.953506" lon="17.7152447">
        <ele>58.7777</ele>
        <time>2014-05-27T18:15:44Z</time>
      </trkpt>
      <trkpt lat="59.9534816" lon="17.7152782">
        <ele>59.2584</ele>
        <time>2014-05-27T18:15:45Z</time>
      </trkpt>
      <trkpt lat="59.9534577" lon="17.7153104">
        <ele>58.2971</ele>
        <time>2014-05-27T18:15:46Z</time>
      </trkpt>
      <trkpt lat="59.9534405" lon="17.7153443">
        <ele>58.7777</ele>
        <time>2014-05-27T18:15:47Z</time>
      </trkpt>
      <trkpt lat="59.9534195" lon="17.7153749">
        <ele>58.2971</ele>
        <time>2014-05-27T18:15:48Z</time>
      </trkpt>
      <trkpt lat="59.9534003" lon="17.7154109">
        <ele>57.8165</ele>
        <time>2014-05-27T18:15:49Z</time>
      </trkpt>
      <trkpt lat="59.9533789" lon="17.7154467">
        <ele>57.3358</ele>
        <time>2014-05-27T18:15:50Z</time>
      </trkpt>
      <trkpt lat="59.9533562" lon="17.7154948">
        <ele>58.2971</ele>
        <time>2014-05-27T18:15:51Z</time>
      </trkpt>
      <trkpt lat="59.953337" lon="17.7155403">
        <ele>59.2584</ele>
        <time>2014-05-27T18:15:52Z</time>
      </trkpt>
      <trkpt lat="59.9533167" lon="17.7155804">
        <ele>59.7391</ele>
        <time>2014-05-27T18:15:53Z</time>
      </trkpt>
      <trkpt lat="59.9533003" lon="17.7156139">
        <ele>60.2197</ele>
        <time>2014-05-27T18:15:54Z</time>
      </trkpt>
      <trkpt lat="59.9532815" lon="17.7156439">
        <ele>60.7003</ele>
        <time>2014-05-27T18:15:55Z</time>
      </trkpt>
      <trkpt lat="59.9532571" lon="17.7156766">
        <ele>60.2197</ele>
        <time>2014-05-27T18:15:56Z</time>
      </trkpt>
      <trkpt lat="59.9532314" lon="17.7156981">
        <ele>59.2584</ele>
        <time>2014-05-27T18:15:57Z</time>
      </trkpt>
      <trkpt lat="59.9532085" lon="17.7157289">
        <ele>58.2971</ele>
        <time>2014-05-27T18:15:58Z</time>
      </trkpt>
      <trkpt lat="59.9531861" lon="17.7157603">
        <ele>57.8165</ele>
        <time>2014-05-27T18:15:59Z</time>
      </trkpt>
      <trkpt lat="59.9531649" lon="17.7157709">
        <ele>57.3358</ele>
        <time>2014-05-27T18:16:00Z</time>
      </trkpt>
      <trkpt lat="59.9531468" lon="17.7157983">
        <ele>57.8165</ele>
        <time>2014-05-27T18:16:01Z</time>
      </trkpt>
      <trkpt lat="59.953132" lon="17.7158145">
        <ele>56.8551</ele>
        <time>2014-05-27T18:16:02Z</time>
      </trkpt>
      <trkpt lat="59.9531174" lon="17.7158367">
        <ele>56.3745</ele>
        <time>2014-05-27T18:16:03Z</time>
      </trkpt>
      <trkpt lat="59.9531008" lon="17.7158707">
        <ele>55.8938</ele>
        <time>2014-05-27T18:16:04Z</time>
      </trkpt>
      <trkpt lat="59.9530826" lon="17.7159036">
        <ele>54.9324</ele>
        <time>2014-05-27T18:16:05Z</time>
      </trkpt>
      <trkpt lat="59.9530693" lon="17.7159438">
        <ele>54.4518</ele>
        <time>2014-05-27T18:16:06Z</time>
      </trkpt>
      <trkpt lat="59.953055" lon="17.7159945">
        <ele>54.4518</ele>
        <time>2014-05-27T18:16:07Z</time>
      </trkpt>
      <trkpt lat="59.9530444" lon="17.7160387">
        <ele>54.9324</ele>
        <time>2014-05-27T18:16:08Z</time>
      </trkpt>
      <trkpt lat="59.9530351" lon="17.7160605">
        <ele>53.9712</ele>
        <time>2014-05-27T18:16:09Z</time>
      </trkpt>
      <trkpt lat="59.9530186" lon="17.716098">
        <ele>53.0098</ele>
        <time>2014-05-27T18:16:10Z</time>
      </trkpt>
      <trkpt lat="59.9529987" lon="17.7161431">
        <ele>51.5679</ele>
        <time>2014-05-27T18:16:11Z</time>
      </trkpt>
      <trkpt lat="59.9529769" lon="17.7161956">
        <ele>51.0872</ele>
        <time>2014-05-27T18:16:12Z</time>
      </trkpt>
      <trkpt lat="59.9529593" lon="17.7162464">
        <ele>50.6066</ele>
        <time>2014-05-27T18:16:13Z</time>
      </trkpt>
      <trkpt lat="59.9529444" lon="17.7163058">
        <ele>50.126</ele>
        <time>2014-05-27T18:16:14Z</time>
      </trkpt>
      <trkpt lat="59.9529299" lon="17.7163609">
        <ele>49.6453</ele>
        <time>2014-05-27T18:16:15Z</time>
      </trkpt>
      <trkpt lat="59.9529179" lon="17.7164045">
        <ele>49.1646</ele>
        <time>2014-05-27T18:16:16Z</time>
      </trkpt>
      <trkpt lat="59.9529056" lon="17.7164494">
        <ele>48.684</ele>
        <time>2014-05-27T18:16:17Z</time>
      </trkpt>
      <trkpt lat="59.9528931" lon="17.7165083">
        <ele>48.684</ele>
        <time>2014-05-27T18:16:18Z</time>
      </trkpt>
      <trkpt lat="59.9528916" lon="17.7165583">
        <ele>47.7225</ele>
        <time>2014-05-27T18:16:19Z</time>
      </trkpt>
      <trkpt lat="59.952893" lon="17.7166037">
        <ele>47.2418</ele>
        <time>2014-05-27T18:16:20Z</time>
      </trkpt>
      <trkpt lat="59.9528926" lon="17.7166537">
        <ele>46.7612</ele>
        <time>2014-05-27T18:16:21Z</time>
      </trkpt>
      <trkpt lat="59.952889" lon="17.7167028">
        <ele>46.7612</ele>
        <time>2014-05-27T18:16:22Z</time>
      </trkpt>
      <trkpt lat="59.9528863" lon="17.7167499">
        <ele>46.2806</ele>
        <time>2014-05-27T18:16:23Z</time>
      </trkpt>
      <trkpt lat="59.9528824" lon="17.7168022">
        <ele>45.3192</ele>
        <time>2014-05-27T18:16:24Z</time>
      </trkpt>
      <trkpt lat="59.9528769" lon="17.7168515">
        <ele>44.358</ele>
        <time>2014-05-27T18:16:25Z</time>
      </trkpt>
      <trkpt lat="59.9528692" lon="17.7168974">
        <ele>43.3966</ele>
        <time>2014-05-27T18:16:26Z</time>
      </trkpt>
      <trkpt lat="59.9528613" lon="17.7169462">
        <ele>42.916</ele>
        <time>2014-05-27T18:16:27Z</time>
      </trkpt>
      <trkpt lat="59.9528565" lon="17.7169961">
        <ele>42.916</ele>
        <time>2014-05-27T18:16:28Z</time>
      </trkpt>
      <trkpt lat="59.9528526" lon="17.7170396">
        <ele>43.3966</ele>
        <time>2014-05-27T18:16:29Z</time>
      </trkpt>
      <trkpt lat="59.9528443" lon="17.7170856">
        <ele>42.916</ele>
        <time>2014-05-27T18:16:30Z</time>
      </trkpt>
      <trkpt lat="59.9528341" lon="17.7171338">
        <ele>43.3966</ele>
        <time>2014-05-27T18:16:31Z</time>
      </trkpt>
      <trkpt lat="59.9528226" lon="17.7171876">
        <ele>42.4354</ele>
        <time>2014-05-27T18:16:32Z</time>
      </trkpt>
      <trkpt lat="59.9528102" lon="17.7172513">
        <ele>42.4354</ele>
        <time>2014-05-27T18:16:33Z</time>
      </trkpt>
      <trkpt lat="59.952799" lon="17.7173042">
        <ele>41.9547</ele>
        <time>2014-05-27T18:16:34Z</time>
      </trkpt>
      <trkpt lat="59.9527907" lon="17.7173568">
        <ele>41.474</ele>
        <time>2014-05-27T18:16:35Z</time>
      </trkpt>
      <trkpt lat="59.9527798" lon="17.7174057">
        <ele>41.9547</ele>
        <time>2014-05-27T18:16:36Z</time>
      </trkpt>
      <trkpt lat="59.952761" lon="17.7174609">
        <ele>41.9547</ele>
        <time>2014-05-27T18:16:37Z</time>
      </trkpt>
      <trkpt lat="59.9527422" lon="17.7175242">
        <ele>42.916</ele>
        <time>2014-05-27T18:16:38Z</time>
      </trkpt>
      <trkpt lat="59.9527251" lon="17.7175766">
        <ele>43.3966</ele>
        <time>2014-05-27T18:16:39Z</time>
      </trkpt>
      <trkpt lat="59.9527117" lon="17.7176207">
        <ele>43.8773</ele>
        <time>2014-05-27T18:16:40Z</time>
      </trkpt>
      <trkpt lat="59.9526983" lon="17.7176756">
        <ele>43.8773</ele>
        <time>2014-05-27T18:16:41Z</time>
      </trkpt>
      <trkpt lat="59.9526839" lon="17.7177357">
        <ele>43.3966</ele>
        <time>2014-05-27T18:16:42Z</time>
      </trkpt>
      <trkpt lat="59.9526698" lon="17.7177957">
        <ele>43.8773</ele>
        <time>2014-05-27T18:16:43Z</time>
      </trkpt>
      <trkpt lat="59.9526533" lon="17.7178593">
        <ele>44.8386</ele>
        <time>2014-05-27T18:16:44Z</time>
      </trkpt>
      <trkpt lat="59.9526331" lon="17.7179149">
        <ele>45.3192</ele>
        <time>2014-05-27T18:16:45Z</time>
      </trkpt>
      <trkpt lat="59.952616" lon="17.7179899">
        <ele>46.7612</ele>
        <time>2014-05-27T18:16:46Z</time>
      </trkpt>
      <trkpt lat="59.9526015" lon="17.7180439">
        <ele>47.7225</ele>
        <time>2014-05-27T18:16:47Z</time>
      </trkpt>
      <trkpt lat="59.9525883" lon="17.7180853">
        <ele>48.684</ele>
        <time>2014-05-27T18:16:48Z</time>
      </trkpt>
      <trkpt lat="59.9525787" lon="17.718132">
        <ele>48.684</ele>
        <time>2014-05-27T18:16:49Z</time>
      </trkpt>
      <trkpt lat="59.9525678" lon="17.7181879">
        <ele>48.684</ele>
        <time>2014-05-27T18:16:50Z</time>
      </trkpt>
      <trkpt lat="59.952558" lon="17.7182225">
        <ele>48.2034</ele>
        <time>2014-05-27T18:16:51Z</time>
      </trkpt>
      <trkpt lat="59.9525503" lon="17.7182609">
        <ele>47.7225</ele>
        <time>2014-05-27T18:16:52Z</time>
      </trkpt>
      <trkpt lat="59.9525445" lon="17.7182955">
        <ele>47.2418</ele>
        <time>2014-05-27T18:16:53Z</time>
      </trkpt>
      <trkpt lat="59.9525398" lon="17.7183324">
        <ele>47.2418</ele>
        <time>2014-05-27T18:16:54Z</time>
      </trkpt>
      <trkpt lat="59.9525368" lon="17.7183697">
        <ele>47.2418</ele>
        <time>2014-05-27T18:16:55Z</time>
      </trkpt>
      <trkpt lat="59.9525311" lon="17.7184059">
        <ele>46.7612</ele>
        <time>2014-05-27T18:16:56Z</time>
      </trkpt>
      <trkpt lat="59.9525179" lon="17.7184553">
        <ele>46.7612</ele>
        <time>2014-05-27T18:16:57Z</time>
      </trkpt>
      <trkpt lat="59.9525072" lon="17.7185076">
        <ele>47.2418</ele>
        <time>2014-05-27T18:16:58Z</time>
      </trkpt>
      <trkpt lat="59.9524974" lon="17.7185659">
        <ele>46.2806</ele>
        <time>2014-05-27T18:16:59Z</time>
      </trkpt>
      <trkpt lat="59.9524905" lon="17.7186405">
        <ele>45.7999</ele>
        <time>2014-05-27T18:17:00Z</time>
      </trkpt>
      <trkpt lat="59.9524787" lon="17.7186977">
        <ele>45.3192</ele>
        <time>2014-05-27T18:17:01Z</time>
      </trkpt>
      <trkpt lat="59.9524631" lon="17.7187594">
        <ele>45.3192</ele>
        <time>2014-05-27T18:17:02Z</time>
      </trkpt>
      <trkpt lat="59.9524497" lon="17.7188255">
        <ele>45.3192</ele>
        <time>2014-05-27T18:17:03Z</time>
      </trkpt>
      <trkpt lat="59.9524342" lon="17.7188727">
        <ele>44.358</ele>
        <time>2014-05-27T18:17:04Z</time>
      </trkpt>
      <trkpt lat="59.9524166" lon="17.7189089">
        <ele>43.3966</ele>
        <time>2014-05-27T18:17:05Z</time>
      </trkpt>
      <trkpt lat="59.9524031" lon="17.7189471">
        <ele>42.916</ele>
        <time>2014-05-27T18:17:06Z</time>
      </trkpt>
      <trkpt lat="59.9523907" lon="17.7189871">
        <ele>41.9547</ele>
        <time>2014-05-27T18:17:07Z</time>
      </trkpt>
      <trkpt lat="59.9523782" lon="17.7190238">
        <ele>41.9547</ele>
        <time>2014-05-27T18:17:08Z</time>
      </trkpt>
      <trkpt lat="59.9523646" lon="17.7190572">
        <ele>40.9934</ele>
        <time>2014-05-27T18:17:09Z</time>
      </trkpt>
      <trkpt lat="59.9523512" lon="17.7191057">
        <ele>40.0321</ele>
        <time>2014-05-27T18:17:10Z</time>
      </trkpt>
      <trkpt lat="59.9523368" lon="17.7191798">
        <ele>39.5513</ele>
        <time>2014-05-27T18:17:11Z</time>
      </trkpt>
      <trkpt lat="59.9523238" lon="17.7192553">
        <ele>38.5901</ele>
        <time>2014-05-27T18:17:12Z</time>
      </trkpt>
      <trkpt lat="59.952314" lon="17.7193191">
        <ele>37.6287</ele>
        <time>2014-05-27T18:17:13Z</time>
      </trkpt>
      <trkpt lat="59.9523104" lon="17.7193651">
        <ele>36.1868</ele>
        <time>2014-05-27T18:17:14Z</time>
      </trkpt>
      <trkpt lat="59.9523074" lon="17.7194053">
        <ele>35.2255</ele>
        <time>2014-05-27T18:17:15Z</time>
      </trkpt>
      <trkpt lat="59.9523026" lon="17.7194434">
        <ele>34.7449</ele>
        <time>2014-05-27T18:17:16Z</time>
      </trkpt>
      <trkpt lat="59.9522996" lon="17.7194874">
        <ele>34.2642</ele>
        <time>2014-05-27T18:17:17Z</time>
      </trkpt>
      <trkpt lat="59.9523035" lon="17.719528">
        <ele>33.3029</ele>
        <time>2014-05-27T18:17:18Z</time>
      </trkpt>
      <trkpt lat="59.9523135" lon="17.719572">
        <ele>32.3416</ele>
        <time>2014-05-27T18:17:19Z</time>
      </trkpt>
      <trkpt lat="59.9523265" lon="17.7196144">
        <ele>32.3416</ele>
        <time>2014-05-27T18:17:20Z</time>
      </trkpt>
      <trkpt lat="59.9523412" lon="17.7196527">
        <ele>32.3416</ele>
        <time>2014-05-27T18:17:21Z</time>
      </trkpt>
      <trkpt lat="59.9523604" lon="17.7196844">
        <ele>31.8607</ele>
        <time>2014-05-27T18:17:22Z</time>
      </trkpt>
      <trkpt lat="59.952379" lon="17.7197179">
        <ele>31.3801</ele>
        <time>2014-05-27T18:17:23Z</time>
      </trkpt>
      <trkpt lat="59.9523983" lon="17.7197448">
        <ele>30.8995</ele>
        <time>2014-05-27T18:17:24Z</time>
      </trkpt>
      <trkpt lat="59.9524176" lon="17.7197788">
        <ele>31.3801</ele>
        <time>2014-05-27T18:17:25Z</time>
      </trkpt>
      <trkpt lat="59.9524314" lon="17.7198197">
        <ele>30.8995</ele>
        <time>2014-05-27T18:17:26Z</time>
      </trkpt>
      <trkpt lat="59.9524389" lon="17.7198585">
        <ele>30.4188</ele>
        <time>2014-05-27T18:17:27Z</time>
      </trkpt>
      <trkpt lat="59.9524496" lon="17.7199113">
        <ele>31.3801</ele>
        <time>2014-05-27T18:17:28Z</time>
      </trkpt>
      <trkpt lat="59.9524586" lon="17.719958">
        <ele>31.8607</ele>
        <time>2014-05-27T18:17:29Z</time>
      </trkpt>
      <trkpt lat="59.9524666" lon="17.7200025">
        <ele>32.3416</ele>
        <time>2014-05-27T18:17:30Z</time>
      </trkpt>
      <trkpt lat="59.9524713" lon="17.7200494">
        <ele>32.8223</ele>
        <time>2014-05-27T18:17:31Z</time>
      </trkpt>
      <trkpt lat="59.9524713" lon="17.7200988">
        <ele>33.3029</ele>
        <time>2014-05-27T18:17:32Z</time>
      </trkpt>
      <trkpt lat="59.9524726" lon="17.7201569">
        <ele>34.2642</ele>
        <time>2014-05-27T18:17:33Z</time>
      </trkpt>
      <trkpt lat="59.9524695" lon="17.7202188">
        <ele>34.2642</ele>
        <time>2014-05-27T18:17:34Z</time>
      </trkpt>
      <trkpt lat="59.9524723" lon="17.720278">
        <ele>35.2255</ele>
        <time>2014-05-27T18:17:35Z</time>
      </trkpt>
      <trkpt lat="59.95247" lon="17.7203432">
        <ele>36.1868</ele>
        <time>2014-05-27T18:17:36Z</time>
      </trkpt>
      <trkpt lat="59.9524656" lon="17.7204108">
        <ele>36.6675</ele>
        <time>2014-05-27T18:17:37Z</time>
      </trkpt>
      <trkpt lat="59.9524609" lon="17.7204735">
        <ele>37.6287</ele>
        <time>2014-05-27T18:17:38Z</time>
      </trkpt>
      <trkpt lat="59.9524562" lon="17.7205245">
        <ele>37.6287</ele>
        <time>2014-05-27T18:17:39Z</time>
      </trkpt>
      <trkpt lat="59.9524571" lon="17.7205786">
        <ele>38.5901</ele>
        <time>2014-05-27T18:17:40Z</time>
      </trkpt>
      <trkpt lat="59.9524601" lon="17.7206372">
        <ele>39.5513</ele>
        <time>2014-05-27T18:17:41Z</time>
      </trkpt>
      <trkpt lat="59.9524673" lon="17.7206923">
        <ele>40.0321</ele>
        <time>2014-05-27T18:17:42Z</time>
      </trkpt>
      <trkpt lat="59.9524765" lon="17.7207479">
        <ele>40.9934</ele>
        <time>2014-05-27T18:17:43Z</time>
      </trkpt>
      <trkpt lat="59.9524842" lon="17.7208055">
        <ele>42.4354</ele>
        <time>2014-05-27T18:17:44Z</time>
      </trkpt>
      <trkpt lat="59.9524875" lon="17.7208658">
        <ele>42.4354</ele>
        <time>2014-05-27T18:17:45Z</time>
      </trkpt>
      <trkpt lat="59.9524988" lon="17.7209102">
        <ele>42.4354</ele>
        <time>2014-05-27T18:17:46Z</time>
      </trkpt>
      <trkpt lat="59.9525025" lon="17.7209572">
        <ele>42.4354</ele>
        <time>2014-05-27T18:17:47Z</time>
      </trkpt>
      <trkpt lat="59.9525005" lon="17.7210138">
        <ele>43.3966</ele>
        <time>2014-05-27T18:17:48Z</time>
      </trkpt>
      <trkpt lat="59.9524999" lon="17.7210665">
        <ele>43.3966</ele>
        <time>2014-05-27T18:17:49Z</time>
      </trkpt>
      <trkpt lat="59.9524999" lon="17.7211177">
        <ele>43.3966</ele>
        <time>2014-05-27T18:17:50Z</time>
      </trkpt>
      <trkpt lat="59.952499" lon="17.721167">
        <ele>43.8773</ele>
        <time>2014-05-27T18:17:51Z</time>
      </trkpt>
      <trkpt lat="59.9524958" lon="17.7212106">
        <ele>43.3966</ele>
        <time>2014-05-27T18:17:52Z</time>
      </trkpt>
      <trkpt lat="59.9524942" lon="17.7212555">
        <ele>43.3966</ele>
        <time>2014-05-27T18:17:53Z</time>
      </trkpt>
      <trkpt lat="59.9524984" lon="17.7213048">
        <ele>44.8386</ele>
        <time>2014-05-27T18:17:54Z</time>
      </trkpt>
      <trkpt lat="59.9524999" lon="17.7213628">
        <ele>44.358</ele>
        <time>2014-05-27T18:17:55Z</time>
      </trkpt>
      <trkpt lat="59.9525008" lon="17.7214222">
        <ele>44.8386</ele>
        <time>2014-05-27T18:17:56Z</time>
      </trkpt>
      <trkpt lat="59.952501" lon="17.7214742">
        <ele>44.358</ele>
        <time>2014-05-27T18:17:57Z</time>
      </trkpt>
      <trkpt lat="59.9525" lon="17.7215279">
        <ele>44.358</ele>
        <time>2014-05-27T18:17:58Z</time>
      </trkpt>
      <trkpt lat="59.9525056" lon="17.7215777">
        <ele>44.8386</ele>
        <time>2014-05-27T18:17:59Z</time>
      </trkpt>
      <trkpt lat="59.9525098" lon="17.7216338">
        <ele>44.358</ele>
        <time>2014-05-27T18:18:00Z</time>
      </trkpt>
      <trkpt lat="59.9525142" lon="17.7216872">
        <ele>44.358</ele>
        <time>2014-05-27T18:18:01Z</time>
      </trkpt>
      <trkpt lat="59.9525226" lon="17.721739">
        <ele>44.8386</ele>
        <time>2014-05-27T18:18:02Z</time>
      </trkpt>
      <trkpt lat="59.9525357" lon="17.7217918">
        <ele>44.8386</ele>
        <time>2014-05-27T18:18:03Z</time>
      </trkpt>
      <trkpt lat="59.9525455" lon="17.7218378">
        <ele>44.358</ele>
        <time>2014-05-27T18:18:04Z</time>
      </trkpt>
      <trkpt lat="59.9525564" lon="17.7218912">
        <ele>44.8386</ele>
        <time>2014-05-27T18:18:05Z</time>
      </trkpt>
      <trkpt lat="59.9525658" lon="17.7219413">
        <ele>45.3192</ele>
        <time>2014-05-27T18:18:06Z</time>
      </trkpt>
      <trkpt lat="59.9525594" lon="17.7220041">
        <ele>45.7999</ele>
        <time>2014-05-27T18:18:07Z</time>
      </trkpt>
      <trkpt lat="59.9525543" lon="17.7220699">
        <ele>46.2806</ele>
        <time>2014-05-27T18:18:08Z</time>
      </trkpt>
      <trkpt lat="59.9525543" lon="17.7221235">
        <ele>46.2806</ele>
        <time>2014-05-27T18:18:09Z</time>
      </trkpt>
      <trkpt lat="59.9525508" lon="17.7221781">
        <ele>46.7612</ele>
        <time>2014-05-27T18:18:10Z</time>
      </trkpt>
      <trkpt lat="59.9525431" lon="17.722236">
        <ele>46.7612</ele>
        <time>2014-05-27T18:18:11Z</time>
      </trkpt>
      <trkpt lat="59.952536" lon="17.7222909">
        <ele>47.2418</ele>
        <time>2014-05-27T18:18:12Z</time>
      </trkpt>
      <trkpt lat="59.9525278" lon="17.722343">
        <ele>47.7225</ele>
        <time>2014-05-27T18:18:13Z</time>
      </trkpt>
      <trkpt lat="59.9525176" lon="17.7223901">
        <ele>48.2034</ele>
        <time>2014-05-27T18:18:14Z</time>
      </trkpt>
      <trkpt lat="59.9525044" lon="17.722432">
        <ele>48.684</ele>
        <time>2014-05-27T18:18:15Z</time>
      </trkpt>
      <trkpt lat="59.9524907" lon="17.7224796">
        <ele>48.684</ele>
        <time>2014-05-27T18:18:16Z</time>
      </trkpt>
      <trkpt lat="59.9524865" lon="17.7225325">
        <ele>49.1646</ele>
        <time>2014-05-27T18:18:17Z</time>
      </trkpt>
      <trkpt lat="59.9524839" lon="17.7225828">
        <ele>49.6453</ele>
        <time>2014-05-27T18:18:18Z</time>
      </trkpt>
      <trkpt lat="59.9524787" lon="17.7226374">
        <ele>49.6453</ele>
        <time>2014-05-27T18:18:19Z</time>
      </trkpt>
      <trkpt lat="59.9524715" lon="17.7226998">
        <ele>50.126</ele>
        <time>2014-05-27T18:18:20Z</time>
      </trkpt>
      <trkpt lat="59.9524687" lon="17.7227574">
        <ele>49.6453</ele>
        <time>2014-05-27T18:18:21Z</time>
      </trkpt>
      <trkpt lat="59.9524725" lon="17.7228123">
        <ele>49.1646</ele>
        <time>2014-05-27T18:18:22Z</time>
      </trkpt>
      <trkpt lat="59.9524741" lon="17.7228561">
        <ele>48.2034</ele>
        <time>2014-05-27T18:18:23Z</time>
      </trkpt>
      <trkpt lat="59.9524754" lon="17.7229033">
        <ele>46.7612</ele>
        <time>2014-05-27T18:18:24Z</time>
      </trkpt>
      <trkpt lat="59.9524756" lon="17.722954">
        <ele>46.7612</ele>
        <time>2014-05-27T18:18:25Z</time>
      </trkpt>
      <trkpt lat="59.952473" lon="17.7230154">
        <ele>47.2418</ele>
        <time>2014-05-27T18:18:26Z</time>
      </trkpt>
      <trkpt lat="59.9524781" lon="17.7230783">
        <ele>47.2418</ele>
        <time>2014-05-27T18:18:27Z</time>
      </trkpt>
      <trkpt lat="59.952487" lon="17.7231347">
        <ele>47.2418</ele>
        <time>2014-05-27T18:18:28Z</time>
      </trkpt>
      <trkpt lat="59.952499" lon="17.7231801">
        <ele>46.7612</ele>
        <time>2014-05-27T18:18:29Z</time>
      </trkpt>
      <trkpt lat="59.9525097" lon="17.7232283">
        <ele>46.7612</ele>
        <time>2014-05-27T18:18:30Z</time>
      </trkpt>
      <trkpt lat="59.9525252" lon="17.723269">
        <ele>46.2806</ele>
        <time>2014-05-27T18:18:31Z</time>
      </trkpt>
      <trkpt lat="59.9525403" lon="17.7233176">
        <ele>46.7612</ele>
        <time>2014-05-27T18:18:32Z</time>
      </trkpt>
      <trkpt lat="59.9525519" lon="17.7233569">
        <ele>46.7612</ele>
        <time>2014-05-27T18:18:33Z</time>
      </trkpt>
      <trkpt lat="59.952569" lon="17.723393">
        <ele>46.7612</ele>
        <time>2014-05-27T18:18:34Z</time>
      </trkpt>
      <trkpt lat="59.9525832" lon="17.7234409">
        <ele>47.2418</ele>
        <time>2014-05-27T18:18:35Z</time>
      </trkpt>
      <trkpt lat="59.9525948" lon="17.72349">
        <ele>47.2418</ele>
        <time>2014-05-27T18:18:36Z</time>
      </trkpt>
      <trkpt lat="59.9526118" lon="17.7235377">
        <ele>48.2034</ele>
        <time>2014-05-27T18:18:37Z</time>
      </trkpt>
      <trkpt lat="59.952631" lon="17.7235821">
        <ele>48.684</ele>
        <time>2014-05-27T18:18:38Z</time>
      </trkpt>
      <trkpt lat="59.9526406" lon="17.7236377">
        <ele>49.1646</ele>
        <time>2014-05-27T18:18:39Z</time>
      </trkpt>
      <trkpt lat="59.9526523" lon="17.7236907">
        <ele>49.6453</ele>
        <time>2014-05-27T18:18:40Z</time>
      </trkpt>
      <trkpt lat="59.9526668" lon="17.723744">
        <ele>50.126</ele>
        <time>2014-05-27T18:18:41Z</time>
      </trkpt>
      <trkpt lat="59.952675" lon="17.7238029">
        <ele>50.6066</ele>
        <time>2014-05-27T18:18:42Z</time>
      </trkpt>
      <trkpt lat="59.95268" lon="17.723861">
        <ele>50.126</ele>
        <time>2014-05-27T18:18:43Z</time>
      </trkpt>
      <trkpt lat="59.9526777" lon="17.7239255">
        <ele>49.1646</ele>
        <time>2014-05-27T18:18:44Z</time>
      </trkpt>
      <trkpt lat="59.9526775" lon="17.7239869">
        <ele>49.1646</ele>
        <time>2014-05-27T18:18:45Z</time>
      </trkpt>
      <trkpt lat="59.9526709" lon="17.724045">
        <ele>48.684</ele>
        <time>2014-05-27T18:18:46Z</time>
      </trkpt>
      <trkpt lat="59.9526605" lon="17.7241088">
        <ele>48.684</ele>
        <time>2014-05-27T18:18:47Z</time>
      </trkpt>
      <trkpt lat="59.9526469" lon="17.72416">
        <ele>48.684</ele>
        <time>2014-05-27T18:18:48Z</time>
      </trkpt>
      <trkpt lat="59.952631" lon="17.7242383">
        <ele>48.2034</ele>
        <time>2014-05-27T18:18:49Z</time>
      </trkpt>
      <trkpt lat="59.9526182" lon="17.7243108">
        <ele>48.2034</ele>
        <time>2014-05-27T18:18:50Z</time>
      </trkpt>
      <trkpt lat="59.9525983" lon="17.724359">
        <ele>47.7225</ele>
        <time>2014-05-27T18:18:51Z</time>
      </trkpt>
      <trkpt lat="59.9525766" lon="17.7244056">
        <ele>47.7225</ele>
        <time>2014-05-27T18:18:52Z</time>
      </trkpt>
      <trkpt lat="59.952556" lon="17.7244449">
        <ele>47.7225</ele>
        <time>2014-05-27T18:18:53Z</time>
      </trkpt>
      <trkpt lat="59.9525344" lon="17.7244823">
        <ele>47.7225</ele>
        <time>2014-05-27T18:18:54Z</time>
      </trkpt>
      <trkpt lat="59.9525154" lon="17.7245227">
        <ele>47.7225</ele>
        <time>2014-05-27T18:18:55Z</time>
      </trkpt>
      <trkpt lat="59.9524967" lon="17.7245699">
        <ele>47.2418</ele>
        <time>2014-05-27T18:18:56Z</time>
      </trkpt>
      <trkpt lat="59.9524752" lon="17.7246222">
        <ele>46.7612</ele>
        <time>2014-05-27T18:18:57Z</time>
      </trkpt>
      <trkpt lat="59.9524537" lon="17.7246532">
        <ele>46.2806</ele>
        <time>2014-05-27T18:18:58Z</time>
      </trkpt>
      <trkpt lat="59.9524299" lon="17.7246811">
        <ele>46.2806</ele>
        <time>2014-05-27T18:18:59Z</time>
      </trkpt>
      <trkpt lat="59.9524061" lon="17.7247184">
        <ele>46.2806</ele>
        <time>2014-05-27T18:19:00Z</time>
      </trkpt>
      <trkpt lat="59.9523853" lon="17.7247568">
        <ele>46.7612</ele>
        <time>2014-05-27T18:19:01Z</time>
      </trkpt>
      <trkpt lat="59.9523632" lon="17.72478">
        <ele>46.2806</ele>
        <time>2014-05-27T18:19:02Z</time>
      </trkpt>
      <trkpt lat="59.952342" lon="17.7248149">
        <ele>46.2806</ele>
        <time>2014-05-27T18:19:03Z</time>
      </trkpt>
      <trkpt lat="59.9523236" lon="17.7248688">
        <ele>46.7612</ele>
        <time>2014-05-27T18:19:04Z</time>
      </trkpt>
      <trkpt lat="59.9523026" lon="17.7249112">
        <ele>46.2806</ele>
        <time>2014-05-27T18:19:05Z</time>
      </trkpt>
      <trkpt lat="59.9522788" lon="17.7249582">
        <ele>46.2806</ele>
        <time>2014-05-27T18:19:06Z</time>
      </trkpt>
      <trkpt lat="59.952256" lon="17.7250123">
        <ele>45.7999</ele>
        <time>2014-05-27T18:19:07Z</time>
      </trkpt>
      <trkpt lat="59.9522324" lon="17.7250619">
        <ele>45.3192</ele>
        <time>2014-05-27T18:19:08Z</time>
      </trkpt>
      <trkpt lat="59.9522095" lon="17.7250918">
        <ele>44.8386</ele>
        <time>2014-05-27T18:19:09Z</time>
      </trkpt>
      <trkpt lat="59.9521902" lon="17.7251234">
        <ele>44.358</ele>
        <time>2014-05-27T18:19:10Z</time>
      </trkpt>
      <trkpt lat="59.9521715" lon="17.7251562">
        <ele>44.358</ele>
        <time>2014-05-27T18:19:11Z</time>
      </trkpt>
      <trkpt lat="59.9521534" lon="17.7251929">
        <ele>43.8773</ele>
        <time>2014-05-27T18:19:12Z</time>
      </trkpt>
      <trkpt lat="59.9521374" lon="17.7252328">
        <ele>43.3966</ele>
        <time>2014-05-27T18:19:13Z</time>
      </trkpt>
      <trkpt lat="59.9521187" lon="17.7252674">
        <ele>43.3966</ele>
        <time>2014-05-27T18:19:14Z</time>
      </trkpt>
      <trkpt lat="59.9520995" lon="17.7252985">
        <ele>42.916</ele>
        <time>2014-05-27T18:19:15Z</time>
      </trkpt>
      <trkpt lat="59.9520787" lon="17.7253373">
        <ele>42.4354</ele>
        <time>2014-05-27T18:19:16Z</time>
      </trkpt>
      <trkpt lat="59.9520558" lon="17.7253793">
        <ele>41.9547</ele>
        <time>2014-05-27T18:19:17Z</time>
      </trkpt>
      <trkpt lat="59.9520362" lon="17.7254171">
        <ele>41.9547</ele>
        <time>2014-05-27T18:19:18Z</time>
      </trkpt>
      <trkpt lat="59.9520196" lon="17.7254354">
        <ele>42.4354</ele>
        <time>2014-05-27T18:19:19Z</time>
      </trkpt>
      <trkpt lat="59.9520005" lon="17.7254547">
        <ele>41.9547</ele>
        <time>2014-05-27T18:19:20Z</time>
      </trkpt>
      <trkpt lat="59.9519839" lon="17.7255093">
        <ele>42.916</ele>
        <time>2014-05-27T18:19:21Z</time>
      </trkpt>
      <trkpt lat="59.9519657" lon="17.7255525">
        <ele>42.4354</ele>
        <time>2014-05-27T18:19:22Z</time>
      </trkpt>
      <trkpt lat="59.9519445" lon="17.725597">
        <ele>42.4354</ele>
        <time>2014-05-27T18:19:23Z</time>
      </trkpt>
      <trkpt lat="59.9519281" lon="17.7256281">
        <ele>41.9547</ele>
        <time>2014-05-27T18:19:24Z</time>
      </trkpt>
      <trkpt lat="59.9519089" lon="17.7256675">
        <ele>41.474</ele>
        <time>2014-05-27T18:19:25Z</time>
      </trkpt>
      <trkpt lat="59.9518878" lon="17.7257006">
        <ele>41.474</ele>
        <time>2014-05-27T18:19:26Z</time>
      </trkpt>
      <trkpt lat="59.9518684" lon="17.7257394">
        <ele>41.474</ele>
        <time>2014-05-27T18:19:27Z</time>
      </trkpt>
      <trkpt lat="59.9518482" lon="17.7257736">
        <ele>40.9934</ele>
        <time>2014-05-27T18:19:28Z</time>
      </trkpt>
      <trkpt lat="59.9518291" lon="17.7258116">
        <ele>40.9934</ele>
        <time>2014-05-27T18:19:29Z</time>
      </trkpt>
      <trkpt lat="59.951811" lon="17.7258368">
        <ele>40.9934</ele>
        <time>2014-05-27T18:19:30Z</time>
      </trkpt>
      <trkpt lat="59.951788" lon="17.7258643">
        <ele>40.5128</ele>
        <time>2014-05-27T18:19:31Z</time>
      </trkpt>
      <trkpt lat="59.9517618" lon="17.7258975">
        <ele>40.5128</ele>
        <time>2014-05-27T18:19:32Z</time>
      </trkpt>
      <trkpt lat="59.9517386" lon="17.725918">
        <ele>40.5128</ele>
        <time>2014-05-27T18:19:33Z</time>
      </trkpt>
      <trkpt lat="59.951715" lon="17.7259414">
        <ele>40.5128</ele>
        <time>2014-05-27T18:19:34Z</time>
      </trkpt>
      <trkpt lat="59.9516929" lon="17.7259662">
        <ele>40.5128</ele>
        <time>2014-05-27T18:19:35Z</time>
      </trkpt>
      <trkpt lat="59.9516717" lon="17.7259969">
        <ele>41.474</ele>
        <time>2014-05-27T18:19:36Z</time>
      </trkpt>
      <trkpt lat="59.9516473" lon="17.726029">
        <ele>41.474</ele>
        <time>2014-05-27T18:19:37Z</time>
      </trkpt>
      <trkpt lat="59.9516235" lon="17.726056">
        <ele>41.474</ele>
        <time>2014-05-27T18:19:38Z</time>
      </trkpt>
      <trkpt lat="59.9516017" lon="17.7260859">
        <ele>41.474</ele>
        <time>2014-05-27T18:19:39Z</time>
      </trkpt>
      <trkpt lat="59.9515806" lon="17.7261347">
        <ele>41.474</ele>
        <time>2014-05-27T18:19:40Z</time>
      </trkpt>
      <trkpt lat="59.9515623" lon="17.7261834">
        <ele>41.474</ele>
        <time>2014-05-27T18:19:41Z</time>
      </trkpt>
      <trkpt lat="59.9515454" lon="17.7262291">
        <ele>41.474</ele>
        <time>2014-05-27T18:19:42Z</time>
      </trkpt>
      <trkpt lat="59.9515293" lon="17.7262782">
        <ele>41.9547</ele>
        <time>2014-05-27T18:19:43Z</time>
      </trkpt>
      <trkpt lat="59.9515151" lon="17.7263243">
        <ele>41.9547</ele>
        <time>2014-05-27T18:19:44Z</time>
      </trkpt>
      <trkpt lat="59.9515" lon="17.7263694">
        <ele>41.9547</ele>
        <time>2014-05-27T18:19:45Z</time>
      </trkpt>
      <trkpt lat="59.951483" lon="17.7264086">
        <ele>41.474</ele>
        <time>2014-05-27T18:19:46Z</time>
      </trkpt>
      <trkpt lat="59.9514674" lon="17.726442">
        <ele>41.474</ele>
        <time>2014-05-27T18:19:47Z</time>
      </trkpt>
      <trkpt lat="59.9514484" lon="17.7264852">
        <ele>41.474</ele>
        <time>2014-05-27T18:19:48Z</time>
      </trkpt>
      <trkpt lat="59.9514288" lon="17.7265382">
        <ele>41.474</ele>
        <time>2014-05-27T18:19:49Z</time>
      </trkpt>
      <trkpt lat="59.9514116" lon="17.7265767">
        <ele>40.9934</ele>
        <time>2014-05-27T18:19:50Z</time>
      </trkpt>
      <trkpt lat="59.9513956" lon="17.7266263">
        <ele>41.474</ele>
        <time>2014-05-27T18:19:51Z</time>
      </trkpt>
      <trkpt lat="59.9513852" lon="17.7266821">
        <ele>41.9547</ele>
        <time>2014-05-27T18:19:52Z</time>
      </trkpt>
      <trkpt lat="59.9513786" lon="17.726746">
        <ele>42.4354</ele>
        <time>2014-05-27T18:19:53Z</time>
      </trkpt>
      <trkpt lat="59.9513752" lon="17.7267971">
        <ele>41.474</ele>
        <time>2014-05-27T18:19:54Z</time>
      </trkpt>
      <trkpt lat="59.9513738" lon="17.7268439">
        <ele>40.9934</ele>
        <time>2014-05-27T18:19:55Z</time>
      </trkpt>
      <trkpt lat="59.95138" lon="17.7268874">
        <ele>40.9934</ele>
        <time>2014-05-27T18:19:56Z</time>
      </trkpt>
      <trkpt lat="59.9513878" lon="17.726936">
        <ele>40.5128</ele>
        <time>2014-05-27T18:19:57Z</time>
      </trkpt>
      <trkpt lat="59.9513923" lon="17.7269877">
        <ele>40.9934</ele>
        <time>2014-05-27T18:19:58Z</time>
      </trkpt>
      <trkpt lat="59.9513998" lon="17.7270358">
        <ele>41.474</ele>
        <time>2014-05-27T18:19:59Z</time>
      </trkpt>
      <trkpt lat="59.9514132" lon="17.7270845">
        <ele>41.474</ele>
        <time>2014-05-27T18:20:00Z</time>
      </trkpt>
      <trkpt lat="59.9514259" lon="17.7271282">
        <ele>41.474</ele>
        <time>2014-05-27T18:20:01Z</time>
      </trkpt>
      <trkpt lat="59.9514399" lon="17.7271701">
        <ele>41.9547</ele>
        <time>2014-05-27T18:20:02Z</time>
      </trkpt>
      <trkpt lat="59.9514511" lon="17.7272148">
        <ele>42.4354</ele>
        <time>2014-05-27T18:20:03Z</time>
      </trkpt>
      <trkpt lat="59.951455" lon="17.727264">
        <ele>42.4354</ele>
        <time>2014-05-27T18:20:04Z</time>
      </trkpt>
      <trkpt lat="59.9514549" lon="17.7273133">
        <ele>42.4354</ele>
        <time>2014-05-27T18:20:05Z</time>
      </trkpt>
      <trkpt lat="59.9514562" lon="17.7273602">
        <ele>42.916</ele>
        <time>2014-05-27T18:20:06Z</time>
      </trkpt>
      <trkpt lat="59.9514583" lon="17.7274138">
        <ele>43.3966</ele>
        <time>2014-05-27T18:20:07Z</time>
      </trkpt>
      <trkpt lat="59.9514593" lon="17.727469">
        <ele>42.4354</ele>
        <time>2014-05-27T18:20:08Z</time>
      </trkpt>
      <trkpt lat="59.9514597" lon="17.7275281">
        <ele>42.4354</ele>
        <time>2014-05-27T18:20:09Z</time>
      </trkpt>
      <trkpt lat="59.951456" lon="17.7275821">
        <ele>41.9547</ele>
        <time>2014-05-27T18:20:10Z</time>
      </trkpt>
      <trkpt lat="59.9514601" lon="17.7276323">
        <ele>41.9547</ele>
        <time>2014-05-27T18:20:11Z</time>
      </trkpt>
      <trkpt lat="59.951473" lon="17.7276778">
        <ele>42.4354</ele>
        <time>2014-05-27T18:20:12Z</time>
      </trkpt>
      <trkpt lat="59.9514945" lon="17.7277204">
        <ele>43.8773</ele>
        <time>2014-05-27T18:20:13Z</time>
      </trkpt>
      <trkpt lat="59.9515152" lon="17.7277633">
        <ele>44.358</ele>
        <time>2014-05-27T18:20:14Z</time>
      </trkpt>
      <trkpt lat="59.9515357" lon="17.7277985">
        <ele>44.8386</ele>
        <time>2014-05-27T18:20:15Z</time>
      </trkpt>
      <trkpt lat="59.9515611" lon="17.7278363">
        <ele>45.7999</ele>
        <time>2014-05-27T18:20:16Z</time>
      </trkpt>
      <trkpt lat="59.9515889" lon="17.727867">
        <ele>47.2418</ele>
        <time>2014-05-27T18:20:17Z</time>
      </trkpt>
      <trkpt lat="59.9516193" lon="17.7278855">
        <ele>47.7225</ele>
        <time>2014-05-27T18:20:18Z</time>
      </trkpt>
      <trkpt lat="59.9516508" lon="17.7278994">
        <ele>48.684</ele>
        <time>2014-05-27T18:20:19Z</time>
      </trkpt>
      <trkpt lat="59.9516829" lon="17.7279082">
        <ele>49.6453</ele>
        <time>2014-05-27T18:20:20Z</time>
      </trkpt>
      <trkpt lat="59.9517204" lon="17.7279048">
        <ele>50.126</ele>
        <time>2014-05-27T18:20:21Z</time>
      </trkpt>
      <trkpt lat="59.9517504" lon="17.7279071">
        <ele>49.6453</ele>
        <time>2014-05-27T18:20:22Z</time>
      </trkpt>
      <trkpt lat="59.9517764" lon="17.7279072">
        <ele>50.126</ele>
        <time>2014-05-27T18:20:23Z</time>
      </trkpt>
      <trkpt lat="59.9518067" lon="17.727896">
        <ele>50.6066</ele>
        <time>2014-05-27T18:20:24Z</time>
      </trkpt>
      <trkpt lat="59.9518419" lon="17.7278812">
        <ele>52.5292</ele>
        <time>2014-05-27T18:20:25Z</time>
      </trkpt>
      <trkpt lat="59.9518793" lon="17.7278641">
        <ele>54.9324</ele>
        <time>2014-05-27T18:20:26Z</time>
      </trkpt>
      <trkpt lat="59.9519126" lon="17.7278353">
        <ele>55.8938</ele>
        <time>2014-05-27T18:20:27Z</time>
      </trkpt>
      <trkpt lat="59.951945" lon="17.7278042">
        <ele>58.7777</ele>
        <time>2014-05-27T18:20:28Z</time>
      </trkpt>
      <trkpt lat="59.951965" lon="17.7277659">
        <ele>59.7391</ele>
        <time>2014-05-27T18:20:29Z</time>
      </trkpt>
      <trkpt lat="59.9519882" lon="17.7277198">
        <ele>60.2197</ele>
        <time>2014-05-27T18:20:30Z</time>
      </trkpt>
      <trkpt lat="59.9520149" lon="17.7276689">
        <ele>61.181</ele>
        <time>2014-05-27T18:20:31Z</time>
      </trkpt>
      <trkpt lat="59.9520282" lon="17.7276095">
        <ele>60.2197</ele>
        <time>2014-05-27T18:20:32Z</time>
      </trkpt>
      <trkpt lat="59.9520476" lon="17.727556">
        <ele>59.7391</ele>
        <time>2014-05-27T18:20:33Z</time>
      </trkpt>
      <trkpt lat="59.9520548" lon="17.727495">
        <ele>57.3358</ele>
        <time>2014-05-27T18:20:34Z</time>
      </trkpt>
      <trkpt lat="59.9520694" lon="17.7274416">
        <ele>55.8938</ele>
        <time>2014-05-27T18:20:35Z</time>
      </trkpt>
      <trkpt lat="59.9520778" lon="17.7274012">
        <ele>54.9324</ele>
        <time>2014-05-27T18:20:36Z</time>
      </trkpt>
      <trkpt lat="59.9520814" lon="17.7273604">
        <ele>53.9712</ele>
        <time>2014-05-27T18:20:37Z</time>
      </trkpt>
      <trkpt lat="59.9520767" lon="17.7273038">
        <ele>52.5292</ele>
        <time>2014-05-27T18:20:38Z</time>
      </trkpt>
      <trkpt lat="59.9520727" lon="17.7272492">
        <ele>50.126</ele>
        <time>2014-05-27T18:20:39Z</time>
      </trkpt>
      <trkpt lat="59.9520708" lon="17.7271878">
        <ele>48.2034</ele>
        <time>2014-05-27T18:20:40Z</time>
      </trkpt>
      <trkpt lat="59.9520643" lon="17.7271235">
        <ele>46.2806</ele>
        <time>2014-05-27T18:20:41Z</time>
      </trkpt>
      <trkpt lat="59.9520695" lon="17.7270641">
        <ele>45.3192</ele>
        <time>2014-05-27T18:20:42Z</time>
      </trkpt>
      <trkpt lat="59.952091" lon="17.7270157">
        <ele>45.3192</ele>
        <time>2014-05-27T18:20:43Z</time>
      </trkpt>
      <trkpt lat="59.952109" lon="17.7269659">
        <ele>44.8386</ele>
        <time>2014-05-27T18:20:44Z</time>
      </trkpt>
      <trkpt lat="59.9521226" lon="17.7269148">
        <ele>43.8773</ele>
        <time>2014-05-27T18:20:45Z</time>
      </trkpt>
      <trkpt lat="59.9521306" lon="17.7268589">
        <ele>42.916</ele>
        <time>2014-05-27T18:20:46Z</time>
      </trkpt>
      <trkpt lat="59.9521415" lon="17.7268059">
        <ele>42.4354</ele>
        <time>2014-05-27T18:20:47Z</time>
      </trkpt>
      <trkpt lat="59.9521539" lon="17.7267478">
        <ele>40.9934</ele>
        <time>2014-05-27T18:20:48Z</time>
      </trkpt>
      <trkpt lat="59.9521662" lon="17.7266986">
        <ele>40.5128</ele>
        <time>2014-05-27T18:20:49Z</time>
      </trkpt>
      <trkpt lat="59.9521721" lon="17.7266552">
        <ele>39.5513</ele>
        <time>2014-05-27T18:20:50Z</time>
      </trkpt>
      <trkpt lat="59.9521798" lon="17.7266077">
        <ele>39.0707</ele>
        <time>2014-05-27T18:20:51Z</time>
      </trkpt>
      <trkpt lat="59.9521876" lon="17.7265521">
        <ele>38.1094</ele>
        <time>2014-05-27T18:20:52Z</time>
      </trkpt>
      <trkpt lat="59.952199" lon="17.7265028">
        <ele>36.6675</ele>
        <time>2014-05-27T18:20:53Z</time>
      </trkpt>
      <trkpt lat="59.9522055" lon="17.7264611">
        <ele>35.7061</ele>
        <time>2014-05-27T18:20:54Z</time>
      </trkpt>
      <trkpt lat="59.9522117" lon="17.726417">
        <ele>35.2255</ele>
        <time>2014-05-27T18:20:55Z</time>
      </trkpt>
      <trkpt lat="59.9522201" lon="17.7263616">
        <ele>34.7449</ele>
        <time>2014-05-27T18:20:56Z</time>
      </trkpt>
      <trkpt lat="59.9522384" lon="17.7263201">
        <ele>34.7449</ele>
        <time>2014-05-27T18:20:57Z</time>
      </trkpt>
      <trkpt lat="59.9522539" lon="17.7262927">
        <ele>35.2255</ele>
        <time>2014-05-27T18:20:58Z</time>
      </trkpt>
      <trkpt lat="59.9522643" lon="17.7262575">
        <ele>35.2255</ele>
        <time>2014-05-27T18:20:59Z</time>
      </trkpt>
      <trkpt lat="59.9522741" lon="17.7262106">
        <ele>34.2642</ele>
        <time>2014-05-27T18:21:00Z</time>
      </trkpt>
      <trkpt lat="59.9522882" lon="17.7261663">
        <ele>33.7834</ele>
        <time>2014-05-27T18:21:01Z</time>
      </trkpt>
      <trkpt lat="59.95231" lon="17.7261319">
        <ele>34.2642</ele>
        <time>2014-05-27T18:21:02Z</time>
      </trkpt>
      <trkpt lat="59.952333" lon="17.7260994">
        <ele>34.7449</ele>
        <time>2014-05-27T18:21:03Z</time>
      </trkpt>
      <trkpt lat="59.9523591" lon="17.7260632">
        <ele>35.2255</ele>
        <time>2014-05-27T18:21:04Z</time>
      </trkpt>
      <trkpt lat="59.9523853" lon="17.7260187">
        <ele>35.7061</ele>
        <time>2014-05-27T18:21:05Z</time>
      </trkpt>
      <trkpt lat="59.9524122" lon="17.7259767">
        <ele>35.7061</ele>
        <time>2014-05-27T18:21:06Z</time>
      </trkpt>
      <trkpt lat="59.9524424" lon="17.7259389">
        <ele>36.1868</ele>
        <time>2014-05-27T18:21:07Z</time>
      </trkpt>
      <trkpt lat="59.9524668" lon="17.7259024">
        <ele>37.1481</ele>
        <time>2014-05-27T18:21:08Z</time>
      </trkpt>
      <trkpt lat="59.9524901" lon="17.725872">
        <ele>37.6287</ele>
        <time>2014-05-27T18:21:09Z</time>
      </trkpt>
      <trkpt lat="59.9525139" lon="17.7258363">
        <ele>39.5513</ele>
        <time>2014-05-27T18:21:10Z</time>
      </trkpt>
      <trkpt lat="59.9525415" lon="17.7257988">
        <ele>41.474</ele>
        <time>2014-05-27T18:21:11Z</time>
      </trkpt>
      <trkpt lat="59.9525668" lon="17.7257576">
        <ele>43.8773</ele>
        <time>2014-05-27T18:21:12Z</time>
      </trkpt>
      <trkpt lat="59.9525906" lon="17.7257171">
        <ele>45.3192</ele>
        <time>2014-05-27T18:21:13Z</time>
      </trkpt>
      <trkpt lat="59.9526218" lon="17.7256762">
        <ele>46.7612</ele>
        <time>2014-05-27T18:21:14Z</time>
      </trkpt>
      <trkpt lat="59.9526656" lon="17.7256373">
        <ele>49.1646</ele>
        <time>2014-05-27T18:21:15Z</time>
      </trkpt>
      <trkpt lat="59.9527124" lon="17.7256025">
        <ele>52.0486</ele>
        <time>2014-05-27T18:21:16Z</time>
      </trkpt>
      <trkpt lat="59.9527396" lon="17.7255696">
        <ele>52.0486</ele>
        <time>2014-05-27T18:21:17Z</time>
      </trkpt>
      <trkpt lat="59.9527492" lon="17.7255248">
        <ele>51.0872</ele>
        <time>2014-05-27T18:21:18Z</time>
      </trkpt>
      <trkpt lat="59.9527788" lon="17.725487">
        <ele>52.5292</ele>
        <time>2014-05-27T18:21:19Z</time>
      </trkpt>
      <trkpt lat="59.952802" lon="17.725451">
        <ele>52.5292</ele>
        <time>2014-05-27T18:21:20Z</time>
      </trkpt>
      <trkpt lat="59.9528162" lon="17.7254141">
        <ele>51.5679</ele>
        <time>2014-05-27T18:21:21Z</time>
      </trkpt>
      <trkpt lat="59.9528253" lon="17.7253763">
        <ele>49.6453</ele>
        <time>2014-05-27T18:21:22Z</time>
      </trkpt>
      <trkpt lat="59.9528387" lon="17.7253409">
        <ele>48.2034</ele>
        <time>2014-05-27T18:21:23Z</time>
      </trkpt>
      <trkpt lat="59.9528553" lon="17.7253021">
        <ele>47.7225</ele>
        <time>2014-05-27T18:21:24Z</time>
      </trkpt>
      <trkpt lat="59.9528708" lon="17.7252597">
        <ele>47.2418</ele>
        <time>2014-05-27T18:21:25Z</time>
      </trkpt>
      <trkpt lat="59.9528834" lon="17.7252311">
        <ele>45.7999</ele>
        <time>2014-05-27T18:21:26Z</time>
      </trkpt>
      <trkpt lat="59.9528962" lon="17.7251948">
        <ele>44.8386</ele>
        <time>2014-05-27T18:21:27Z</time>
      </trkpt>
      <trkpt lat="59.9529092" lon="17.7251581">
        <ele>43.8773</ele>
        <time>2014-05-27T18:21:28Z</time>
      </trkpt>
      <trkpt lat="59.9529207" lon="17.7251218">
        <ele>43.8773</ele>
        <time>2014-05-27T18:21:29Z</time>
      </trkpt>
      <trkpt lat="59.9529333" lon="17.725078">
        <ele>42.916</ele>
        <time>2014-05-27T18:21:30Z</time>
      </trkpt>
      <trkpt lat="59.952948" lon="17.7250401">
        <ele>41.9547</ele>
        <time>2014-05-27T18:21:31Z</time>
      </trkpt>
      <trkpt lat="59.9529665" lon="17.7250115">
        <ele>42.4354</ele>
        <time>2014-05-27T18:21:32Z</time>
      </trkpt>
      <trkpt lat="59.9529906" lon="17.7249754">
        <ele>42.916</ele>
        <time>2014-05-27T18:21:33Z</time>
      </trkpt>
      <trkpt lat="59.9530149" lon="17.7249293">
        <ele>42.4354</ele>
        <time>2014-05-27T18:21:34Z</time>
      </trkpt>
      <trkpt lat="59.9530382" lon="17.7248882">
        <ele>42.4354</ele>
        <time>2014-05-27T18:21:35Z</time>
      </trkpt>
      <trkpt lat="59.9530614" lon="17.7248548">
        <ele>42.4354</ele>
        <time>2014-05-27T18:21:36Z</time>
      </trkpt>
      <trkpt lat="59.9530724" lon="17.724822">
        <ele>42.4354</ele>
        <time>2014-05-27T18:21:37Z</time>
      </trkpt>
      <trkpt lat="59.953079" lon="17.7247931">
        <ele>40.9934</ele>
        <time>2014-05-27T18:21:38Z</time>
      </trkpt>
      <trkpt lat="59.9530896" lon="17.7247532">
        <ele>40.9934</ele>
        <time>2014-05-27T18:21:39Z</time>
      </trkpt>
      <trkpt lat="59.9531096" lon="17.7247075">
        <ele>41.474</ele>
        <time>2014-05-27T18:21:40Z</time>
      </trkpt>
      <trkpt lat="59.9531267" lon="17.724659">
        <ele>41.474</ele>
        <time>2014-05-27T18:21:41Z</time>
      </trkpt>
      <trkpt lat="59.95315" lon="17.7246121">
        <ele>41.474</ele>
        <time>2014-05-27T18:21:42Z</time>
      </trkpt>
      <trkpt lat="59.9531723" lon="17.7245636">
        <ele>41.474</ele>
        <time>2014-05-27T18:21:43Z</time>
      </trkpt>
      <trkpt lat="59.9531931" lon="17.7245164">
        <ele>41.9547</ele>
        <time>2014-05-27T18:21:44Z</time>
      </trkpt>
      <trkpt lat="59.9532188" lon="17.7244735">
        <ele>44.358</ele>
        <time>2014-05-27T18:21:45Z</time>
      </trkpt>
      <trkpt lat="59.9532379" lon="17.7244383">
        <ele>46.2806</ele>
        <time>2014-05-27T18:21:46Z</time>
      </trkpt>
      <trkpt lat="59.9532685" lon="17.7244124">
        <ele>48.684</ele>
        <time>2014-05-27T18:21:47Z</time>
      </trkpt>
      <trkpt lat="59.953292" lon="17.7243787">
        <ele>50.6066</ele>
        <time>2014-05-27T18:21:48Z</time>
      </trkpt>
      <trkpt lat="59.953323" lon="17.7243513">
        <ele>52.0486</ele>
        <time>2014-05-27T18:21:49Z</time>
      </trkpt>
      <trkpt lat="59.9533452" lon="17.7243277">
        <ele>53.4905</ele>
        <time>2014-05-27T18:21:50Z</time>
      </trkpt>
      <trkpt lat="59.9533557" lon="17.7242984">
        <ele>54.4518</ele>
        <time>2014-05-27T18:21:51Z</time>
      </trkpt>
      <trkpt lat="59.953371" lon="17.7242642">
        <ele>55.4131</ele>
        <time>2014-05-27T18:21:52Z</time>
      </trkpt>
      <trkpt lat="59.9533913" lon="17.7242289">
        <ele>56.8551</ele>
        <time>2014-05-27T18:21:53Z</time>
      </trkpt>
      <trkpt lat="59.9534197" lon="17.7241951">
        <ele>58.7777</ele>
        <time>2014-05-27T18:21:54Z</time>
      </trkpt>
      <trkpt lat="59.9534491" lon="17.724159">
        <ele>60.7003</ele>
        <time>2014-05-27T18:21:55Z</time>
      </trkpt>
      <trkpt lat="59.95348" lon="17.7241278">
        <ele>62.6229</ele>
        <time>2014-05-27T18:21:56Z</time>
      </trkpt>
      <trkpt lat="59.9534925" lon="17.7240873">
        <ele>62.6229</ele>
        <time>2014-05-27T18:21:57Z</time>
      </trkpt>
      <trkpt lat="59.9535106" lon="17.7240394">
        <ele>63.5844</ele>
        <time>2014-05-27T18:21:58Z</time>
      </trkpt>
      <trkpt lat="59.953528" lon="17.7239932">
        <ele>64.0651</ele>
        <time>2014-05-27T18:21:59Z</time>
      </trkpt>
      <trkpt lat="59.9535443" lon="17.7239586">
        <ele>64.0651</ele>
        <time>2014-05-27T18:22:00Z</time>
      </trkpt>
      <trkpt lat="59.9535592" lon="17.7239138">
        <ele>63.5844</ele>
        <time>2014-05-27T18:22:01Z</time>
      </trkpt>
      <trkpt lat="59.9535796" lon="17.7238709">
        <ele>62.1423</ele>
        <time>2014-05-27T18:22:02Z</time>
      </trkpt>
      <trkpt lat="59.9536033" lon="17.7238263">
        <ele>61.6617</ele>
        <time>2014-05-27T18:22:03Z</time>
      </trkpt>
      <trkpt lat="59.9536278" lon="17.7237866">
        <ele>62.1423</ele>
        <time>2014-05-27T18:22:04Z</time>
      </trkpt>
      <trkpt lat="59.9536445" lon="17.7237493">
        <ele>61.6617</ele>
        <time>2014-05-27T18:22:05Z</time>
      </trkpt>
      <trkpt lat="59.9536624" lon="17.7237093">
        <ele>61.6617</ele>
        <time>2014-05-27T18:22:06Z</time>
      </trkpt>
      <trkpt lat="59.9536753" lon="17.7236741">
        <ele>60.7003</ele>
        <time>2014-05-27T18:22:07Z</time>
      </trkpt>
      <trkpt lat="59.9536853" lon="17.7236325">
        <ele>59.2584</ele>
        <time>2014-05-27T18:22:08Z</time>
      </trkpt>
      <trkpt lat="59.953695" lon="17.7235917">
        <ele>57.8165</ele>
        <time>2014-05-27T18:22:09Z</time>
      </trkpt>
      <trkpt lat="59.9537194" lon="17.7235674">
        <ele>56.8551</ele>
        <time>2014-05-27T18:22:10Z</time>
      </trkpt>
      <trkpt lat="59.9537481" lon="17.7235404">
        <ele>56.8551</ele>
        <time>2014-05-27T18:22:11Z</time>
      </trkpt>
      <trkpt lat="59.953769" lon="17.7235061">
        <ele>56.8551</ele>
        <time>2014-05-27T18:22:12Z</time>
      </trkpt>
      <trkpt lat="59.9537934" lon="17.7234816">
        <ele>58.2971</ele>
        <time>2014-05-27T18:22:13Z</time>
      </trkpt>
      <trkpt lat="59.9538053" lon="17.7234555">
        <ele>58.2971</ele>
        <time>2014-05-27T18:22:14Z</time>
      </trkpt>
      <trkpt lat="59.9538292" lon="17.7234301">
        <ele>59.7391</ele>
        <time>2014-05-27T18:22:15Z</time>
      </trkpt>
      <trkpt lat="59.9538557" lon="17.7233986">
        <ele>61.181</ele>
        <time>2014-05-27T18:22:16Z</time>
      </trkpt>
      <trkpt lat="59.9538883" lon="17.7233757">
        <ele>63.1036</ele>
        <time>2014-05-27T18:22:17Z</time>
      </trkpt>
      <trkpt lat="59.9539156" lon="17.7233574">
        <ele>65.0264</ele>
        <time>2014-05-27T18:22:18Z</time>
      </trkpt>
      <trkpt lat="59.9539246" lon="17.7233373">
        <ele>64.0651</ele>
        <time>2014-05-27T18:22:19Z</time>
      </trkpt>
      <trkpt lat="59.9539491" lon="17.7233249">
        <ele>66.4683</ele>
        <time>2014-05-27T18:22:20Z</time>
      </trkpt>
      <trkpt lat="59.9539763" lon="17.7233047">
        <ele>68.8716</ele>
        <time>2014-05-27T18:22:21Z</time>
      </trkpt>
      <trkpt lat="59.9540033" lon="17.7232771">
        <ele>70.7942</ele>
        <time>2014-05-27T18:22:22Z</time>
      </trkpt>
      <trkpt lat="59.9540338" lon="17.7232479">
        <ele>72.2362</ele>
        <time>2014-05-27T18:22:23Z</time>
      </trkpt>
      <trkpt lat="59.9540672" lon="17.7232162">
        <ele>74.1588</ele>
        <time>2014-05-27T18:22:24Z</time>
      </trkpt>
      <trkpt lat="59.9540996" lon="17.7231945">
        <ele>75.1202</ele>
        <time>2014-05-27T18:22:25Z</time>
      </trkpt>
      <trkpt lat="59.9541275" lon="17.7231715">
        <ele>76.0814</ele>
        <time>2014-05-27T18:22:26Z</time>
      </trkpt>
      <trkpt lat="59.9541586" lon="17.7231524">
        <ele>76.0814</ele>
        <time>2014-05-27T18:22:27Z</time>
      </trkpt>
      <trkpt lat="59.9542068" lon="17.7231449">
        <ele>79.9266</ele>
        <time>2014-05-27T18:22:28Z</time>
      </trkpt>
      <trkpt lat="59.954242" lon="17.7231391">
        <ele>80.4075</ele>
        <time>2014-05-27T18:22:29Z</time>
      </trkpt>
      <trkpt lat="59.9542748" lon="17.723139">
        <ele>80.4075</ele>
        <time>2014-05-27T18:22:30Z</time>
      </trkpt>
      <trkpt lat="59.9543188" lon="17.7231467">
        <ele>80.8882</ele>
        <time>2014-05-27T18:22:31Z</time>
      </trkpt>
      <trkpt lat="59.9543714" lon="17.7231487">
        <ele>83.772</ele>
        <time>2014-05-27T18:22:32Z</time>
      </trkpt>
      <trkpt lat="59.954406" lon="17.7231478">
        <ele>84.2527</ele>
        <time>2014-05-27T18:22:33Z</time>
      </trkpt>
      <trkpt lat="59.9544456" lon="17.723157">
        <ele>87.1366</ele>
        <time>2014-05-27T18:22:34Z</time>
      </trkpt>
      <trkpt lat="59.9544903" lon="17.7231692">
        <ele>89.0593</ele>
        <time>2014-05-27T18:22:35Z</time>
      </trkpt>
      <trkpt lat="59.9545293" lon="17.7231894">
        <ele>90.5013</ele>
        <time>2014-05-27T18:22:36Z</time>
      </trkpt>
      <trkpt lat="59.9545599" lon="17.7232018">
        <ele>90.5013</ele>
        <time>2014-05-27T18:22:37Z</time>
      </trkpt>
      <trkpt lat="59.9545762" lon="17.7232085">
        <ele>87.6172</ele>
        <time>2014-05-27T18:22:38Z</time>
      </trkpt>
      <trkpt lat="59.9545942" lon="17.7232256">
        <ele>86.1753</ele>
        <time>2014-05-27T18:22:39Z</time>
      </trkpt>
      <trkpt lat="59.9546098" lon="17.7232419">
        <ele>83.772</ele>
        <time>2014-05-27T18:22:40Z</time>
      </trkpt>
      <trkpt lat="59.9546282" lon="17.7232603">
        <ele>83.2914</ele>
        <time>2014-05-27T18:22:41Z</time>
      </trkpt>
      <trkpt lat="59.9546378" lon="17.7232789">
        <ele>80.8882</ele>
        <time>2014-05-27T18:22:42Z</time>
      </trkpt>
      <trkpt lat="59.9546523" lon="17.7233">
        <ele>78.9655</ele>
        <time>2014-05-27T18:22:43Z</time>
      </trkpt>
      <trkpt lat="59.9546752" lon="17.7233153">
        <ele>77.0428</ele>
        <time>2014-05-27T18:22:44Z</time>
      </trkpt>
      <trkpt lat="59.9547052" lon="17.7233271">
        <ele>77.5234</ele>
        <time>2014-05-27T18:22:45Z</time>
      </trkpt>
      <trkpt lat="59.9547254" lon="17.7233483">
        <ele>76.5621</ele>
        <time>2014-05-27T18:22:46Z</time>
      </trkpt>
      <trkpt lat="59.9547466" lon="17.7233668">
        <ele>76.0814</ele>
        <time>2014-05-27T18:22:47Z</time>
      </trkpt>
      <trkpt lat="59.9547589" lon="17.7233837">
        <ele>74.1588</ele>
        <time>2014-05-27T18:22:48Z</time>
      </trkpt>
      <trkpt lat="59.9547698" lon="17.7234082">
        <ele>71.7555</ele>
        <time>2014-05-27T18:22:49Z</time>
      </trkpt>
      <trkpt lat="59.9547906" lon="17.7234272">
        <ele>70.3135</ele>
        <time>2014-05-27T18:22:50Z</time>
      </trkpt>
      <trkpt lat="59.9548129" lon="17.7234479">
        <ele>69.3523</ele>
        <time>2014-05-27T18:22:51Z</time>
      </trkpt>
      <trkpt lat="59.9548398" lon="17.7234664">
        <ele>68.8716</ele>
        <time>2014-05-27T18:22:52Z</time>
      </trkpt>
      <trkpt lat="59.9548595" lon="17.7234876">
        <ele>68.3909</ele>
        <time>2014-05-27T18:22:53Z</time>
      </trkpt>
      <trkpt lat="59.9548798" lon="17.7235063">
        <ele>68.3909</ele>
        <time>2014-05-27T18:22:54Z</time>
      </trkpt>
      <trkpt lat="59.9549045" lon="17.7235261">
        <ele>67.9103</ele>
        <time>2014-05-27T18:22:55Z</time>
      </trkpt>
      <trkpt lat="59.9549336" lon="17.7235489">
        <ele>68.3909</ele>
        <time>2014-05-27T18:22:56Z</time>
      </trkpt>
      <trkpt lat="59.954961" lon="17.7235709">
        <ele>69.8329</ele>
        <time>2014-05-27T18:22:57Z</time>
      </trkpt>
      <trkpt lat="59.954991" lon="17.7235882">
        <ele>71.2749</ele>
        <time>2014-05-27T18:22:58Z</time>
      </trkpt>
      <trkpt lat="59.9550133" lon="17.7236032">
        <ele>70.7942</ele>
        <time>2014-05-27T18:22:59Z</time>
      </trkpt>
      <trkpt lat="59.9550345" lon="17.7236098">
        <ele>71.2749</ele>
        <time>2014-05-27T18:23:00Z</time>
      </trkpt>
      <trkpt lat="59.9550497" lon="17.7236196">
        <ele>71.7555</ele>
        <time>2014-05-27T18:23:01Z</time>
      </trkpt>
      <trkpt lat="59.955066" lon="17.7236264">
        <ele>72.2362</ele>
        <time>2014-05-27T18:23:02Z</time>
      </trkpt>
      <trkpt lat="59.9550953" lon="17.7236337">
        <ele>74.1588</ele>
        <time>2014-05-27T18:23:03Z</time>
      </trkpt>
      <trkpt lat="59.9551175" lon="17.7236295">
        <ele>74.1588</ele>
        <time>2014-05-27T18:23:04Z</time>
      </trkpt>
      <trkpt lat="59.955129" lon="17.723611">
        <ele>72.7169</ele>
        <time>2014-05-27T18:23:05Z</time>
      </trkpt>
      <trkpt lat="59.9551491" lon="17.7235898">
        <ele>73.1976</ele>
        <time>2014-05-27T18:23:06Z</time>
      </trkpt>
      <trkpt lat="59.9551654" lon="17.7235633">
        <ele>72.7169</ele>
        <time>2014-05-27T18:23:07Z</time>
      </trkpt>
      <trkpt lat="59.9551927" lon="17.7235374">
        <ele>73.6782</ele>
        <time>2014-05-27T18:23:08Z</time>
      </trkpt>
      <trkpt lat="59.9552198" lon="17.723511">
        <ele>73.1976</ele>
        <time>2014-05-27T18:23:09Z</time>
      </trkpt>
      <trkpt lat="59.9552589" lon="17.7234885">
        <ele>76.5621</ele>
        <time>2014-05-27T18:23:10Z</time>
      </trkpt>
      <trkpt lat="59.9553007" lon="17.7234699">
        <ele>79.446</ele>
        <time>2014-05-27T18:23:11Z</time>
      </trkpt>
      <trkpt lat="59.9553421" lon="17.7234494">
        <ele>80.8882</ele>
        <time>2014-05-27T18:23:12Z</time>
      </trkpt>
      <trkpt lat="59.9553925" lon="17.7234222">
        <ele>83.2914</ele>
        <time>2014-05-27T18:23:13Z</time>
      </trkpt>
      <trkpt lat="59.9554293" lon="17.7234012">
        <ele>83.772</ele>
        <time>2014-05-27T18:23:14Z</time>
      </trkpt>
      <trkpt lat="59.9554503" lon="17.7233825">
        <ele>81.3688</ele>
        <time>2014-05-27T18:23:15Z</time>
      </trkpt>
      <trkpt lat="59.9554759" lon="17.7233769">
        <ele>81.8494</ele>
        <time>2014-05-27T18:23:16Z</time>
      </trkpt>
      <trkpt lat="59.9555153" lon="17.7233732">
        <ele>83.772</ele>
        <time>2014-05-27T18:23:17Z</time>
      </trkpt>
      <trkpt lat="59.9555391" lon="17.7233763">
        <ele>82.8108</ele>
        <time>2014-05-27T18:23:18Z</time>
      </trkpt>
      <trkpt lat="59.9555738" lon="17.7233788">
        <ele>82.8108</ele>
        <time>2014-05-27T18:23:19Z</time>
      </trkpt>
      <trkpt lat="59.9556032" lon="17.7233841">
        <ele>82.8108</ele>
        <time>2014-05-27T18:23:20Z</time>
      </trkpt>
      <trkpt lat="59.9556225" lon="17.7234001">
        <ele>82.3301</ele>
        <time>2014-05-27T18:23:21Z</time>
      </trkpt>
      <trkpt lat="59.9556442" lon="17.7234177">
        <ele>81.8494</ele>
        <time>2014-05-27T18:23:22Z</time>
      </trkpt>
      <trkpt lat="59.9556565" lon="17.7234379">
        <ele>79.9266</ele>
        <time>2014-05-27T18:23:23Z</time>
      </trkpt>
      <trkpt lat="59.9556785" lon="17.7234474">
        <ele>78.4847</ele>
        <time>2014-05-27T18:23:24Z</time>
      </trkpt>
      <trkpt lat="59.9556997" lon="17.7234598">
        <ele>77.0428</ele>
        <time>2014-05-27T18:23:25Z</time>
      </trkpt>
      <trkpt lat="59.9557163" lon="17.7234829">
        <ele>74.6395</ele>
        <time>2014-05-27T18:23:26Z</time>
      </trkpt>
      <trkpt lat="59.9557401" lon="17.7235098">
        <ele>74.6395</ele>
        <time>2014-05-27T18:23:27Z</time>
      </trkpt>
      <trkpt lat="59.955753" lon="17.7235389">
        <ele>73.6782</ele>
        <time>2014-05-27T18:23:28Z</time>
      </trkpt>
      <trkpt lat="59.9557645" lon="17.7235672">
        <ele>72.2362</ele>
        <time>2014-05-27T18:23:29Z</time>
      </trkpt>
      <trkpt lat="59.9557762" lon="17.7235963">
        <ele>69.8329</ele>
        <time>2014-05-27T18:23:30Z</time>
      </trkpt>
      <trkpt lat="59.955791" lon="17.7236297">
        <ele>68.3909</ele>
        <time>2014-05-27T18:23:31Z</time>
      </trkpt>
      <trkpt lat="59.9558057" lon="17.7236538">
        <ele>66.4683</ele>
        <time>2014-05-27T18:23:32Z</time>
      </trkpt>
      <trkpt lat="59.9558283" lon="17.7236685">
        <ele>65.5071</ele>
        <time>2014-05-27T18:23:33Z</time>
      </trkpt>
      <trkpt lat="59.9558559" lon="17.7236758">
        <ele>64.5457</ele>
        <time>2014-05-27T18:23:34Z</time>
      </trkpt>
      <trkpt lat="59.9558851" lon="17.7236881">
        <ele>65.0264</ele>
        <time>2014-05-27T18:23:35Z</time>
      </trkpt>
      <trkpt lat="59.9559115" lon="17.7236969">
        <ele>65.5071</ele>
        <time>2014-05-27T18:23:36Z</time>
      </trkpt>
      <trkpt lat="59.9559269" lon="17.7236914">
        <ele>65.0264</ele>
        <time>2014-05-27T18:23:37Z</time>
      </trkpt>
      <trkpt lat="59.9559385" lon="17.7236477">
        <ele>64.0651</ele>
        <time>2014-05-27T18:23:38Z</time>
      </trkpt>
      <trkpt lat="59.9559549" lon="17.7236031">
        <ele>63.5844</ele>
        <time>2014-05-27T18:23:39Z</time>
      </trkpt>
      <trkpt lat="59.9559758" lon="17.723556">
        <ele>62.1423</ele>
        <time>2014-05-27T18:23:40Z</time>
      </trkpt>
      <trkpt lat="59.9559999" lon="17.723502">
        <ele>61.6617</ele>
        <time>2014-05-27T18:23:41Z</time>
      </trkpt>
      <trkpt lat="59.9560208" lon="17.7234478">
        <ele>62.1423</ele>
        <time>2014-05-27T18:23:42Z</time>
      </trkpt>
      <trkpt lat="59.9560399" lon="17.7233875">
        <ele>60.7003</ele>
        <time>2014-05-27T18:23:43Z</time>
      </trkpt>
      <trkpt lat="59.9560483" lon="17.7233282">
        <ele>59.2584</ele>
        <time>2014-05-27T18:23:44Z</time>
      </trkpt>
      <trkpt lat="59.9560535" lon="17.7232767">
        <ele>56.3745</ele>
        <time>2014-05-27T18:23:45Z</time>
      </trkpt>
      <trkpt lat="59.9560696" lon="17.7232261">
        <ele>53.0098</ele>
        <time>2014-05-27T18:23:46Z</time>
      </trkpt>
      <trkpt lat="59.9560771" lon="17.7231679">
        <ele>50.6066</ele>
        <time>2014-05-27T18:23:47Z</time>
      </trkpt>
      <trkpt lat="59.9560732" lon="17.723106">
        <ele>49.1646</ele>
        <time>2014-05-27T18:23:48Z</time>
      </trkpt>
      <trkpt lat="59.9560881" lon="17.7230578">
        <ele>49.1646</ele>
        <time>2014-05-27T18:23:49Z</time>
      </trkpt>
      <trkpt lat="59.9560954" lon="17.7230037">
        <ele>48.684</ele>
        <time>2014-05-27T18:23:50Z</time>
      </trkpt>
      <trkpt lat="59.9561032" lon="17.7229584">
        <ele>48.2034</ele>
        <time>2014-05-27T18:23:51Z</time>
      </trkpt>
      <trkpt lat="59.9561062" lon="17.7229099">
        <ele>47.7225</ele>
        <time>2014-05-27T18:23:52Z</time>
      </trkpt>
      <trkpt lat="59.9561006" lon="17.7228489">
        <ele>47.2418</ele>
        <time>2014-05-27T18:23:53Z</time>
      </trkpt>
      <trkpt lat="59.9560938" lon="17.7228042">
        <ele>48.684</ele>
        <time>2014-05-27T18:23:54Z</time>
      </trkpt>
      <trkpt lat="59.9560751" lon="17.7227524">
        <ele>49.6453</ele>
        <time>2014-05-27T18:23:55Z</time>
      </trkpt>
      <trkpt lat="59.9560545" lon="17.7227025">
        <ele>48.684</ele>
        <time>2014-05-27T18:23:56Z</time>
      </trkpt>
      <trkpt lat="59.9560412" lon="17.7226547">
        <ele>48.684</ele>
        <time>2014-05-27T18:23:57Z</time>
      </trkpt>
      <trkpt lat="59.9560379" lon="17.7226044">
        <ele>49.1646</ele>
        <time>2014-05-27T18:23:58Z</time>
      </trkpt>
      <trkpt lat="59.9560328" lon="17.7225516">
        <ele>48.2034</ele>
        <time>2014-05-27T18:23:59Z</time>
      </trkpt>
      <trkpt lat="59.9560255" lon="17.7224997">
        <ele>46.7612</ele>
        <time>2014-05-27T18:24:00Z</time>
      </trkpt>
      <trkpt lat="59.9560224" lon="17.7224517">
        <ele>45.3192</ele>
        <time>2014-05-27T18:24:01Z</time>
      </trkpt>
      <trkpt lat="59.9560189" lon="17.7224084">
        <ele>44.8386</ele>
        <time>2014-05-27T18:24:02Z</time>
      </trkpt>
      <trkpt lat="59.9560117" lon="17.722362">
        <ele>44.358</ele>
        <time>2014-05-27T18:24:03Z</time>
      </trkpt>
      <trkpt lat="59.9560048" lon="17.722303">
        <ele>43.3966</ele>
        <time>2014-05-27T18:24:04Z</time>
      </trkpt>
      <trkpt lat="59.9559984" lon="17.7222428">
        <ele>44.358</ele>
        <time>2014-05-27T18:24:05Z</time>
      </trkpt>
      <trkpt lat="59.9559897" lon="17.7221863">
        <ele>43.8773</ele>
        <time>2014-05-27T18:24:06Z</time>
      </trkpt>
      <trkpt lat="59.9559832" lon="17.7221372">
        <ele>42.916</ele>
        <time>2014-05-27T18:24:07Z</time>
      </trkpt>
      <trkpt lat="59.9559768" lon="17.7220849">
        <ele>42.4354</ele>
        <time>2014-05-27T18:24:08Z</time>
      </trkpt>
      <trkpt lat="59.9559794" lon="17.7220321">
        <ele>42.916</ele>
        <time>2014-05-27T18:24:09Z</time>
      </trkpt>
      <trkpt lat="59.9559779" lon="17.7219709">
        <ele>42.4354</ele>
        <time>2014-05-27T18:24:10Z</time>
      </trkpt>
      <trkpt lat="59.955982" lon="17.7219068">
        <ele>42.4354</ele>
        <time>2014-05-27T18:24:11Z</time>
      </trkpt>
      <trkpt lat="59.9559862" lon="17.7218495">
        <ele>41.474</ele>
        <time>2014-05-27T18:24:12Z</time>
      </trkpt>
      <trkpt lat="59.955995" lon="17.7217946">
        <ele>42.916</ele>
        <time>2014-05-27T18:24:13Z</time>
      </trkpt>
      <trkpt lat="59.9560043" lon="17.7217421">
        <ele>42.916</ele>
        <time>2014-05-27T18:24:14Z</time>
      </trkpt>
      <trkpt lat="59.9560088" lon="17.7216882">
        <ele>42.4354</ele>
        <time>2014-05-27T18:24:15Z</time>
      </trkpt>
      <trkpt lat="59.9560244" lon="17.7216428">
        <ele>44.358</ele>
        <time>2014-05-27T18:24:16Z</time>
      </trkpt>
      <trkpt lat="59.9560291" lon="17.7216027">
        <ele>45.3192</ele>
        <time>2014-05-27T18:24:17Z</time>
      </trkpt>
      <trkpt lat="59.9560349" lon="17.7215615">
        <ele>44.8386</ele>
        <time>2014-05-27T18:24:18Z</time>
      </trkpt>
      <trkpt lat="59.9560502" lon="17.721516">
        <ele>47.2418</ele>
        <time>2014-05-27T18:24:19Z</time>
      </trkpt>
      <trkpt lat="59.9560621" lon="17.72148">
        <ele>51.5679</ele>
        <time>2014-05-27T18:24:20Z</time>
      </trkpt>
      <trkpt lat="59.9560613" lon="17.7214483">
        <ele>52.0486</ele>
        <time>2014-05-27T18:24:21Z</time>
      </trkpt>
      <trkpt lat="59.9560653" lon="17.7214136">
        <ele>53.4905</ele>
        <time>2014-05-27T18:24:22Z</time>
      </trkpt>
      <trkpt lat="59.9560518" lon="17.7213753">
        <ele>54.4518</ele>
        <time>2014-05-27T18:24:23Z</time>
      </trkpt>
      <trkpt lat="59.9560596" lon="17.721342">
        <ele>55.8938</ele>
        <time>2014-05-27T18:24:24Z</time>
      </trkpt>
      <trkpt lat="59.9560525" lon="17.7213146">
        <ele>57.3358</ele>
        <time>2014-05-27T18:24:25Z</time>
      </trkpt>
      <trkpt lat="59.9560271" lon="17.7212813">
        <ele>57.8165</ele>
        <time>2014-05-27T18:24:26Z</time>
      </trkpt>
      <trkpt lat="59.9559917" lon="17.7212583">
        <ele>58.7777</ele>
        <time>2014-05-27T18:24:27Z</time>
      </trkpt>
      <trkpt lat="59.9559489" lon="17.7212426">
        <ele>56.8551</ele>
        <time>2014-05-27T18:24:28Z</time>
      </trkpt>
      <trkpt lat="59.955909" lon="17.7212422">
        <ele>55.8938</ele>
        <time>2014-05-27T18:24:29Z</time>
      </trkpt>
      <trkpt lat="59.9558777" lon="17.721255">
        <ele>54.9324</ele>
        <time>2014-05-27T18:24:30Z</time>
      </trkpt>
      <trkpt lat="59.955844" lon="17.7212851">
        <ele>55.8938</ele>
        <time>2014-05-27T18:24:31Z</time>
      </trkpt>
      <trkpt lat="59.9558027" lon="17.7213238">
        <ele>55.8938</ele>
        <time>2014-05-27T18:24:32Z</time>
      </trkpt>
      <trkpt lat="59.9557734" lon="17.7213531">
        <ele>57.3358</ele>
        <time>2014-05-27T18:24:33Z</time>
      </trkpt>
      <trkpt lat="59.9557301" lon="17.7213802">
        <ele>56.8551</ele>
        <time>2014-05-27T18:24:34Z</time>
      </trkpt>
      <trkpt lat="59.955696" lon="17.7213927">
        <ele>55.4131</ele>
        <time>2014-05-27T18:24:35Z</time>
      </trkpt>
      <trkpt lat="59.9556684" lon="17.7213963">
        <ele>55.4131</ele>
        <time>2014-05-27T18:24:36Z</time>
      </trkpt>
      <trkpt lat="59.9556438" lon="17.7214071">
        <ele>54.9324</ele>
        <time>2014-05-27T18:24:37Z</time>
      </trkpt>
      <trkpt lat="59.9556158" lon="17.7214133">
        <ele>54.4518</ele>
        <time>2014-05-27T18:24:38Z</time>
      </trkpt>
      <trkpt lat="59.9555915" lon="17.7214203">
        <ele>54.4518</ele>
        <time>2014-05-27T18:24:39Z</time>
      </trkpt>
      <trkpt lat="59.9555671" lon="17.7214176">
        <ele>53.4905</ele>
        <time>2014-05-27T18:24:40Z</time>
      </trkpt>
      <trkpt lat="59.9555468" lon="17.7214286">
        <ele>53.4905</ele>
        <time>2014-05-27T18:24:41Z</time>
      </trkpt>
      <trkpt lat="59.9555158" lon="17.7214128">
        <ele>52.5292</ele>
        <time>2014-05-27T18:24:42Z</time>
      </trkpt>
      <trkpt lat="59.9554859" lon="17.7214022">
        <ele>51.5679</ele>
        <time>2014-05-27T18:24:43Z</time>
      </trkpt>
      <trkpt lat="59.9554558" lon="17.7213978">
        <ele>52.5292</ele>
        <time>2014-05-27T18:24:44Z</time>
      </trkpt>
      <trkpt lat="59.9554309" lon="17.7213852">
        <ele>53.4905</ele>
        <time>2014-05-27T18:24:45Z</time>
      </trkpt>
      <trkpt lat="59.9554016" lon="17.7213835">
        <ele>54.9324</ele>
        <time>2014-05-27T18:24:46Z</time>
      </trkpt>
      <trkpt lat="59.9553806" lon="17.7213627">
        <ele>53.9712</ele>
        <time>2014-05-27T18:24:47Z</time>
      </trkpt>
      <trkpt lat="59.9553572" lon="17.7213399">
        <ele>54.4518</ele>
        <time>2014-05-27T18:24:48Z</time>
      </trkpt>
      <trkpt lat="59.9553283" lon="17.7213378">
        <ele>54.9324</ele>
        <time>2014-05-27T18:24:49Z</time>
      </trkpt>
      <trkpt lat="59.9553029" lon="17.7213509">
        <ele>56.3745</ele>
        <time>2014-05-27T18:24:50Z</time>
      </trkpt>
      <trkpt lat="59.955273" lon="17.7213628">
        <ele>56.8551</ele>
        <time>2014-05-27T18:24:51Z</time>
      </trkpt>
      <trkpt lat="59.9552426" lon="17.7213664">
        <ele>57.3358</ele>
        <time>2014-05-27T18:24:52Z</time>
      </trkpt>
      <trkpt lat="59.9552134" lon="17.7213633">
        <ele>57.3358</ele>
        <time>2014-05-27T18:24:53Z</time>
      </trkpt>
      <trkpt lat="59.9551843" lon="17.7213774">
        <ele>58.2971</ele>
        <time>2014-05-27T18:24:54Z</time>
      </trkpt>
      <trkpt lat="59.9551584" lon="17.7213976">
        <ele>59.7391</ele>
        <time>2014-05-27T18:24:55Z</time>
      </trkpt>
      <trkpt lat="59.9551323" lon="17.721396">
        <ele>59.2584</ele>
        <time>2014-05-27T18:24:56Z</time>
      </trkpt>
      <trkpt lat="59.9551034" lon="17.7213872">
        <ele>58.2971</ele>
        <time>2014-05-27T18:24:57Z</time>
      </trkpt>
      <trkpt lat="59.9550817" lon="17.7213805">
        <ele>58.7777</ele>
        <time>2014-05-27T18:24:58Z</time>
      </trkpt>
      <trkpt lat="59.9550615" lon="17.7213777">
        <ele>58.7777</ele>
        <time>2014-05-27T18:24:59Z</time>
      </trkpt>
      <trkpt lat="59.9550341" lon="17.7213678">
        <ele>59.2584</ele>
        <time>2014-05-27T18:25:00Z</time>
      </trkpt>
      <trkpt lat="59.9550109" lon="17.7213576">
        <ele>58.2971</ele>
        <time>2014-05-27T18:25:01Z</time>
      </trkpt>
      <trkpt lat="59.9549812" lon="17.7213285">
        <ele>57.3358</ele>
        <time>2014-05-27T18:25:02Z</time>
      </trkpt>
      <trkpt lat="59.9549508" lon="17.7213084">
        <ele>57.3358</ele>
        <time>2014-05-27T18:25:03Z</time>
      </trkpt>
      <trkpt lat="59.954918" lon="17.721281">
        <ele>56.8551</ele>
        <time>2014-05-27T18:25:04Z</time>
      </trkpt>
      <trkpt lat="59.9549036" lon="17.7212471">
        <ele>55.8938</ele>
        <time>2014-05-27T18:25:05Z</time>
      </trkpt>
      <trkpt lat="59.9548857" lon="17.7212101">
        <ele>54.9324</ele>
        <time>2014-05-27T18:25:06Z</time>
      </trkpt>
      <trkpt lat="59.9548697" lon="17.7211702">
        <ele>54.9324</ele>
        <time>2014-05-27T18:25:07Z</time>
      </trkpt>
      <trkpt lat="59.9548463" lon="17.7211205">
        <ele>54.4518</ele>
        <time>2014-05-27T18:25:08Z</time>
      </trkpt>
      <trkpt lat="59.9548406" lon="17.7210774">
        <ele>54.9324</ele>
        <time>2014-05-27T18:25:09Z</time>
      </trkpt>
      <trkpt lat="59.9548273" lon="17.7210156">
        <ele>53.9712</ele>
        <time>2014-05-27T18:25:10Z</time>
      </trkpt>
      <trkpt lat="59.9548262" lon="17.7209526">
        <ele>53.4905</ele>
        <time>2014-05-27T18:25:11Z</time>
      </trkpt>
      <trkpt lat="59.9548299" lon="17.7208902">
        <ele>52.5292</ele>
        <time>2014-05-27T18:25:12Z</time>
      </trkpt>
      <trkpt lat="59.9548453" lon="17.7208293">
        <ele>53.4905</ele>
        <time>2014-05-27T18:25:13Z</time>
      </trkpt>
      <trkpt lat="59.954861" lon="17.7207734">
        <ele>54.9324</ele>
        <time>2014-05-27T18:25:14Z</time>
      </trkpt>
      <trkpt lat="59.9548662" lon="17.7207209">
        <ele>55.4131</ele>
        <time>2014-05-27T18:25:15Z</time>
      </trkpt>
      <trkpt lat="59.9548693" lon="17.7206675">
        <ele>55.8938</ele>
        <time>2014-05-27T18:25:16Z</time>
      </trkpt>
      <trkpt lat="59.9548811" lon="17.720626">
        <ele>57.3358</ele>
        <time>2014-05-27T18:25:17Z</time>
      </trkpt>
      <trkpt lat="59.9548971" lon="17.7205884">
        <ele>57.3358</ele>
        <time>2014-05-27T18:25:18Z</time>
      </trkpt>
      <trkpt lat="59.9549069" lon="17.7205522">
        <ele>56.8551</ele>
        <time>2014-05-27T18:25:19Z</time>
      </trkpt>
      <trkpt lat="59.954916" lon="17.7205137">
        <ele>55.4131</ele>
        <time>2014-05-27T18:25:20Z</time>
      </trkpt>
      <trkpt lat="59.9549272" lon="17.720482">
        <ele>55.4131</ele>
        <time>2014-05-27T18:25:21Z</time>
      </trkpt>
      <trkpt lat="59.954945" lon="17.7204493">
        <ele>55.4131</ele>
        <time>2014-05-27T18:25:22Z</time>
      </trkpt>
      <trkpt lat="59.9549647" lon="17.7204184">
        <ele>54.4518</ele>
        <time>2014-05-27T18:25:23Z</time>
      </trkpt>
      <trkpt lat="59.9549858" lon="17.7203927">
        <ele>54.9324</ele>
        <time>2014-05-27T18:25:24Z</time>
      </trkpt>
      <trkpt lat="59.9549989" lon="17.7203585">
        <ele>54.4518</ele>
        <time>2014-05-27T18:25:25Z</time>
      </trkpt>
      <trkpt lat="59.9550236" lon="17.720323">
        <ele>54.4518</ele>
        <time>2014-05-27T18:25:26Z</time>
      </trkpt>
      <trkpt lat="59.9550615" lon="17.7202885">
        <ele>55.4131</ele>
        <time>2014-05-27T18:25:27Z</time>
      </trkpt>
      <trkpt lat="59.9550849" lon="17.7202574">
        <ele>55.8938</ele>
        <time>2014-05-27T18:25:28Z</time>
      </trkpt>
      <trkpt lat="59.9550994" lon="17.7202346">
        <ele>54.9324</ele>
        <time>2014-05-27T18:25:29Z</time>
      </trkpt>
      <trkpt lat="59.955119" lon="17.7202179">
        <ele>54.4518</ele>
        <time>2014-05-27T18:25:30Z</time>
      </trkpt>
      <trkpt lat="59.9551325" lon="17.720204">
        <ele>54.4518</ele>
        <time>2014-05-27T18:25:31Z</time>
      </trkpt>
      <trkpt lat="59.9551518" lon="17.7201865">
        <ele>54.4518</ele>
        <time>2014-05-27T18:25:32Z</time>
      </trkpt>
      <trkpt lat="59.9551699" lon="17.7201635">
        <ele>54.4518</ele>
        <time>2014-05-27T18:25:33Z</time>
      </trkpt>
      <trkpt lat="59.9551916" lon="17.7201398">
        <ele>54.4518</ele>
        <time>2014-05-27T18:25:34Z</time>
      </trkpt>
      <trkpt lat="59.9552132" lon="17.7201222">
        <ele>55.4131</ele>
        <time>2014-05-27T18:25:35Z</time>
      </trkpt>
      <trkpt lat="59.9552356" lon="17.7200958">
        <ele>56.8551</ele>
        <time>2014-05-27T18:25:36Z</time>
      </trkpt>
      <trkpt lat="59.9552651" lon="17.7200636">
        <ele>57.3358</ele>
        <time>2014-05-27T18:25:37Z</time>
      </trkpt>
      <trkpt lat="59.9552987" lon="17.7200408">
        <ele>59.7391</ele>
        <time>2014-05-27T18:25:38Z</time>
      </trkpt>
      <trkpt lat="59.9553211" lon="17.7200168">
        <ele>60.2197</ele>
        <time>2014-05-27T18:25:39Z</time>
      </trkpt>
      <trkpt lat="59.9553354" lon="17.719993">
        <ele>60.2197</ele>
        <time>2014-05-27T18:25:40Z</time>
      </trkpt>
      <trkpt lat="59.9553499" lon="17.7199609">
        <ele>60.2197</ele>
        <time>2014-05-27T18:25:41Z</time>
      </trkpt>
      <trkpt lat="59.9553672" lon="17.719931">
        <ele>61.181</ele>
        <time>2014-05-27T18:25:42Z</time>
      </trkpt>
      <trkpt lat="59.9553836" lon="17.7199113">
        <ele>62.1423</ele>
        <time>2014-05-27T18:25:43Z</time>
      </trkpt>
      <trkpt lat="59.9554028" lon="17.7198932">
        <ele>62.1423</ele>
        <time>2014-05-27T18:25:44Z</time>
      </trkpt>
      <trkpt lat="59.9554236" lon="17.7198746">
        <ele>62.6229</ele>
        <time>2014-05-27T18:25:45Z</time>
      </trkpt>
      <trkpt lat="59.9554431" lon="17.7198565">
        <ele>63.5844</ele>
        <time>2014-05-27T18:25:46Z</time>
      </trkpt>
      <trkpt lat="59.9554614" lon="17.7198347">
        <ele>62.6229</ele>
        <time>2014-05-27T18:25:47Z</time>
      </trkpt>
      <trkpt lat="59.9554919" lon="17.7198275">
        <ele>62.6229</ele>
        <time>2014-05-27T18:25:48Z</time>
      </trkpt>
      <trkpt lat="59.9555164" lon="17.7198248">
        <ele>62.1423</ele>
        <time>2014-05-27T18:25:49Z</time>
      </trkpt>
      <trkpt lat="59.955535" lon="17.7198196">
        <ele>61.6617</ele>
        <time>2014-05-27T18:25:50Z</time>
      </trkpt>
      <trkpt lat="59.9555508" lon="17.7198119">
        <ele>61.181</ele>
        <time>2014-05-27T18:25:51Z</time>
      </trkpt>
      <trkpt lat="59.9555775" lon="17.7197963">
        <ele>60.7003</ele>
        <time>2014-05-27T18:25:52Z</time>
      </trkpt>
      <trkpt lat="59.9556137" lon="17.7197808">
        <ele>60.7003</ele>
        <time>2014-05-27T18:25:53Z</time>
      </trkpt>
      <trkpt lat="59.9556489" lon="17.7197627">
        <ele>60.2197</ele>
        <time>2014-05-27T18:25:54Z</time>
      </trkpt>
      <trkpt lat="59.9556835" lon="17.7197435">
        <ele>60.2197</ele>
        <time>2014-05-27T18:25:55Z</time>
      </trkpt>
      <trkpt lat="59.9557121" lon="17.7197184">
        <ele>60.7003</ele>
        <time>2014-05-27T18:25:56Z</time>
      </trkpt>
      <trkpt lat="59.9557492" lon="17.7196962">
        <ele>61.6617</ele>
        <time>2014-05-27T18:25:57Z</time>
      </trkpt>
      <trkpt lat="59.9557791" lon="17.7196702">
        <ele>62.1423</ele>
        <time>2014-05-27T18:25:58Z</time>
      </trkpt>
      <trkpt lat="59.9558049" lon="17.7196454">
        <ele>63.5844</ele>
        <time>2014-05-27T18:25:59Z</time>
      </trkpt>
      <trkpt lat="59.9558347" lon="17.7196203">
        <ele>65.5071</ele>
        <time>2014-05-27T18:26:00Z</time>
      </trkpt>
      <trkpt lat="59.9558656" lon="17.7195809">
        <ele>66.949</ele>
        <time>2014-05-27T18:26:01Z</time>
      </trkpt>
      <trkpt lat="59.9558875" lon="17.7195394">
        <ele>66.4683</ele>
        <time>2014-05-27T18:26:02Z</time>
      </trkpt>
      <trkpt lat="59.9559095" lon="17.7195119">
        <ele>65.5071</ele>
        <time>2014-05-27T18:26:03Z</time>
      </trkpt>
      <trkpt lat="59.9559352" lon="17.7194887">
        <ele>64.0651</ele>
        <time>2014-05-27T18:26:04Z</time>
      </trkpt>
      <trkpt lat="59.9559653" lon="17.7194657">
        <ele>65.5071</ele>
        <time>2014-05-27T18:26:05Z</time>
      </trkpt>
      <trkpt lat="59.955997" lon="17.7194368">
        <ele>65.9877</ele>
        <time>2014-05-27T18:26:06Z</time>
      </trkpt>
      <trkpt lat="59.9560281" lon="17.7193927">
        <ele>67.4297</ele>
        <time>2014-05-27T18:26:07Z</time>
      </trkpt>
      <trkpt lat="59.9560513" lon="17.7193524">
        <ele>67.9103</ele>
        <time>2014-05-27T18:26:08Z</time>
      </trkpt>
      <trkpt lat="59.9560758" lon="17.7193239">
        <ele>70.3135</ele>
        <time>2014-05-27T18:26:09Z</time>
      </trkpt>
      <trkpt lat="59.9560965" lon="17.7192908">
        <ele>70.3135</ele>
        <time>2014-05-27T18:26:10Z</time>
      </trkpt>
      <trkpt lat="59.9561208" lon="17.7192528">
        <ele>70.3135</ele>
        <time>2014-05-27T18:26:11Z</time>
      </trkpt>
      <trkpt lat="59.9561409" lon="17.7192084">
        <ele>68.8716</ele>
        <time>2014-05-27T18:26:12Z</time>
      </trkpt>
      <trkpt lat="59.9561709" lon="17.7191652">
        <ele>70.3135</ele>
        <time>2014-05-27T18:26:13Z</time>
      </trkpt>
      <trkpt lat="59.9561844" lon="17.7191289">
        <ele>68.3909</ele>
        <time>2014-05-27T18:26:14Z</time>
      </trkpt>
      <trkpt lat="59.9561939" lon="17.7190954">
        <ele>66.949</ele>
        <time>2014-05-27T18:26:15Z</time>
      </trkpt>
      <trkpt lat="59.956197" lon="17.7190556">
        <ele>65.0264</ele>
        <time>2014-05-27T18:26:16Z</time>
      </trkpt>
      <trkpt lat="59.9561952" lon="17.7190094">
        <ele>62.6229</ele>
        <time>2014-05-27T18:26:17Z</time>
      </trkpt>
      <trkpt lat="59.9562071" lon="17.7189679">
        <ele>62.1423</ele>
        <time>2014-05-27T18:26:18Z</time>
      </trkpt>
      <trkpt lat="59.9562172" lon="17.718927">
        <ele>61.181</ele>
        <time>2014-05-27T18:26:19Z</time>
      </trkpt>
      <trkpt lat="59.9562203" lon="17.7188774">
        <ele>60.2197</ele>
        <time>2014-05-27T18:26:20Z</time>
      </trkpt>
      <trkpt lat="59.9562246" lon="17.7188223">
        <ele>58.7777</ele>
        <time>2014-05-27T18:26:21Z</time>
      </trkpt>
      <trkpt lat="59.9562307" lon="17.7187706">
        <ele>58.2971</ele>
        <time>2014-05-27T18:26:22Z</time>
      </trkpt>
      <trkpt lat="59.9562255" lon="17.7187187">
        <ele>56.8551</ele>
        <time>2014-05-27T18:26:23Z</time>
      </trkpt>
      <trkpt lat="59.9562289" lon="17.7186671">
        <ele>56.8551</ele>
        <time>2014-05-27T18:26:24Z</time>
      </trkpt>
      <trkpt lat="59.9562365" lon="17.7186049">
        <ele>56.3745</ele>
        <time>2014-05-27T18:26:25Z</time>
      </trkpt>
      <trkpt lat="59.9562341" lon="17.7185574">
        <ele>54.9324</ele>
        <time>2014-05-27T18:26:26Z</time>
      </trkpt>
      <trkpt lat="59.9562176" lon="17.718508">
        <ele>53.9712</ele>
        <time>2014-05-27T18:26:27Z</time>
      </trkpt>
      <trkpt lat="59.9562014" lon="17.7184586">
        <ele>53.4905</ele>
        <time>2014-05-27T18:26:28Z</time>
      </trkpt>
      <trkpt lat="59.9561886" lon="17.7184092">
        <ele>53.4905</ele>
        <time>2014-05-27T18:26:29Z</time>
      </trkpt>
      <trkpt lat="59.9561743" lon="17.7183553">
        <ele>53.0098</ele>
        <time>2014-05-27T18:26:30Z</time>
      </trkpt>
      <trkpt lat="59.956155" lon="17.7183111">
        <ele>52.0486</ele>
        <time>2014-05-27T18:26:31Z</time>
      </trkpt>
      <trkpt lat="59.9561369" lon="17.7182677">
        <ele>51.0872</ele>
        <time>2014-05-27T18:26:32Z</time>
      </trkpt>
      <trkpt lat="59.956129" lon="17.7182198">
        <ele>52.0486</ele>
        <time>2014-05-27T18:26:33Z</time>
      </trkpt>
      <trkpt lat="59.9561132" lon="17.7181687">
        <ele>51.0872</ele>
        <time>2014-05-27T18:26:34Z</time>
      </trkpt>
      <trkpt lat="59.9560882" lon="17.7181189">
        <ele>49.6453</ele>
        <time>2014-05-27T18:26:35Z</time>
      </trkpt>
      <trkpt lat="59.9560738" lon="17.7180776">
        <ele>49.6453</ele>
        <time>2014-05-27T18:26:36Z</time>
      </trkpt>
      <trkpt lat="59.9560552" lon="17.71803">
        <ele>49.1646</ele>
        <time>2014-05-27T18:26:37Z</time>
      </trkpt>
      <trkpt lat="59.9560412" lon="17.7179916">
        <ele>49.1646</ele>
        <time>2014-05-27T18:26:38Z</time>
      </trkpt>
      <trkpt lat="59.9560224" lon="17.7179359">
        <ele>52.0486</ele>
        <time>2014-05-27T18:26:40Z</time>
      </trkpt>
      <trkpt lat="59.9560026" lon="17.7179023">
        <ele>52.0486</ele>
        <time>2014-05-27T18:26:41Z</time>
      </trkpt>
      <trkpt lat="59.9559839" lon="17.7178625">
        <ele>52.5292</ele>
        <time>2014-05-27T18:26:42Z</time>
      </trkpt>
      <trkpt lat="59.9559725" lon="17.7178261">
        <ele>53.0098</ele>
        <time>2014-05-27T18:26:43Z</time>
      </trkpt>
      <trkpt lat="59.9559582" lon="17.7177928">
        <ele>53.0098</ele>
        <time>2014-05-27T18:26:44Z</time>
      </trkpt>
      <trkpt lat="59.9559406" lon="17.7177476">
        <ele>52.0486</ele>
        <time>2014-05-27T18:26:45Z</time>
      </trkpt>
      <trkpt lat="59.9559244" lon="17.7177011">
        <ele>52.0486</ele>
        <time>2014-05-27T18:26:46Z</time>
      </trkpt>
      <trkpt lat="59.9559126" lon="17.7176507">
        <ele>51.5679</ele>
        <time>2014-05-27T18:26:47Z</time>
      </trkpt>
      <trkpt lat="59.9558907" lon="17.7176077">
        <ele>50.6066</ele>
        <time>2014-05-27T18:26:48Z</time>
      </trkpt>
      <trkpt lat="59.9558774" lon="17.7175782">
        <ele>51.0872</ele>
        <time>2014-05-27T18:26:49Z</time>
      </trkpt>
      <trkpt lat="59.9558614" lon="17.7175466">
        <ele>51.5679</ele>
        <time>2014-05-27T18:26:50Z</time>
      </trkpt>
      <trkpt lat="59.9558433" lon="17.7175025">
        <ele>51.0872</ele>
        <time>2014-05-27T18:26:51Z</time>
      </trkpt>
      <trkpt lat="59.9558225" lon="17.7174667">
        <ele>51.0872</ele>
        <time>2014-05-27T18:26:52Z</time>
      </trkpt>
      <trkpt lat="59.9558008" lon="17.7174398">
        <ele>52.0486</ele>
        <time>2014-05-27T18:26:53Z</time>
      </trkpt>
      <trkpt lat="59.955777" lon="17.7174115">
        <ele>51.5679</ele>
        <time>2014-05-27T18:26:54Z</time>
      </trkpt>
      <trkpt lat="59.9557555" lon="17.7173865">
        <ele>51.5679</ele>
        <time>2014-05-27T18:26:55Z</time>
      </trkpt>
      <trkpt lat="59.9557384" lon="17.7173581">
        <ele>52.0486</ele>
        <time>2014-05-27T18:26:56Z</time>
      </trkpt>
      <trkpt lat="59.9557119" lon="17.7173274">
        <ele>51.5679</ele>
        <time>2014-05-27T18:26:57Z</time>
      </trkpt>
      <trkpt lat="59.9556883" lon="17.717283">
        <ele>50.126</ele>
        <time>2014-05-27T18:26:58Z</time>
      </trkpt>
      <trkpt lat="59.9556674" lon="17.7172341">
        <ele>48.684</ele>
        <time>2014-05-27T18:26:59Z</time>
      </trkpt>
      <trkpt lat="59.9556506" lon="17.7171853">
        <ele>47.2418</ele>
        <time>2014-05-27T18:27:00Z</time>
      </trkpt>
      <trkpt lat="59.955637" lon="17.7171294">
        <ele>46.2806</ele>
        <time>2014-05-27T18:27:01Z</time>
      </trkpt>
      <trkpt lat="59.955622" lon="17.7170669">
        <ele>45.7999</ele>
        <time>2014-05-27T18:27:02Z</time>
      </trkpt>
      <trkpt lat="59.9556052" lon="17.7170109">
        <ele>45.7999</ele>
        <time>2014-05-27T18:27:03Z</time>
      </trkpt>
      <trkpt lat="59.9555842" lon="17.7169714">
        <ele>46.7612</ele>
        <time>2014-05-27T18:27:04Z</time>
      </trkpt>
      <trkpt lat="59.9555579" lon="17.7169271">
        <ele>46.2806</ele>
        <time>2014-05-27T18:27:05Z</time>
      </trkpt>
      <trkpt lat="59.955547" lon="17.7168639">
        <ele>46.2806</ele>
        <time>2014-05-27T18:27:06Z</time>
      </trkpt>
      <trkpt lat="59.9555429" lon="17.7167996">
        <ele>45.7999</ele>
        <time>2014-05-27T18:27:07Z</time>
      </trkpt>
      <trkpt lat="59.955539" lon="17.7167344">
        <ele>45.7999</ele>
        <time>2014-05-27T18:27:08Z</time>
      </trkpt>
      <trkpt lat="59.955537" lon="17.7166731">
        <ele>46.2806</ele>
        <time>2014-05-27T18:27:09Z</time>
      </trkpt>
      <trkpt lat="59.9555335" lon="17.7166182">
        <ele>46.7612</ele>
        <time>2014-05-27T18:27:10Z</time>
      </trkpt>
      <trkpt lat="59.9555216" lon="17.716562">
        <ele>46.2806</ele>
        <time>2014-05-27T18:27:11Z</time>
      </trkpt>
      <trkpt lat="59.9555159" lon="17.7164981">
        <ele>45.3192</ele>
        <time>2014-05-27T18:27:12Z</time>
      </trkpt>
      <trkpt lat="59.9555161" lon="17.716438">
        <ele>44.8386</ele>
        <time>2014-05-27T18:27:13Z</time>
      </trkpt>
      <trkpt lat="59.9555237" lon="17.7163869">
        <ele>45.7999</ele>
        <time>2014-05-27T18:27:14Z</time>
      </trkpt>
      <trkpt lat="59.9555245" lon="17.7163526">
        <ele>46.2806</ele>
        <time>2014-05-27T18:27:15Z</time>
      </trkpt>
      <trkpt lat="59.9555218" lon="17.7163151">
        <ele>47.2418</ele>
        <time>2014-05-27T18:27:16Z</time>
      </trkpt>
      <trkpt lat="59.9555118" lon="17.7162542">
        <ele>48.2034</ele>
        <time>2014-05-27T18:27:17Z</time>
      </trkpt>
      <trkpt lat="59.9555118" lon="17.7161882">
        <ele>48.684</ele>
        <time>2014-05-27T18:27:18Z</time>
      </trkpt>
      <trkpt lat="59.9555179" lon="17.7161312">
        <ele>49.1646</ele>
        <time>2014-05-27T18:27:19Z</time>
      </trkpt>
      <trkpt lat="59.9554996" lon="17.7160678">
        <ele>50.126</ele>
        <time>2014-05-27T18:27:20Z</time>
      </trkpt>
      <trkpt lat="59.9554967" lon="17.7160123">
        <ele>50.6066</ele>
        <time>2014-05-27T18:27:21Z</time>
      </trkpt>
      <trkpt lat="59.9554832" lon="17.7159442">
        <ele>50.6066</ele>
        <time>2014-05-27T18:27:22Z</time>
      </trkpt>
      <trkpt lat="59.9554713" lon="17.715874">
        <ele>51.0872</ele>
        <time>2014-05-27T18:27:23Z</time>
      </trkpt>
      <trkpt lat="59.9554683" lon="17.7158223">
        <ele>51.5679</ele>
        <time>2014-05-27T18:27:24Z</time>
      </trkpt>
      <trkpt lat="59.9554797" lon="17.7157828">
        <ele>52.5292</ele>
        <time>2014-05-27T18:27:25Z</time>
      </trkpt>
      <trkpt lat="59.955482" lon="17.7157277">
        <ele>53.0098</ele>
        <time>2014-05-27T18:27:26Z</time>
      </trkpt>
      <trkpt lat="59.9554893" lon="17.7156724">
        <ele>52.5292</ele>
        <time>2014-05-27T18:27:27Z</time>
      </trkpt>
      <trkpt lat="59.9554851" lon="17.7156112">
        <ele>52.5292</ele>
        <time>2014-05-27T18:27:28Z</time>
      </trkpt>
      <trkpt lat="59.9555056" lon="17.7155562">
        <ele>54.9324</ele>
        <time>2014-05-27T18:27:29Z</time>
      </trkpt>
      <trkpt lat="59.9555211" lon="17.7154855">
        <ele>55.4131</ele>
        <time>2014-05-27T18:27:30Z</time>
      </trkpt>
      <trkpt lat="59.9555175" lon="17.7154175">
        <ele>55.4131</ele>
        <time>2014-05-27T18:27:31Z</time>
      </trkpt>
      <trkpt lat="59.9555121" lon="17.7153669">
        <ele>55.8938</ele>
        <time>2014-05-27T18:27:32Z</time>
      </trkpt>
      <trkpt lat="59.9555096" lon="17.7153144">
        <ele>55.8938</ele>
        <time>2014-05-27T18:27:33Z</time>
      </trkpt>
      <trkpt lat="59.9555052" lon="17.7152556">
        <ele>54.9324</ele>
        <time>2014-05-27T18:27:34Z</time>
      </trkpt>
      <trkpt lat="59.9555078" lon="17.7152025">
        <ele>54.4518</ele>
        <time>2014-05-27T18:27:35Z</time>
      </trkpt>
      <trkpt lat="59.955493" lon="17.7151349">
        <ele>53.0098</ele>
        <time>2014-05-27T18:27:36Z</time>
      </trkpt>
      <trkpt lat="59.9554862" lon="17.7150642">
        <ele>52.0486</ele>
        <time>2014-05-27T18:27:37Z</time>
      </trkpt>
      <trkpt lat="59.955482" lon="17.7150073">
        <ele>51.0872</ele>
        <time>2014-05-27T18:27:38Z</time>
      </trkpt>
      <trkpt lat="59.9554705" lon="17.7149584">
        <ele>49.6453</ele>
        <time>2014-05-27T18:27:39Z</time>
      </trkpt>
      <trkpt lat="59.9554682" lon="17.7149093">
        <ele>49.1646</ele>
        <time>2014-05-27T18:27:40Z</time>
      </trkpt>
      <trkpt lat="59.9554623" lon="17.7148569">
        <ele>47.7225</ele>
        <time>2014-05-27T18:27:41Z</time>
      </trkpt>
      <trkpt lat="59.955453" lon="17.7148005">
        <ele>47.2418</ele>
        <time>2014-05-27T18:27:42Z</time>
      </trkpt>
      <trkpt lat="59.9554343" lon="17.7147411">
        <ele>46.2806</ele>
        <time>2014-05-27T18:27:43Z</time>
      </trkpt>
      <trkpt lat="59.9554159" lon="17.7146702">
        <ele>44.358</ele>
        <time>2014-05-27T18:27:44Z</time>
      </trkpt>
      <trkpt lat="59.9554016" lon="17.7145981">
        <ele>42.916</ele>
        <time>2014-05-27T18:27:45Z</time>
      </trkpt>
      <trkpt lat="59.9553846" lon="17.7145358">
        <ele>41.9547</ele>
        <time>2014-05-27T18:27:46Z</time>
      </trkpt>
      <trkpt lat="59.9553716" lon="17.714473">
        <ele>41.474</ele>
        <time>2014-05-27T18:27:47Z</time>
      </trkpt>
      <trkpt lat="59.9553576" lon="17.7144199">
        <ele>40.5128</ele>
        <time>2014-05-27T18:27:48Z</time>
      </trkpt>
      <trkpt lat="59.9553397" lon="17.7143587">
        <ele>39.0707</ele>
        <time>2014-05-27T18:27:49Z</time>
      </trkpt>
      <trkpt lat="59.9553221" lon="17.7142907">
        <ele>37.6287</ele>
        <time>2014-05-27T18:27:50Z</time>
      </trkpt>
      <trkpt lat="59.9553043" lon="17.714235">
        <ele>37.1481</ele>
        <time>2014-05-27T18:27:51Z</time>
      </trkpt>
      <trkpt lat="59.9552812" lon="17.7141841">
        <ele>36.6675</ele>
        <time>2014-05-27T18:27:52Z</time>
      </trkpt>
      <trkpt lat="59.955261" lon="17.7141376">
        <ele>37.6287</ele>
        <time>2014-05-27T18:27:53Z</time>
      </trkpt>
      <trkpt lat="59.9552288" lon="17.7141059">
        <ele>36.1868</ele>
        <time>2014-05-27T18:27:54Z</time>
      </trkpt>
      <trkpt lat="59.9551972" lon="17.7140991">
        <ele>35.2255</ele>
        <time>2014-05-27T18:27:55Z</time>
      </trkpt>
      <trkpt lat="59.9551632" lon="17.7141205">
        <ele>34.2642</ele>
        <time>2014-05-27T18:27:56Z</time>
      </trkpt>
      <trkpt lat="59.9551334" lon="17.7141625">
        <ele>32.8223</ele>
        <time>2014-05-27T18:27:57Z</time>
      </trkpt>
      <trkpt lat="59.9551137" lon="17.7142058">
        <ele>32.3416</ele>
        <time>2014-05-27T18:27:58Z</time>
      </trkpt>
      <trkpt lat="59.9550932" lon="17.714242">
        <ele>31.3801</ele>
        <time>2014-05-27T18:27:59Z</time>
      </trkpt>
      <trkpt lat="59.9550688" lon="17.7142671">
        <ele>31.3801</ele>
        <time>2014-05-27T18:28:00Z</time>
      </trkpt>
      <trkpt lat="59.9550282" lon="17.714293">
        <ele>31.3801</ele>
        <time>2014-05-27T18:28:01Z</time>
      </trkpt>
      <trkpt lat="59.9549899" lon="17.7143214">
        <ele>30.8995</ele>
        <time>2014-05-27T18:28:02Z</time>
      </trkpt>
      <trkpt lat="59.9549663" lon="17.7143526">
        <ele>30.4188</ele>
        <time>2014-05-27T18:28:03Z</time>
      </trkpt>
      <trkpt lat="59.9549413" lon="17.7143887">
        <ele>29.9381</ele>
        <time>2014-05-27T18:28:04Z</time>
      </trkpt>
      <trkpt lat="59.954914" lon="17.7144306">
        <ele>30.4188</ele>
        <time>2014-05-27T18:28:05Z</time>
      </trkpt>
      <trkpt lat="59.9548845" lon="17.7144784">
        <ele>30.4188</ele>
        <time>2014-05-27T18:28:06Z</time>
      </trkpt>
      <trkpt lat="59.9548558" lon="17.7145296">
        <ele>29.4575</ele>
        <time>2014-05-27T18:28:07Z</time>
      </trkpt>
      <trkpt lat="59.9548319" lon="17.7145722">
        <ele>29.9381</ele>
        <time>2014-05-27T18:28:08Z</time>
      </trkpt>
      <trkpt lat="59.9548061" lon="17.7146073">
        <ele>29.9381</ele>
        <time>2014-05-27T18:28:09Z</time>
      </trkpt>
      <trkpt lat="59.9547769" lon="17.7146297">
        <ele>29.4575</ele>
        <time>2014-05-27T18:28:10Z</time>
      </trkpt>
      <trkpt lat="59.9547508" lon="17.7146586">
        <ele>29.9381</ele>
        <time>2014-05-27T18:28:11Z</time>
      </trkpt>
      <trkpt lat="59.9547208" lon="17.7146866">
        <ele>30.8995</ele>
        <time>2014-05-27T18:28:12Z</time>
      </trkpt>
      <trkpt lat="59.9546914" lon="17.7147032">
        <ele>31.3801</ele>
        <time>2014-05-27T18:28:13Z</time>
      </trkpt>
      <trkpt lat="59.9546668" lon="17.7147116">
        <ele>31.3801</ele>
        <time>2014-05-27T18:28:14Z</time>
      </trkpt>
      <trkpt lat="59.9546464" lon="17.7147229">
        <ele>33.3029</ele>
        <time>2014-05-27T18:28:15Z</time>
      </trkpt>
      <trkpt lat="59.9546184" lon="17.7147404">
        <ele>34.2642</ele>
        <time>2014-05-27T18:28:16Z</time>
      </trkpt>
      <trkpt lat="59.9545906" lon="17.7147626">
        <ele>35.2255</ele>
        <time>2014-05-27T18:28:17Z</time>
      </trkpt>
      <trkpt lat="59.954565" lon="17.7147721">
        <ele>35.7061</ele>
        <time>2014-05-27T18:28:18Z</time>
      </trkpt>
      <trkpt lat="59.9545383" lon="17.7147813">
        <ele>36.1868</ele>
        <time>2014-05-27T18:28:19Z</time>
      </trkpt>
      <trkpt lat="59.9545176" lon="17.7147887">
        <ele>36.6675</ele>
        <time>2014-05-27T18:28:20Z</time>
      </trkpt>
      <trkpt lat="59.9544874" lon="17.7148048">
        <ele>38.1094</ele>
        <time>2014-05-27T18:28:21Z</time>
      </trkpt>
      <trkpt lat="59.9544552" lon="17.7148207">
        <ele>38.5901</ele>
        <time>2014-05-27T18:28:22Z</time>
      </trkpt>
      <trkpt lat="59.954421" lon="17.7148343">
        <ele>39.0707</ele>
        <time>2014-05-27T18:28:23Z</time>
      </trkpt>
      <trkpt lat="59.9543926" lon="17.7148538">
        <ele>40.0321</ele>
        <time>2014-05-27T18:28:24Z</time>
      </trkpt>
      <trkpt lat="59.9543627" lon="17.714853">
        <ele>40.5128</ele>
        <time>2014-05-27T18:28:25Z</time>
      </trkpt>
      <trkpt lat="59.9543384" lon="17.7148575">
        <ele>41.474</ele>
        <time>2014-05-27T18:28:26Z</time>
      </trkpt>
      <trkpt lat="59.9543107" lon="17.714855">
        <ele>42.916</ele>
        <time>2014-05-27T18:28:27Z</time>
      </trkpt>
      <trkpt lat="59.9542881" lon="17.7148467">
        <ele>44.358</ele>
        <time>2014-05-27T18:28:28Z</time>
      </trkpt>
      <trkpt lat="59.9542694" lon="17.7148524">
        <ele>44.8386</ele>
        <time>2014-05-27T18:28:29Z</time>
      </trkpt>
      <trkpt lat="59.9542457" lon="17.7148561">
        <ele>45.3192</ele>
        <time>2014-05-27T18:28:30Z</time>
      </trkpt>
      <trkpt lat="59.9542274" lon="17.7148593">
        <ele>45.3192</ele>
        <time>2014-05-27T18:28:31Z</time>
      </trkpt>
      <trkpt lat="59.9542088" lon="17.7148665">
        <ele>45.7999</ele>
        <time>2014-05-27T18:28:32Z</time>
      </trkpt>
      <trkpt lat="59.9541879" lon="17.7148763">
        <ele>46.7612</ele>
        <time>2014-05-27T18:28:33Z</time>
      </trkpt>
      <trkpt lat="59.9541659" lon="17.7148934">
        <ele>49.1646</ele>
        <time>2014-05-27T18:28:34Z</time>
      </trkpt>
      <trkpt lat="59.9541343" lon="17.7148939">
        <ele>49.6453</ele>
        <time>2014-05-27T18:28:35Z</time>
      </trkpt>
      <trkpt lat="59.9541066" lon="17.7149108">
        <ele>50.126</ele>
        <time>2014-05-27T18:28:36Z</time>
      </trkpt>
      <trkpt lat="59.9540752" lon="17.7149204">
        <ele>51.0872</ele>
        <time>2014-05-27T18:28:37Z</time>
      </trkpt>
    </trkseg>
  </trk>
</gpx>